[[{"header":{"parameterUnit":"m.s-1","parameterCategory":1,"la1":31.0,"la2":29.5877,"lo1":-88.7671,"lo2":-86.6584,"dy":0.0162,"dx":0.0185,"nx":115,"ny":88,"refTime":"2023-06-08T00:00:00:Z","depth":0,"parameterNumber":2,"parameterNumberName":"U-component_of_WINDS"},"data":[0.0,0.0,0.0,0.0,0.0,0.0,0.0,0.0,0.0,0.0,0.0,0.0,0.0,0.0,0.0,0.0,0.0,0.0,0.0,0.0,0.0,0.0,0.0,0.0,0.0,0.0,0.0,0.0,0.0,0.0,0.0,0.0,0.0,0.0,0.0,0.0,0.0,0.0,0.0,0.0,0.0,0.0,0.0,0.0,0.0,0.0,0.0,0.0,0.0,0.0,0.0,0.0,0.0,0.0,0.0,0.0,0.0,0.0,0.0,0.0,0.0,0.0,0.0,0.0,0.0,0.0,0.0,0.0,0.0,0.0,0.0,0.0,0.0,0.0,0.0,0.0,0.0,0.0,0.0,0.0,0.0,0.0,0.0,0.0,0.0,0.0,0.0,0.0,0.0,0.0,0.0,0.0,0.0,0.0,0.0,0.0,0.0,0.0,0.0,0.0,0.0,0.0,0.0,0.0,0.0,0.0,0.0,0.0,0.0,0.0,0.0,0.0,0.0,0.0,0.0,0.0,0.0,0.0,0.0,0.0,0.0,0.0,0.0,0.0,0.0,0.0,0.0,0.0,0.0,0.0,0.0,0.0,0.0,0.0,0.0,0.0,0.0,0.0,0.0,0.0,0.0,0.0,0.0,0.0,0.0,0.0,0.0,0.0,0.0,0.0,0.0,0.0,0.0,0.0,0.0,0.0,0.0,0.0,0.0,0.0,0.0,0.0,0.0,0.0,0.0,0.0,0.0,0.0,0.0,0.0,0.0,0.0,0.0,0.0,0.0,0.0,0.0,0.0,0.0,0.0,0.0,0.0,0.0,0.0,0.0,0.0,0.0,0.0,0.0,0.0,0.0,0.0,0.0,0.0,0.0,0.0,0.0,0.0,0.0,0.0,0.0,0.0,0.0,0.0,0.0,0.0,0.0,0.0,0.0,0.0,0.0,0.0,0.0,0.0,0.0,0.0,0.0,0.0,0.0,0.0,0.0,0.0,0.0,0.0,0.0,0.0,0.0,0.0,0.0,0.0,0.0,0.0,0.0,0.0,0.0,0.0,0.0,0.0,0.0,0.0,0.0,0.0,0.0,0.0,0.0,0.0,0.0,0.0,0.0,0.0,0.0,0.0,0.0,0.0,0.0,0.0,0.0,0.0,0.0,0.0,0.0,0.0,0.0,0.0,0.0,0.0,0.0,0.0,0.0,0.0,0.0,0.0,0.0,0.0,0.0,0.0,0.0,0.0,0.0,0.0,0.0,0.0,0.0,0.0,0.0,0.0,0.0,0.0,0.0,0.0,0.0,0.0,0.0,0.0,0.0,0.0,0.0,0.0,0.0,0.0,0.0,0.0,0.0,0.0,0.0,0.0,0.0,0.0,0.0,0.0,0.0,0.0,0.0,0.0,0.0,0.0,0.0,0.0,0.0,0.0,0.0,0.0,0.0,0.0,0.0,0.0,0.0,0.0,0.0,0.0,0.0,0.0,0.0,0.0,0.0,0.0,0.0,0.0,0.0,0.0,0.0,0.0,0.0,0.0,0.0,0.0,0.0,0.0,0.0,0.0,0.0,0.0,0.0,0.0,0.0,0.0,0.0,0.0,0.0,0.0,0.0,0.0,0.0,0.0,0.0,0.0,0.0,0.0,0.0,0.0,0.0,0.0,0.0,0.0,0.0,0.0,0.0,0.0,0.0,0.0,0.0,0.0,0.0,0.0,0.0,0.0,0.0,0.0,0.0,0.0,0.0,0.0,0.0,0.0,0.0,0.0,0.0,0.0,0.0,0.0,0.0,0.0,0.0,0.0,0.0,0.0,0.0,0.0,0.0,0.0,0.0,0.0,0.0,0.0,0.0,0.0,0.0,0.0,0.0,0.0,0.0,0.0,0.0,0.0,0.0,0.0,0.0,0.0,0.0,0.0,0.0,0.0,0.0,0.0,0.0,0.0,0.0,0.0,0.0,0.0,0.0,0.0,0.0,0.0,0.0,0.0,0.0,0.0,0.0,0.0,0.0,0.0,0.0,0.0,0.0,0.0,0.0,0.0,0.0,0.0,0.0,0.0,0.0,0.0,0.0,0.0,0.0,0.0,0.0,0.0,0.0,0.0,0.0,0.0,0.0,0.0,0.0,0.0,0.0,0.0,0.0,0.0,0.0,0.0,0.0,0.0,0.0,0.0,0.0,0.0,0.0,0.0,0.0,0.0,0.0,0.0,0.0,0.0,0.0,0.0,0.0,0.0,0.0,0.0,0.0,0.0,0.0,0.0,0.0,0.0,0.0,0.0,0.0,0.0,0.0,0.0,0.0,0.0,0.0,0.0,0.0,0.0,0.0,0.0,0.0,0.0,0.0,0.0,0.0,0.0,0.0,0.0,0.0,0.0,0.0,0.0,0.0,0.0,0.0,0.0,0.0,0.0,0.0,0.0,0.0,0.0,0.0,0.0,0.0,0.0,0.0,0.0,0.0,0.0,0.0,0.0,0.0,0.0,0.0,0.0,0.0,0.0,0.0,0.0,0.0,0.0,0.0,0.0,0.0,0.0,0.0,0.0,0.0,0.0,0.0,0.0,0.0,0.0,0.0,0.0,0.0,0.0,0.0,0.0,0.0,0.0,0.0,0.0,0.0,0.0,0.0,0.0,0.0,0.0,0.0,0.0,0.0,0.0,0.0,0.0,0.0,0.0,0.0,0.0,0.0,0.0,0.0,0.0,0.0,0.0,0.0,0.0,0.0,0.0,0.0,0.0,0.0,0.0,0.0,0.0,0.0,0.0,0.0,0.0,0.0,0.0,0.0,0.0,0.0,0.0,0.0,0.0,0.0,0.0,0.0,0.0,0.0,0.0,0.0,0.0,0.0,0.0,0.0,0.0,0.0,0.0,0.0,0.0,0.0,0.0,0.0,0.0,0.0,0.0,0.0,0.0,0.0,0.0,0.0,0.0,0.0,0.0,0.0,0.0,0.0,0.0,0.0,0.0,0.0,0.0,0.0,0.0,0.0,0.0,0.0,0.0,0.0,0.0,0.0,0.0,0.0,0.0,0.0,0.0,0.0,0.0,0.0,0.0,0.0,0.0,0.0,0.0,0.0,0.0,0.0,0.0,0.0,0.0,0.0,0.0,0.0,0.0,0.0,0.0,0.0,0.0,0.0,0.0,0.0,0.0,0.0,0.0,0.0,0.0,0.0,0.0,0.0,0.0,0.0,0.0,0.0,0.0,0.0,0.0,0.0,0.0,0.0,0.0,0.0,0.0,0.0,0.0,0.0,0.0,0.0,0.0,0.0,0.0,0.0,0.0,0.0,0.0,0.0,0.0,0.0,0.0,0.0,0.0,0.0,0.0,0.0,0.0,0.0,0.0,0.0,0.0,0.0,0.0,0.0,0.0,0.0,0.0,0.0,0.0,0.0,0.0,0.0,0.0,0.0,0.0,0.0,0.0,0.0,0.0,0.0,0.0,0.0,0.0,0.0,0.0,0.0,0.0,0.0,0.0,0.0,0.0,0.0,0.0,0.0,0.0,0.0,0.0,0.0,0.0,0.0,0.0,0.0,0.0,0.0,0.0,0.0,0.0,0.0,0.0,0.0,0.0,0.0,0.0,0.0,0.0,0.0,0.0,0.0,0.0,0.0,0.0,0.0,0.0,0.0,0.0,0.0,0.0,0.0,0.0,0.0,0.0,0.0,0.0,0.0,0.0,0.0,0.0,0.0,0.0,0.0,0.0,0.0,0.0,0.0,0.0,0.0,0.0,0.0,0.0,0.0,0.0,0.0,0.0,0.0,0.0,0.0,0.0,0.0,0.0,0.0,0.0,0.0,0.0,0.0,0.0,0.0,0.0,0.0,0.0,0.0,0.0,0.0,0.0,0.0,0.0,0.0,0.0,0.0,0.0,0.0,0.0,0.0,0.0,0.0,0.0,0.0,0.0,0.0,0.0,0.0,0.0,0.0,0.0,0.0,0.0,0.0,0.0,0.0,0.0,0.0,0.0,0.0,0.0,0.0,0.0,0.0,0.0,0.0,0.0,0.0,0.0,0.0,0.0,0.0,0.0,0.0,0.0,0.0,0.0,0.0,0.0,0.0,0.0,0.0,0.0,0.0,0.0,0.0,0.0,0.0,0.0,0.0,0.0,0.0,0.0,0.0,0.0,0.0,0.0,0.0,0.0,0.0,0.0,0.0,0.0,0.0,0.0,0.0,0.0,0.0,0.0,0.0,0.0,0.0,0.0,0.0,0.0,0.0,0.0,0.0,0.0,0.0,0.0,0.0,0.0,0.0,0.0,0.0,0.0,0.0,0.0,-3.1769,0.0,0.0,0.0,0.0,0.0,0.0,0.0,0.0,0.0,0.0,0.0,0.0,0.0,0.0,0.0,0.0,0.0,0.0,0.0,0.0,0.0,0.0,0.0,0.0,0.0,0.0,0.0,0.0,0.0,0.0,0.0,0.0,0.0,0.0,0.0,0.0,0.0,0.0,0.0,0.0,0.0,0.0,0.0,0.0,0.0,0.0,0.0,0.0,0.0,0.0,0.0,0.0,0.0,0.0,0.0,0.0,0.0,0.0,0.0,0.0,0.0,0.0,0.0,0.0,0.0,0.0,0.0,0.0,0.0,0.0,0.0,0.0,0.0,0.0,0.0,0.0,0.0,0.0,0.0,0.0,0.0,0.0,0.0,0.0,0.0,0.0,0.0,0.0,0.0,0.0,0.0,0.0,0.0,0.0,0.0,0.0,0.0,0.0,0.0,0.0,0.0,0.0,0.0,0.0,0.0,0.0,0.0,0.0,0.0,0.0,-3.597,-3.5273,-3.4157,-3.3074,-3.2102,0.0,0.0,0.0,0.0,0.0,0.0,0.0,0.0,0.0,0.0,0.0,0.0,0.0,0.0,0.0,0.0,0.0,0.0,0.0,0.0,0.0,0.0,0.0,0.0,0.0,0.0,0.0,0.0,0.0,0.0,0.0,0.0,0.0,0.0,0.0,0.0,0.0,0.0,0.0,0.0,0.0,0.0,0.0,0.0,0.0,0.0,0.0,0.0,0.0,0.0,0.0,0.0,0.0,0.0,0.0,0.0,0.0,0.0,0.0,0.0,0.0,0.0,0.0,0.0,0.0,0.0,0.0,0.0,0.0,0.0,0.0,0.0,0.0,0.0,0.0,0.0,0.0,0.0,0.0,0.0,0.0,0.0,0.0,0.0,0.0,0.0,0.0,0.0,0.0,0.0,0.0,0.0,0.0,0.0,0.0,0.0,0.0,0.0,0.0,0.0,0.0,0.0,0.0,0.0,0.0,0.0,0.0,0.0,0.0,0.0,0.0,0.0,-3.4584,-3.3349,-3.2327,0.0,0.0,0.0,0.0,0.0,0.0,0.0,0.0,0.0,0.0,0.0,0.0,0.0,0.0,0.0,0.0,0.0,0.0,0.0,0.0,0.0,0.0,0.0,0.0,0.0,0.0,0.0,0.0,0.0,0.0,0.0,0.0,0.0,0.0,0.0,0.0,0.0,0.0,0.0,0.0,0.0,0.0,0.0,0.0,0.0,0.0,0.0,0.0,0.0,0.0,0.0,0.0,0.0,0.0,0.0,0.0,0.0,0.0,0.0,0.0,0.0,0.0,0.0,0.0,0.0,0.0,0.0,0.0,0.0,0.0,0.0,0.0,0.0,0.0,0.0,0.0,0.0,0.0,0.0,0.0,0.0,0.0,0.0,0.0,0.0,0.0,0.0,0.0,0.0,0.0,0.0,0.0,0.0,0.0,0.0,0.0,0.0,0.0,0.0,0.0,0.0,0.0,0.0,0.0,0.0,0.0,0.0,0.0,0.0,0.0,-3.6674,-3.5932,-3.5386,0.0,-3.2452,0.0,0.0,0.0,0.0,0.0,0.0,0.0,0.0,0.0,0.0,0.0,0.0,0.0,0.0,0.0,0.0,0.0,0.0,0.0,0.0,0.0,0.0,0.0,0.0,0.0,0.0,0.0,0.0,0.0,0.0,0.0,0.0,0.0,0.0,0.0,0.0,0.0,0.0,0.0,0.0,0.0,0.0,0.0,0.0,0.0,0.0,0.0,0.0,0.0,0.0,0.0,0.0,0.0,0.0,0.0,0.0,0.0,0.0,0.0,0.0,0.0,0.0,0.0,0.0,0.0,0.0,0.0,0.0,0.0,0.0,0.0,0.0,0.0,0.0,0.0,0.0,0.0,0.0,0.0,0.0,0.0,0.0,0.0,0.0,0.0,0.0,0.0,0.0,0.0,0.0,0.0,0.0,0.0,0.0,0.0,0.0,0.0,0.0,0.0,0.0,0.0,0.0,0.0,0.0,0.0,0.0,0.0,0.0,0.0,0.0,-3.6222,-3.6195,-3.5294,-3.4235,0.0,0.0,0.0,0.0,0.0,0.0,0.0,0.0,0.0,0.0,0.0,0.0,0.0,0.0,0.0,0.0,0.0,0.0,0.0,0.0,0.0,0.0,0.0,0.0,0.0,0.0,0.0,0.0,0.0,0.0,0.0,0.0,0.0,0.0,0.0,0.0,0.0,0.0,0.0,0.0,0.0,0.0,0.0,0.0,0.0,0.0,0.0,0.0,0.0,0.0,0.0,0.0,0.0,0.0,0.0,0.0,0.0,0.0,0.0,0.0,0.0,0.0,0.0,0.0,0.0,0.0,0.0,0.0,0.0,0.0,0.0,0.0,0.0,0.0,0.0,0.0,0.0,0.0,0.0,0.0,0.0,0.0,0.0,0.0,0.0,0.0,0.0,0.0,0.0,0.0,0.0,0.0,0.0,0.0,0.0,0.0,0.0,0.0,0.0,0.0,0.0,0.0,0.0,0.0,0.0,0.0,0.0,0.0,0.0,0.0,-3.6075,-3.5805,-3.6105,-3.5283,-3.437,-3.3423,0.0,0.0,0.0,0.0,0.0,0.0,0.0,0.0,0.0,0.0,0.0,0.0,0.0,0.0,0.0,0.0,0.0,0.0,0.0,0.0,0.0,0.0,0.0,0.0,0.0,0.0,0.0,0.0,0.0,0.0,0.0,0.0,0.0,0.0,0.0,0.0,0.0,0.0,0.0,0.0,0.0,0.0,0.0,0.0,0.0,0.0,0.0,0.0,0.0,0.0,0.0,0.0,0.0,0.0,0.0,0.0,0.0,0.0,0.0,0.0,0.0,0.0,0.0,0.0,0.0,0.0,0.0,0.0,0.0,0.0,0.0,0.0,0.0,0.0,0.0,0.0,0.0,0.0,0.0,0.0,0.0,0.0,0.0,0.0,0.0,0.0,0.0,0.0,0.0,0.0,0.0,0.0,0.0,0.0,0.0,0.0,0.0,0.0,0.0,0.0,0.0,0.0,0.0,0.0,0.0,0.0,0.0,0.0,-3.6416,-3.5876,-3.5622,-3.5627,-3.5588,-3.4873,0.0,0.0,0.0,0.0,0.0,0.0,0.0,0.0,0.0,0.0,0.0,0.0,0.0,0.0,0.0,0.0,0.0,0.0,0.0,0.0,0.0,0.0,0.0,0.0,0.0,0.0,0.0,0.0,0.0,0.0,0.0,0.0,0.0,0.0,0.0,0.0,0.0,0.0,0.0,0.0,0.0,0.0,0.0,0.0,0.0,0.0,0.0,0.0,0.0,0.0,0.0,0.0,0.0,0.0,0.0,0.0,0.0,0.0,0.0,0.0,0.0,0.0,0.0,0.0,0.0,0.0,0.0,0.0,0.0,0.0,0.0,0.0,0.0,0.0,0.0,0.0,0.0,0.0,0.0,0.0,0.0,0.0,0.0,0.0,0.0,0.0,0.0,0.0,0.0,0.0,0.0,0.0,0.0,0.0,0.0,0.0,0.0,0.0,0.0,0.0,0.0,0.0,0.0,0.0,0.0,0.0,0.0,0.0,0.0,-3.5876,-3.5694,-3.5616,-3.5616,-3.5616,-3.489,0.0,0.0,0.0,0.0,0.0,0.0,0.0,0.0,0.0,0.0,0.0,0.0,0.0,0.0,0.0,0.0,0.0,0.0,0.0,0.0,0.0,0.0,0.0,0.0,0.0,0.0,0.0,0.0,0.0,0.0,0.0,0.0,0.0,0.0,0.0,0.0,0.0,0.0,0.0,0.0,0.0,0.0,0.0,0.0,0.0,0.0,0.0,0.0,0.0,0.0,0.0,0.0,0.0,0.0,0.0,0.0,0.0,0.0,0.0,0.0,0.0,0.0,0.0,0.0,0.0,0.0,0.0,0.0,0.0,0.0,0.0,0.0,0.0,0.0,0.0,0.0,0.0,0.0,0.0,0.0,0.0,0.0,0.0,0.0,0.0,0.0,0.0,0.0,0.0,0.0,0.0,0.0,0.0,0.0,0.0,0.0,0.0,0.0,0.0,0.0,0.0,0.0,0.0,0.0,0.0,0.0,0.0,0.0,0.0,-3.5977,0.0,-3.5994,-3.5977,-3.6011,-3.5182,0.0,0.0,0.0,0.0,0.0,0.0,0.0,0.0,0.0,0.0,0.0,0.0,0.0,0.0,0.0,0.0,0.0,0.0,0.0,0.0,0.0,0.0,0.0,0.0,0.0,0.0,0.0,0.0,0.0,0.0,0.0,0.0,0.0,0.0,0.0,0.0,0.0,0.0,0.0,0.0,0.0,0.0,0.0,0.0,0.0,0.0,0.0,0.0,0.0,0.0,0.0,0.0,0.0,0.0,0.0,0.0,0.0,0.0,0.0,0.0,0.0,0.0,0.0,0.0,0.0,0.0,0.0,0.0,0.0,0.0,0.0,0.0,0.0,0.0,0.0,0.0,0.0,0.0,0.0,0.0,0.0,0.0,0.0,0.0,0.0,0.0,0.0,0.0,0.0,0.0,0.0,0.0,0.0,0.0,0.0,0.0,0.0,0.0,0.0,0.0,0.0,0.0,0.0,0.0,0.0,0.0,0.0,0.0,-3.6028,-3.6761,-3.6795,-3.6812,-3.6795,-3.6778,-3.5729,0.0,0.0,0.0,0.0,0.0,0.0,0.0,0.0,0.0,0.0,0.0,0.0,0.0,0.0,0.0,0.0,0.0,0.0,0.0,0.0,0.0,0.0,0.0,0.0,0.0,0.0,0.0,0.0,0.0,0.0,0.0,0.0,0.0,0.0,0.0,0.0,0.0,0.0,0.0,0.0,0.0,0.0,0.0,0.0,0.0,0.0,0.0,0.0,0.0,0.0,0.0,0.0,0.0,0.0,0.0,0.0,0.0,0.0,0.0,0.0,0.0,0.0,0.0,0.0,0.0,0.0,0.0,0.0,0.0,0.0,0.0,0.0,0.0,0.0,0.0,0.0,0.0,0.0,0.0,0.0,0.0,0.0,0.0,0.0,0.0,0.0,0.0,0.0,0.0,0.0,0.0,0.0,0.0,0.0,0.0,0.0,0.0,0.0,0.0,0.0,0.0,0.0,0.0,0.0,0.0,0.0,0.0,0.0,0.0,-3.6812,-3.728,-3.7567,-3.7533,-3.7066,-3.596,0.0,0.0,0.0,0.0,0.0,0.0,0.0,0.0,0.0,0.0,0.0,0.0,0.0,0.0,0.0,0.0,0.0,0.0,0.0,0.0,0.0,0.0,0.0,0.0,0.0,0.0,0.0,0.0,0.0,0.0,0.0,0.0,0.0,0.0,0.0,0.0,0.0,0.0,0.0,0.0,0.0,0.0,0.0,0.0,0.0,0.0,0.0,0.0,0.0,0.0,0.0,0.0,0.0,0.0,0.0,0.0,0.0,0.0,0.0,0.0,0.0,0.0,0.0,0.0,0.0,0.0,0.0,0.0,0.0,0.0,0.0,0.0,0.0,0.0,0.0,0.0,0.0,0.0,0.0,0.0,0.0,0.0,0.0,0.0,0.0,0.0,0.0,0.0,0.0,0.0,0.0,0.0,0.0,0.0,0.0,0.0,0.0,0.0,0.0,0.0,0.0,0.0,0.0,0.0,0.0,0.0,0.0,0.0,0.0,-3.9225,-3.9174,-3.9123,-3.9123,-3.8142,-3.6755,-3.4979,0.0,0.0,0.0,0.0,0.0,0.0,0.0,0.0,0.0,0.0,0.0,0.0,0.0,0.0,0.0,0.0,0.0,0.0,0.0,0.0,0.0,0.0,0.0,0.0,0.0,0.0,0.0,0.0,0.0,0.0,0.0,0.0,0.0,0.0,0.0,0.0,0.0,0.0,0.0,0.0,0.0,0.0,0.0,0.0,0.0,0.0,0.0,0.0,0.0,0.0,0.0,0.0,0.0,0.0,0.0,0.0,0.0,0.0,0.0,0.0,0.0,0.0,0.0,0.0,0.0,0.0,0.0,0.0,0.0,0.0,0.0,0.0,0.0,0.0,0.0,0.0,0.0,0.0,0.0,0.0,0.0,0.0,0.0,0.0,0.0,0.0,0.0,0.0,0.0,0.0,0.0,0.0,0.0,0.0,0.0,0.0,0.0,0.0,0.0,0.0,0.0,0.0,0.0,0.0,0.0,0.0,0.0,0.0,-4.3544,-4.232,-4.161,-4.1441,-3.9935,-3.8058,0.0,0.0,0.0,0.0,0.0,0.0,0.0,0.0,0.0,0.0,0.0,0.0,0.0,0.0,0.0,0.0,0.0,0.0,0.0,0.0,0.0,0.0,0.0,0.0,0.0,0.0,0.0,0.0,0.0,0.0,0.0,0.0,0.0,0.0,0.0,0.0,0.0,0.0,0.0,0.0,0.0,0.0,0.0,0.0,0.0,0.0,0.0,0.0,0.0,0.0,0.0,0.0,0.0,0.0,0.0,0.0,0.0,0.0,0.0,0.0,0.0,0.0,0.0,0.0,0.0,0.0,0.0,0.0,0.0,0.0,0.0,0.0,0.0,0.0,0.0,0.0,0.0,0.0,0.0,0.0,0.0,0.0,0.0,0.0,0.0,0.0,0.0,0.0,0.0,0.0,0.0,0.0,0.0,0.0,0.0,0.0,0.0,0.0,0.0,0.0,0.0,0.0,0.0,0.0,0.0,0.0,0.0,0.0,0.0,-4.5754,-4.6583,-4.6194,-4.4553,-4.1999,-3.958,0.0,0.0,0.0,0.0,0.0,0.0,0.0,0.0,0.0,0.0,0.0,0.0,0.0,0.0,0.0,0.0,0.0,0.0,0.0,0.0,0.0,0.0,0.0,0.0,0.0,0.0,0.0,0.0,0.0,0.0,0.0,0.0,0.0,0.0,0.0,0.0,0.0,0.0,0.0,0.0,0.0,0.0,0.0,0.0,0.0,0.0,0.0,0.0,0.0,0.0,0.0,0.0,0.0,0.0,0.0,0.0,0.0,0.0,0.0,0.0,0.0,0.0,0.0,0.0,0.0,0.0,0.0,0.0,0.0,0.0,0.0,0.0,0.0,0.0,0.0,0.0,0.0,0.0,0.0,0.0,0.0,0.0,0.0,0.0,0.0,0.0,0.0,0.0,0.0,0.0,0.0,0.0,0.0,0.0,0.0,0.0,0.0,0.0,0.0,0.0,0.0,0.0,0.0,0.0,0.0,0.0,0.0,0.0,-4.3944,-4.7631,-4.8866,-4.9001,-4.8037,-4.4519,-4.1441,0.0,0.0,0.0,0.0,0.0,0.0,0.0,0.0,0.0,0.0,0.0,0.0,0.0,0.0,0.0,0.0,0.0,0.0,0.0,0.0,0.0,0.0,0.0,0.0,0.0,0.0,0.0,0.0,0.0,0.0,0.0,0.0,0.0,0.0,0.0,0.0,0.0,0.0,0.0,0.0,0.0,0.0,0.0,0.0,0.0,0.0,0.0,0.0,0.0,0.0,0.0,0.0,0.0,0.0,0.0,0.0,0.0,0.0,0.0,0.0,0.0,0.0,0.0,0.0,0.0,0.0,0.0,0.0,0.0,0.0,0.0,0.0,0.0,0.0,0.0,0.0,0.0,0.0,0.0,0.0,0.0,0.0,0.0,0.0,0.0,0.0,0.0,0.0,0.0,0.0,0.0,0.0,0.0,0.0,0.0,0.0,0.0,0.0,0.0,0.0,0.0,0.0,0.0,0.0,0.0,0.0,0.0,0.0,-4.5229,-4.8917,-4.9779,-5.0557,-5.1134,-4.7022,-4.3301,0.0,0.0,0.0,0.0,0.0,0.0,0.0,0.0,0.0,0.0,0.0,0.0,0.0,0.0,0.0,0.0,0.0,0.0,0.0,0.0,0.0,0.0,0.0,0.0,0.0,0.0,0.0,0.0,0.0,0.0,0.0,0.0,0.0,0.0,0.0,0.0,0.0,0.0,0.0,0.0,0.0,0.0,0.0,0.0,0.0,0.0,0.0,0.0,0.0,0.0,0.0,0.0,0.0,0.0,0.0,0.0,0.0,0.0,0.0,0.0,0.0,0.0,0.0,0.0,0.0,0.0,0.0,0.0,0.0,0.0,0.0,0.0,0.0,0.0,0.0,0.0,0.0,0.0,0.0,0.0,0.0,0.0,0.0,0.0,0.0,0.0,0.0,0.0,0.0,0.0,0.0,0.0,0.0,0.0,0.0,0.0,0.0,0.0,0.0,0.0,0.0,0.0,0.0,0.0,0.0,0.0,0.0,0.0,-4.5201,-4.8917,-5.0287,-5.1336,-5.2029,-4.7767,-4.4045,0.0,0.0,0.0,0.0,0.0,0.0,0.0,0.0,0.0,0.0,0.0,0.0,0.0,0.0,0.0,0.0,0.0,0.0,0.0,0.0,0.0,0.0,0.0,0.0,0.0,0.0,0.0,0.0,0.0,0.0,0.0,0.0,0.0,0.0,0.0,0.0,0.0,0.0,0.0,0.0,0.0,0.0,0.0,0.0,0.0,0.0,0.0,0.0,-3.0429,0.0,0.0,0.0,0.0,0.0,0.0,0.0,0.0,0.0,0.0,0.0,0.0,0.0,0.0,0.0,0.0,0.0,0.0,0.0,0.0,0.0,0.0,0.0,0.0,0.0,0.0,0.0,0.0,0.0,0.0,0.0,0.0,0.0,0.0,0.0,0.0,0.0,0.0,0.0,0.0,0.0,0.0,0.0,0.0,0.0,0.0,0.0,0.0,0.0,0.0,0.0,0.0,0.0,0.0,0.0,0.0,0.0,0.0,0.0,-4.5602,-4.89,-5.0101,-5.0879,-5.1116,-4.7648,-4.4451,0.0,0.0,0.0,0.0,0.0,0.0,0.0,0.0,0.0,0.0,0.0,0.0,0.0,0.0,0.0,0.0,0.0,0.0,0.0,0.0,0.0,0.0,0.0,0.0,0.0,0.0,0.0,0.0,0.0,0.0,0.0,0.0,0.0,0.0,0.0,0.0,0.0,0.0,0.0,0.0,0.0,0.0,0.0,0.0,0.0,0.0,0.0,0.0,0.0,0.0,0.0,0.0,0.0,0.0,0.0,0.0,0.0,0.0,0.0,0.0,0.0,0.0,0.0,0.0,0.0,0.0,0.0,0.0,0.0,0.0,0.0,0.0,0.0,0.0,0.0,0.0,0.0,0.0,0.0,0.0,0.0,0.0,0.0,0.0,0.0,0.0,0.0,0.0,0.0,0.0,0.0,0.0,0.0,0.0,0.0,0.0,0.0,0.0,0.0,0.0,0.0,0.0,0.0,0.0,0.0,0.0,0.0,-4.3447,-4.6024,-4.8866,-4.961,-4.9932,-4.9881,-4.7073,-4.4468,-4.2168,0.0,0.0,0.0,0.0,0.0,0.0,0.0,0.0,0.0,0.0,0.0,0.0,0.0,0.0,0.0,0.0,0.0,0.0,0.0,0.0,0.0,0.0,0.0,0.0,0.0,0.0,0.0,0.0,0.0,0.0,0.0,0.0,0.0,0.0,0.0,0.0,0.0,0.0,-3.1427,-3.2628,0.0,0.0,0.0,0.0,0.0,0.0,0.0,0.0,-3.0784,0.0,0.0,0.0,0.0,0.0,0.0,0.0,0.0,0.0,0.0,0.0,0.0,0.0,0.0,0.0,0.0,0.0,0.0,0.0,0.0,0.0,0.0,0.0,0.0,0.0,0.0,0.0,0.0,0.0,0.0,0.0,0.0,0.0,0.0,0.0,0.0,0.0,0.0,0.0,0.0,0.0,0.0,0.0,0.0,0.0,0.0,0.0,0.0,0.0,0.0,0.0,0.0,0.0,0.0,0.0,0.0,-4.117,-4.3436,-4.6024,-4.8917,-4.912,-4.9187,-4.9103,-4.6312,-4.369,-4.139,0.0,0.0,0.0,0.0,0.0,0.0,0.0,0.0,0.0,0.0,0.0,0.0,0.0,0.0,0.0,0.0,0.0,0.0,0.0,0.0,0.0,0.0,0.0,0.0,0.0,0.0,0.0,0.0,0.0,0.0,0.0,0.0,0.0,0.0,0.0,0.0,0.0,0.0,0.0,-3.3254,-3.3334,0.0,0.0,0.0,0.0,0.0,0.0,0.0,0.0,-3.136,0.0,0.0,0.0,0.0,0.0,0.0,0.0,0.0,0.0,0.0,0.0,0.0,0.0,0.0,0.0,0.0,0.0,0.0,0.0,0.0,0.0,0.0,0.0,0.0,0.0,0.0,0.0,0.0,0.0,0.0,0.0,0.0,0.0,0.0,0.0,0.0,0.0,0.0,0.0,0.0,0.0,0.0,0.0,0.0,0.0,0.0,0.0,0.0,0.0,0.0,0.0,0.0,0.0,0.0,0.0,-4.1153,-4.3464,-4.5838,-4.8342,-4.8798,-4.8832,-4.8392,-4.5551,-4.3098,0.0,0.0,0.0,0.0,0.0,0.0,0.0,0.0,0.0,0.0,0.0,0.0,0.0,0.0,0.0,0.0,0.0,0.0,0.0,0.0,0.0,0.0,0.0,0.0,0.0,0.0,0.0,0.0,0.0,0.0,0.0,0.0,0.0,0.0,0.0,0.0,0.0,0.0,0.0,0.0,-3.4317,-3.4682,-3.3388,0.0,0.0,0.0,0.0,0.0,0.0,-3.2087,-3.2459,0.0,0.0,0.0,0.0,0.0,0.0,0.0,0.0,0.0,0.0,0.0,0.0,0.0,0.0,0.0,0.0,0.0,0.0,0.0,0.0,0.0,0.0,0.0,0.0,0.0,0.0,0.0,0.0,0.0,0.0,0.0,0.0,0.0,0.0,0.0,0.0,0.0,0.0,0.0,0.0,0.0,0.0,0.0,0.0,0.0,0.0,0.0,0.0,0.0,0.0,0.0,0.0,0.0,0.0,0.0,-4.1136,-4.3132,-4.5309,-4.7581,-4.8257,-4.8139,-4.7225,-4.4604,-4.2422,0.0,0.0,0.0,0.0,0.0,0.0,0.0,0.0,0.0,0.0,0.0,0.0,0.0,0.0,0.0,0.0,0.0,0.0,0.0,0.0,0.0,0.0,0.0,0.0,0.0,0.0,0.0,0.0,0.0,0.0,0.0,0.0,0.0,0.0,0.0,0.0,0.0,0.0,0.0,0.0,0.0,-3.6144,-3.4024,-3.4858,0.0,0.0,0.0,0.0,-3.3038,-3.3711,0.0,0.0,0.0,0.0,0.0,0.0,0.0,0.0,0.0,0.0,0.0,0.0,0.0,0.0,0.0,0.0,0.0,0.0,0.0,0.0,0.0,0.0,0.0,0.0,0.0,0.0,0.0,0.0,0.0,0.0,0.0,0.0,0.0,0.0,0.0,0.0,0.0,0.0,0.0,0.0,0.0,0.0,0.0,0.0,0.0,0.0,0.0,0.0,0.0,0.0,0.0,0.0,0.0,0.0,0.0,0.0,-4.1052,-4.21,-4.3961,-4.6752,-4.7005,-4.6397,-4.5021,-4.3301,-4.1424,0.0,0.0,0.0,0.0,0.0,0.0,0.0,0.0,0.0,0.0,0.0,0.0,0.0,0.0,0.0,0.0,0.0,0.0,0.0,0.0,0.0,0.0,0.0,0.0,0.0,0.0,0.0,0.0,0.0,0.0,0.0,0.0,0.0,0.0,0.0,0.0,0.0,0.0,0.0,0.0,0.0,-3.7015,-3.6135,-3.6145,-3.5904,0.0,0.0,-3.4573,-3.5109,-3.6434,0.0,0.0,0.0,0.0,0.0,0.0,0.0,0.0,0.0,0.0,0.0,0.0,0.0,0.0,0.0,0.0,0.0,0.0,0.0,0.0,0.0,0.0,0.0,0.0,0.0,0.0,0.0,0.0,0.0,0.0,0.0,0.0,0.0,0.0,0.0,0.0,0.0,0.0,0.0,0.0,0.0,0.0,0.0,0.0,0.0,0.0,0.0,0.0,0.0,0.0,0.0,0.0,0.0,0.0,0.0,-3.6282,-3.9851,-4.1334,-4.306,-4.5173,-4.5513,-4.4968,-4.3478,-4.1755,-3.9985,0.0,0.0,0.0,0.0,0.0,0.0,0.0,0.0,0.0,0.0,0.0,0.0,0.0,0.0,0.0,0.0,0.0,0.0,0.0,0.0,0.0,0.0,0.0,0.0,0.0,0.0,0.0,0.0,0.0,0.0,0.0,0.0,0.0,0.0,0.0,0.0,0.0,0.0,0.0,0.0,0.0,0.0,-3.6506,-3.7368,0.0,0.0,0.0,-3.7009,-3.6941,0.0,0.0,0.0,0.0,0.0,0.0,0.0,0.0,0.0,0.0,0.0,0.0,0.0,0.0,0.0,0.0,0.0,0.0,0.0,0.0,0.0,0.0,0.0,0.0,0.0,0.0,0.0,0.0,0.0,0.0,0.0,0.0,0.0,0.0,0.0,0.0,0.0,0.0,0.0,0.0,0.0,0.0,0.0,0.0,0.0,0.0,0.0,0.0,0.0,0.0,0.0,0.0,0.0,0.0,0.0,0.0,0.0,-3.8569,-4.0122,-4.1643,-4.3113,-4.3689,-4.3285,-4.1808,-4.008,0.0,0.0,0.0,0.0,0.0,0.0,0.0,0.0,0.0,0.0,0.0,0.0,0.0,0.0,0.0,0.0,0.0,0.0,0.0,0.0,0.0,0.0,0.0,0.0,0.0,0.0,0.0,-2.6453,0.0,0.0,0.0,0.0,0.0,0.0,0.0,0.0,0.0,0.0,0.0,0.0,0.0,0.0,-3.7969,-3.6713,-3.8055,-3.8609,0.0,0.0,-3.8479,-3.787,-3.7689,-3.7364,0.0,0.0,0.0,0.0,0.0,0.0,0.0,0.0,0.0,0.0,0.0,0.0,0.0,0.0,0.0,0.0,0.0,0.0,0.0,0.0,0.0,0.0,0.0,0.0,0.0,0.0,0.0,0.0,0.0,0.0,0.0,0.0,0.0,0.0,0.0,0.0,0.0,0.0,0.0,0.0,0.0,0.0,0.0,0.0,0.0,0.0,0.0,0.0,0.0,0.0,0.0,0.0,0.0,0.0,-3.4588,-3.7492,-3.8143,-3.9176,-4.0613,-4.1332,-4.1017,-3.9584,-3.8317,-3.6679,0.0,0.0,0.0,0.0,0.0,0.0,0.0,0.0,0.0,0.0,0.0,0.0,0.0,0.0,0.0,0.0,0.0,0.0,0.0,0.0,0.0,0.0,0.0,0.0,0.0,0.0,0.0,0.0,0.0,0.0,0.0,0.0,0.0,0.0,0.0,0.0,0.0,0.0,0.0,0.0,0.0,-3.792,-3.7313,-3.7732,-3.8044,0.0,-3.7883,-3.7779,-3.7485,-3.8798,-3.8913,-3.614,0.0,0.0,0.0,0.0,0.0,0.0,0.0,0.0,0.0,0.0,0.0,0.0,0.0,0.0,0.0,0.0,0.0,0.0,0.0,0.0,0.0,0.0,0.0,0.0,0.0,0.0,0.0,0.0,0.0,0.0,0.0,0.0,0.0,0.0,0.0,0.0,0.0,0.0,0.0,0.0,0.0,0.0,0.0,0.0,0.0,0.0,0.0,0.0,0.0,0.0,0.0,0.0,0.0,-3.3877,-3.6329,-3.6799,-3.7725,-3.9095,-3.9269,-3.8859,-3.7838,-3.675,-3.5342,0.0,0.0,0.0,0.0,0.0,0.0,0.0,0.0,0.0,0.0,0.0,0.0,0.0,0.0,0.0,0.0,0.0,0.0,0.0,0.0,0.0,0.0,0.0,0.0,0.0,0.0,0.0,0.0,-2.4869,-2.4793,-2.5726,0.0,0.0,0.0,0.0,0.0,0.0,0.0,0.0,0.0,0.0,-3.6888,-3.6545,-3.7154,0.0,0.0,-3.7292,-3.7518,-3.7111,-3.7468,-3.7485,-3.6495,-3.5267,0.0,0.0,0.0,0.0,0.0,0.0,0.0,0.0,0.0,0.0,0.0,0.0,0.0,0.0,0.0,0.0,0.0,0.0,0.0,0.0,0.0,0.0,0.0,0.0,0.0,0.0,0.0,0.0,0.0,0.0,0.0,0.0,0.0,0.0,0.0,0.0,0.0,0.0,0.0,0.0,0.0,0.0,0.0,0.0,0.0,0.0,0.0,0.0,0.0,0.0,0.0,0.0,-3.2999,-3.4919,-3.5537,-3.6355,-3.7345,-3.7574,-3.7233,-3.6313,-3.5419,-3.4159,0.0,0.0,0.0,0.0,0.0,0.0,0.0,0.0,0.0,0.0,0.0,0.0,0.0,0.0,0.0,0.0,0.0,0.0,0.0,0.0,0.0,0.0,0.0,0.0,0.0,0.0,0.0,0.0,-2.4552,-2.4715,-2.6046,0.0,0.0,0.0,0.0,0.0,0.0,0.0,0.0,0.0,0.0,-3.5668,-3.5577,-3.6061,-3.6292,-3.5836,-3.6121,-3.6373,-3.6342,-3.5917,-3.5553,-3.5545,0.0,0.0,0.0,0.0,0.0,0.0,0.0,0.0,0.0,0.0,0.0,0.0,0.0,0.0,0.0,0.0,0.0,0.0,0.0,0.0,0.0,0.0,0.0,0.0,0.0,0.0,0.0,-3.5616,0.0,0.0,-3.5616,0.0,0.0,0.0,0.0,0.0,0.0,0.0,0.0,0.0,0.0,0.0,0.0,0.0,0.0,0.0,0.0,0.0,0.0,0.0,0.0,0.0,0.0,-3.1855,-3.3245,-3.4351,-3.4956,-3.5034,-3.6235,-3.6252,-3.5005,-3.4472,-3.2979,-3.0359,0.0,0.0,0.0,0.0,0.0,0.0,0.0,0.0,0.0,0.0,0.0,0.0,0.0,0.0,0.0,0.0,0.0,0.0,0.0,0.0,0.0,0.0,0.0,0.0,0.0,0.0,-2.3878,-2.4513,-2.5561,0.0,0.0,0.0,0.0,0.0,0.0,0.0,0.0,0.0,0.0,-3.3153,-3.4388,-3.4503,-3.4398,-3.4527,-3.5064,-3.4287,-3.4011,-3.5177,-3.4425,-3.345,0.0,0.0,0.0,0.0,0.0,0.0,0.0,0.0,0.0,0.0,0.0,0.0,0.0,0.0,0.0,0.0,0.0,0.0,0.0,0.0,0.0,0.0,0.0,0.0,0.0,0.0,0.0,-3.5389,-3.5406,0.0,0.0,0.0,0.0,0.0,0.0,0.0,0.0,0.0,0.0,0.0,-3.3687,-3.4535,0.0,0.0,0.0,0.0,0.0,0.0,0.0,0.0,0.0,0.0,0.0,0.0,-3.1766,-3.2686,-3.3117,-3.3514,-3.3955,-3.441,-3.4425,-3.397,-3.3381,-3.1843,-2.9233,0.0,0.0,0.0,0.0,0.0,0.0,0.0,0.0,0.0,0.0,0.0,0.0,0.0,0.0,0.0,0.0,0.0,0.0,0.0,0.0,0.0,0.0,0.0,0.0,0.0,-2.5335,0.0,0.0,0.0,0.0,0.0,0.0,0.0,0.0,0.0,0.0,0.0,-2.9894,-3.0717,-3.2144,-3.3093,-3.2977,-3.3392,-3.3607,0.0,0.0,0.0,0.0,0.0,0.0,0.0,0.0,0.0,0.0,0.0,0.0,0.0,0.0,-3.3111,-3.172,-3.09,-3.0234,-2.9772,0.0,0.0,0.0,0.0,0.0,0.0,0.0,0.0,0.0,0.0,0.0,0.0,0.0,0.0,-3.4752,0.0,-3.4585,0.0,0.0,0.0,0.0,0.0,0.0,0.0,0.0,-3.4682,-3.4402,-3.3567,-3.4456,-3.4392,0.0,-3.2791,-3.2148,0.0,0.0,0.0,0.0,0.0,0.0,0.0,0.0,-3.1422,-3.2138,-3.2617,-3.2961,-3.317,-3.3589,-3.3619,-3.3155,-3.2273,-3.0911,-2.9011,-2.8319,-2.754,0.0,0.0,0.0,0.0,0.0,0.0,0.0,0.0,0.0,0.0,0.0,0.0,0.0,0.0,0.0,0.0,0.0,0.0,0.0,0.0,0.0,0.0,0.0,-2.5118,0.0,0.0,0.0,0.0,0.0,0.0,0.0,0.0,0.0,-2.8942,-2.8814,-2.9049,-3.0319,-3.1252,-3.185,-3.194,0.0,0.0,0.0,0.0,0.0,0.0,0.0,-3.3756,-3.3246,-3.2776,-3.2545,-3.2843,-3.3103,-3.3235,-3.3277,0.0,0.0,-3.1659,-3.0967,-3.0337,-2.9848,-3.0133,-3.0449,-3.0425,-3.06,-3.0731,0.0,0.0,0.0,0.0,0.0,0.0,0.0,0.0,-3.3129,-3.3769,0.0,-3.3278,0.0,0.0,0.0,0.0,0.0,-3.4894,0.0,0.0,-3.3843,-3.3822,-3.405,-3.4144,-3.3888,-3.3437,-3.322,-3.2567,-3.1474,-3.0083,0.0,0.0,0.0,0.0,0.0,0.0,-3.0838,-3.154,-3.2781,-3.314,-3.2542,-3.3724,-3.3815,-3.2512,-3.1212,-3.0268,-2.9621,-2.8936,-2.7979,-2.6662,-2.6572,0.0,0.0,0.0,0.0,0.0,0.0,0.0,0.0,0.0,0.0,0.0,0.0,0.0,0.0,0.0,0.0,0.0,0.0,0.0,0.0,-2.4605,0.0,0.0,0.0,0.0,0.0,0.0,0.0,0.0,0.0,0.0,-2.8584,-2.8637,-2.9086,-3.0328,0.0,0.0,0.0,0.0,-3.0821,-3.1421,-3.154,-3.1809,-3.2422,-3.2018,-3.1417,-3.0745,0.0,0.0,-3.1493,-3.2125,-3.2574,-3.2559,-3.1518,-3.0744,-3.1493,-3.1897,-3.1817,-3.0695,-3.0433,-3.0495,-3.0459,-3.019,-3.0003,-3.4659,0.0,0.0,0.0,0.0,-3.4457,-3.4446,-3.414,-3.3973,-3.4075,-3.4233,-3.2928,0.0,0.0,0.0,0.0,0.0,0.0,-3.4219,-3.3941,-3.4473,-3.4261,-3.3441,-3.4419,-3.4395,-3.3472,-3.2795,-3.2148,-3.1478,-3.0182,-2.972,-3.0109,0.0,0.0,0.0,0.0,-3.1316,-3.154,-3.2333,-3.2482,-3.1795,-3.2632,-3.2677,-3.1809,-3.1406,-3.0688,-2.9636,-2.8951,-2.7979,-2.6647,-2.6138,0.0,0.0,0.0,0.0,0.0,0.0,0.0,0.0,0.0,0.0,0.0,0.0,0.0,0.0,0.0,0.0,0.0,0.0,0.0,-2.3969,-2.4739,-2.5367,0.0,0.0,0.0,0.0,0.0,0.0,0.0,0.0,0.0,-2.9112,-2.9322,-2.9594,0.0,0.0,-3.1271,-3.1481,-3.1735,-3.1824,-3.154,-3.2303,0.0,-3.2557,-3.2742,-3.2701,-3.2017,-3.1525,-3.1297,-3.1496,-3.1688,-3.1824,-3.1809,-3.1474,-3.1282,-3.1421,-3.0901,-3.0369,-2.9959,-3.0192,-3.0467,-3.0498,-3.0709,-3.0972,-3.5507,-3.4379,-3.4619,-3.459,-3.4378,-3.4774,-3.4537,-3.3885,-3.3805,-3.3817,-3.383,-3.2435,-3.2343,-3.3191,-3.2791,0.0,0.0,0.0,-3.4005,-3.3797,-3.4657,-3.4657,-3.398,-3.4861,-3.4958,-3.4264,-3.3636,-3.3121,-3.2677,-3.1575,-3.0927,-3.0717,0.0,0.0,-3.1344,-3.1429,-3.1496,-3.1525,-3.2153,-3.2168,-3.154,-3.1899,-3.1914,-3.1511,-3.1496,-3.1122,-3.0372,-2.9475,-2.8368,-2.7061,-2.6093,-2.5495,0.0,0.0,0.0,0.0,0.0,0.0,0.0,0.0,0.0,0.0,0.0,-2.6602,-2.6602,0.0,0.0,0.0,-2.459,-2.4044,-2.364,-2.4582,0.0,0.0,0.0,0.0,0.0,0.0,0.0,-2.7525,-2.7705,-2.8244,-2.9457,-3.0028,-3.0492,-3.0866,-3.1017,-3.1197,-3.1466,0.0,-3.1645,-3.1525,-3.2168,-3.2557,-3.2183,-3.2456,-3.2465,-3.1836,-3.1615,-3.1286,-3.0836,-3.0928,-3.1002,-3.0793,-3.0733,-3.0733,-3.0761,-3.0103,-2.9816,-3.0253,-3.0642,-3.0868,-3.0911,-3.1227,-3.1496,-3.6881,-3.5874,-3.6408,-3.5862,-3.4715,-3.5305,-3.4546,-3.2886,-3.3182,-3.3381,-3.3478,-3.1977,-3.1916,-3.2959,-3.3096,0.0,-3.3097,-3.3725,-3.3923,-3.3856,-3.4582,-3.4987,-3.514,-3.5398,-3.5489,-3.5489,-3.5197,-3.4863,-3.4445,-3.3636,-3.2984,-3.2482,-3.1285,-3.1278,-3.2407,-3.1853,-3.1496,-3.1511,-3.2153,-3.2228,-3.16,-3.154,-3.1481,-3.1421,-3.1421,-3.1361,-3.1227,-3.0088,-2.8828,-2.748,-2.6213,-2.5226,-2.4575,0.0,0.0,0.0,0.0,0.0,0.0,0.0,0.0,0.0,0.0,0.0,0.0,0.0,0.0,0.0,-2.3954,0.0,-2.3595,-2.4201,0.0,0.0,0.0,-2.5944,-2.6626,-2.6632,-2.6866,-2.7525,0.0,0.0,-2.9505,-3.0597,-3.1346,-3.1346,-3.0898,-3.0806,-3.1421,-3.1002,-3.0821,-3.1421,-3.1511,-3.1511,-3.157,-3.1538,-3.1284,-3.0746,-3.0972,-3.0868,-2.9939,-3.0058,-3.0163,-2.9774,-2.9636,-2.9624,-2.9636,-2.9651,-2.9953,-3.1017,-3.1316,-3.1391,-3.1436,-3.1481,-3.1466,-3.873,-3.8422,-3.8115,-3.7088,-3.5768,-3.6105,-3.6146,-3.5973,-3.5235,-3.4692,-3.4151,-3.229,-3.1224,-3.0907,-3.2212,-3.2814,-3.2824,-3.3689,-3.4321,-3.4765,-3.4957,-3.5182,-3.5411,-3.5447,-3.5489,-3.5459,-3.4928,-3.4598,-3.4474,-3.3772,-3.3126,-3.2527,-3.2198,-3.1941,-3.1739,-3.1582,-3.1496,-3.1496,-3.2153,-3.2407,-3.2243,-3.1765,-3.1256,-3.0761,-3.0761,-3.0298,-2.934,-2.8487,-2.7465,-2.6138,-2.5277,-2.4515,-2.3872,-2.4321,0.0,0.0,0.0,0.0,0.0,0.0,0.0,0.0,0.0,-2.5815,-2.5839,0.0,-2.3834,0.0,-2.3663,-2.3595,-2.3595,-2.4201,0.0,0.0,-2.5974,-2.6641,-2.7285,-2.6911,-2.6841,-2.7525,-2.7869,-2.8274,-2.8757,-2.9549,-3.0058,-3.0058,-3.0733,-3.1316,-3.1481,-3.1376,-3.1301,-3.1451,-3.1451,-3.1496,-3.1421,-3.1047,-3.0687,-3.0537,-3.0253,-2.9939,-2.9639,-2.9684,-2.9786,-2.9609,-2.9621,-2.9621,-2.9562,-2.9621,-2.9639,-3.0013,-3.0417,-3.0898,-3.1376,-3.1481,-3.1346,-3.9694,-3.9358,-3.9005,-3.8337,-3.7548,-3.7402,-3.732,-3.7174,-3.6307,-3.5564,-3.4833,-3.3006,-3.194,-3.1537,-3.2447,-3.3051,-3.3362,-3.3983,-3.4577,-3.511,-3.5198,-3.5354,-3.5489,-3.5489,-3.5489,-3.5489,-3.5115,-3.4921,-3.4876,-3.3963,-3.3305,-3.2931,-3.2362,-3.1869,-3.1511,-3.1496,-3.1496,-3.1496,-3.1869,-3.2049,-3.2034,-3.169,-3.1167,-3.0537,-3.0492,-3.0043,-2.9071,-2.8423,-2.7585,-2.6512,-2.5585,-2.4724,-2.4081,-2.4111,-2.444,0.0,0.0,0.0,0.0,0.0,0.0,0.0,0.0,0.0,0.0,0.0,-2.3595,-2.3595,-2.3595,-2.3714,-2.4029,-2.438,-2.4874,-2.5516,-2.5929,-2.6422,-2.7076,-2.6811,-2.6866,-2.751,-2.7869,-2.8199,-2.8562,-2.9202,-2.9621,-2.9621,-3.0208,-3.0748,-3.1002,-3.1047,-3.1047,-3.1047,-3.0808,-3.0657,-3.0657,-3.0342,-2.9983,-2.9729,-2.9624,-2.9427,-2.8858,-2.8936,-2.9056,-2.8783,-2.8483,-2.8274,-2.8274,-2.8019,-2.7964,-2.8603,-2.8978,-2.9549,-3.0447,-3.0657,-3.0507,-4.0083,-3.9388,-3.9388,-3.9388,-3.9328,-3.8676,-3.8063,-3.7494,-3.6866,-3.6133,-3.5282,-3.3834,-3.3191,-3.3162,-3.3282,-3.3632,-3.4151,-3.4465,-3.4812,-3.5154,-3.5366,-3.5489,-3.5489,-3.5489,-3.5489,-3.5489,-3.5489,-3.5489,-3.5474,-3.4322,-3.3694,-3.3574,-3.2392,-3.1705,-3.163,-3.1555,-3.1496,-3.1496,-3.1496,-3.1496,-3.1496,-3.1496,-3.1137,-3.0432,-3.0387,-3.0013,-2.9262,-2.8652,-2.8023,-2.7345,-2.6138,-2.5202,-2.4634,-2.3969,-2.3909,0.0,-2.4605,0.0,0.0,0.0,0.0,0.0,0.0,0.0,0.0,-2.3977,-2.3595,-2.3595,-2.3595,-2.3849,-2.4425,-2.447,-2.4739,-2.5382,-2.5457,-2.5726,-2.6363,-2.6467,-2.6677,-2.7285,-2.7919,-2.8338,-2.8308,-2.8906,-2.9352,-2.9277,-2.9412,-2.9624,-3.0013,-3.0238,-3.0387,-3.0387,-2.9939,-2.9744,-2.9711,-2.9549,-2.9235,-2.8712,-2.8771,-2.8783,-2.754,-2.7784,-2.8008,-2.745,-2.6901,-2.6542,-2.6467,-2.6048,-2.6063,-2.7136,-2.739,-2.7899,-2.9277,-2.9699,-2.9577,-4.0502,-3.9403,-3.9388,-3.9388,-3.9364,-3.8676,-3.8317,-3.8153,-3.7509,-3.6267,-3.4685,-3.4152,-3.3712,-3.3487,-3.4334,-3.4592,-3.4464,-3.5028,-3.5327,-3.5439,-3.5477,-3.5489,-3.5489,-3.5489,-3.5489,-3.5489,-3.5489,-3.5489,-3.5489,-3.525,-3.4846,-3.4309,-3.3514,-3.2856,-3.2288,0.0,0.0,0.0,-3.1496,-3.1496,-3.1496,-3.1496,-3.0943,-2.9804,-2.9786,0.0,-2.7285,-2.7021,-2.6662,-2.6004,-2.5217,0.0,0.0,0.0,0.0,0.0,0.0,0.0,0.0,0.0,0.0,0.0,-2.4156,-2.4044,-2.453,-2.3999,-2.3595,-2.3595,-2.3595,-2.3655,-2.3774,-2.3789,-2.4051,-2.4709,-2.4799,-2.5038,-2.5681,-2.5809,-2.5854,-2.5959,-2.6572,-2.6991,-2.7096,-2.757,-2.7989,-2.8079,-2.8442,-2.8603,-2.8244,-2.9127,-2.9741,-2.9756,-2.9532,-2.9562,-2.9621,-2.9097,-2.8427,-2.7974,-2.7375,-2.6916,-2.6258,-2.6123,-2.6213,-2.6033,-2.5884,-2.5794,-2.5794,-2.5689,-2.563,-2.5944,-2.5989,-2.6707,-2.9082,-2.9592,-2.943,-4.0606,0.0,-3.9388,-3.9388,0.0,-3.905,-3.8527,-3.7853,-3.7225,-3.6207,-3.5013,-3.4859,-3.4692,-3.4502,-3.5038,-3.5189,-3.4996,-3.5355,-3.5489,-3.5489,-3.5489,-3.5489,-3.5489,-3.5489,-3.5489,-3.5489,-3.516,-3.5175,-3.5459,-3.4831,-3.4337,-3.3993,-3.3649,-3.3006,-3.2019,-3.166,-3.1496,-3.1496,-3.1496,-3.1496,-3.1496,-3.1496,-3.0911,-2.9681,-2.9621,0.0,0.0,0.0,0.0,0.0,0.0,0.0,0.0,-2.3984,0.0,-2.4066,-2.4118,-2.4246,-2.4582,-2.4313,-2.4096,-2.4096,-2.3789,-2.3744,-2.4066,-2.3789,-2.3595,-2.3595,-2.3595,-2.3729,-2.4051,-2.4096,-2.435,-2.4993,-2.5098,-2.5232,-2.554,-2.56,-2.5749,-2.6019,-2.6093,-2.6318,-2.7031,-2.7061,-2.727,-2.7555,-2.7884,-2.7989,-2.772,-2.8169,-2.8513,-2.8199,-2.8139,-2.8098,-2.8053,-2.7545,-2.7051,-2.6632,-2.6333,-2.6019,-2.5651,-2.56,-2.56,-2.5585,-2.5337,-2.5098,-2.5068,-2.4866,-2.4694,-2.4993,-2.5098,-2.56,-2.7305,-2.7874,-2.8049,-4.0606,-3.9403,-3.9388,-3.9388,-3.9373,-3.929,-3.8446,-3.7195,0.0,0.0,0.0,-3.5489,-3.5489,-3.5489,-3.5489,-3.5489,-3.5489,-3.5489,-3.5489,-3.5489,-3.5489,-3.5489,-3.5489,-3.5489,-3.5489,-3.5474,-3.4921,-3.4936,-3.5444,-3.4382,-3.3844,-3.3844,-3.3724,-3.3066,-3.1914,-3.1735,-3.1675,-3.1675,-3.1555,-3.1496,-3.1496,-3.1496,-3.0943,-2.9801,-2.9771,-2.9157,-2.7824,-2.723,-2.6886,-2.6737,-2.563,-2.4903,-2.4769,-2.4148,-2.3729,-2.361,-2.3595,-2.3595,-2.3595,-2.3595,-2.3595,-2.3595,-2.3595,-2.3595,-2.3595,-2.3595,-2.3595,-2.3595,-2.3595,-2.3834,-2.4365,-2.4425,-2.4649,-2.5196,-2.5241,-2.5202,-2.5241,-2.5255,-2.539,-2.5914,-2.563,-2.5824,-2.6782,-2.6752,-2.6791,-2.7285,-2.7405,-2.7285,-2.7165,-2.7255,-2.733,-2.6886,-2.6737,-2.6497,-2.6363,-2.6108,-2.56,-2.5501,-2.5427,-2.5382,-2.5285,-2.5241,-2.5255,-2.5136,-2.4777,-2.4485,-2.438,-2.4044,-2.3819,-2.4306,-2.4425,-2.459,-2.5113,-2.5651,-2.6075,-4.0606,-3.9388,-3.9388,-3.9388,-3.9364,-3.8781,-3.7808,-3.6582,-3.5938,-3.5594,-3.5489,-3.5489,-3.5489,-3.5489,-3.5489,-3.5489,-3.5489,-3.5489,-3.5489,-3.5489,-3.5489,-3.5489,-3.5489,-3.5489,-3.5489,-3.5489,-3.54,-3.5415,-3.5474,-3.5295,-3.5235,-3.5115,-3.4637,-3.3948,-3.323,-3.2662,-3.2377,-3.2362,-3.1795,-3.1496,-3.1496,-3.1496,-3.1137,-3.0432,-3.0357,-2.9774,-2.8502,-2.8338,-2.8038,-2.7465,-2.6731,-2.6063,-2.5495,-2.4799,-2.4186,-2.3655,-2.3595,-2.3595,-2.3595,-2.3595,-2.3595,-2.3595,-2.3595,-2.3595,-2.3595,-2.3595,-2.3595,-2.3595,-2.3595,-2.3625,-2.3744,-2.3774,-2.3834,-2.3909,-2.3909,-2.3894,-2.3954,-2.3969,-2.4044,-2.4208,-2.4492,-2.4799,-2.5232,-2.5959,-2.6537,-2.6677,-2.6746,-2.6378,-2.5681,-2.6019,-2.6641,-2.6527,-2.6093,-2.5794,-2.5719,-2.5689,-2.5277,-2.4829,-2.4739,-2.4575,-2.4133,-2.4059,-2.4059,-2.3924,-2.3894,-2.3819,-2.3774,-2.3684,-2.367,-2.3819,-2.3812,-2.3879,-2.4007,-2.4,-2.426,-4.0816,-3.9948,-3.9574,-3.9388,-3.9364,-3.8676,-3.7853,-3.6956,-3.6297,-3.5833,-3.5504,-3.5489,-3.5489,-3.5489,-3.5489,-3.5489,-3.5489,-3.5489,-3.5489,-3.5489,-3.5489,-3.5489,-3.5489,-3.5489,-3.5489,-3.5459,-3.4756,-3.4607,-3.4891,-3.4592,-3.4412,-3.4397,-3.4083,-3.3963,-3.3948,-3.3021,-3.2497,-3.2467,-3.1839,-3.1496,-3.1496,-3.1496,-3.1167,-3.0522,-3.0492,-3.0073,-2.916,-2.8438,-2.7929,-2.7615,-2.6602,-2.5914,-2.5615,-2.4963,-2.4455,-2.4193,-2.4141,-2.3962,-2.3625,-2.3595,-2.3595,-2.3595,-2.3595,-2.3595,-2.3595,-2.3595,-2.3595,-2.3595,-2.3595,-2.3595,-2.3595,-2.3595,-2.3595,-2.3595,-2.3595,-2.3595,-2.3595,-2.3595,-2.3759,-2.4059,-2.4066,-2.4321,-2.5053,-2.5352,-2.5689,-2.5959,-2.6048,-2.5779,-2.5173,-2.5292,-2.554,-2.5472,-2.5262,-2.5083,-2.5038,-2.4732,-2.4395,-2.4081,-2.4051,-2.3954,-2.364,-2.3595,-2.3595,-2.3595,-2.3595,-2.3595,-2.3595,-2.3595,-2.3595,-2.3595,-2.3595,-2.3595,-2.3558,-2.3205,-2.3297,-4.113,-4.0352,-3.9858,-3.9559,-3.9313,-3.8676,-3.8018,-3.7375,-3.6746,-3.6118,-3.5549,-3.5489,-3.5489,-3.5489,-3.5489,-3.5489,-3.5489,-3.5489,-3.5489,-3.5489,-3.5489,-3.5489,-3.5489,-3.5489,-3.5489,-3.54,-3.4442,-3.4218,-3.4607,-3.4203,-3.3948,-3.3948,-3.3948,-3.4218,-3.4666,-3.3529,-3.2961,-3.2916,-3.2138,-3.166,-3.1511,-3.1496,-3.1241,-3.0791,-3.0718,-3.0447,-2.9789,-2.8828,-2.8199,-2.8004,-2.6901,-2.6213,-2.6033,-2.5412,-2.4978,-2.4859,-2.4829,-2.4627,-2.4103,-2.3909,-2.3834,-2.3819,-2.3684,-2.3595,-2.3595,-2.3595,-2.3595,-2.3595,-2.3595,-2.3595,-2.3595,-2.3595,-2.3595,-2.3595,-2.3595,-2.3595,-2.3595,-2.3595,-2.3789,-2.4216,-2.3909,-2.4029,-2.4792,-2.4844,-2.4859,-2.5285,-2.5367,-2.5322,-2.5151,-2.4679,-2.441,-2.438,-2.438,-2.4365,-2.4335,-2.4014,-2.3684,-2.3595,-2.3625,-2.364,-2.3595,-2.3595,-2.3595,-2.3595,-2.3595,-2.3595,-2.3595,-2.3595,-2.3595,-2.3595,-2.3595,-2.3528,-2.3255,-2.2842,-2.2743,-4.1557,-4.0487,-4.0307,-3.9948,-3.9298,-3.8676,-3.7988,-3.7345,-3.6761,-3.6118,-3.5519,-3.5489,-3.5489,-3.5489,-3.5489,-3.5489,-3.5489,-3.5489,-3.5489,-3.5489,-3.5489,-3.5489,-3.5489,-3.5489,-3.5489,-3.5474,-3.525,-3.51,-3.516,-3.522,-3.528,-3.5325,-3.531,-3.5295,-3.5295,-3.4668,-3.4262,-3.4294,-3.3066,-3.2108,-3.154,-3.1496,-3.1466,-3.1421,-3.1391,-3.1092,-3.0447,-3.0298,-2.9968,-2.9442,-2.8667,-2.8034,-2.7435,-2.6767,-2.6138,-2.5585,-2.5486,-2.5465,-2.5375,-2.4844,-2.45,-2.447,-2.3954,-2.364,-2.364,-2.3625,-2.361,-2.3655,-2.364,-2.3595,-2.3595,-2.3595,-2.3595,-2.3595,-2.3595,-2.3595,-2.3595,-2.3595,-2.3625,-2.367,-2.3655,-2.367,-2.3924,-2.4261,-2.4575,-2.4664,-2.4694,-2.453,-2.4103,-2.3909,-2.3789,-2.3744,-2.3714,-2.3744,-2.3744,-2.3684,-2.3595,-2.3595,-2.3595,-2.3595,-2.3595,-2.3595,-2.3595,-2.3595,-2.3595,-2.3595,-2.3595,-2.3595,-2.3595,-2.3595,-2.3528,-2.3402,-2.2732,-2.2482,-2.2684,-4.1512,-4.0905,-4.0142,-3.9424,-3.8766,-3.8093,-3.7449,-3.6851,-3.6596,-3.6118,-3.5549,-3.5489,-3.5489,-3.5489,-3.5489,-3.5489,-3.5489,-3.5489,-3.5489,-3.5489,-3.5489,-3.5489,-3.5489,-3.5489,-3.531,-3.4876,-3.4517,-3.4113,-3.3858,-3.4128,-3.4711,-3.5429,-3.5489,-3.5489,-3.5459,-3.4816,-3.4503,-3.4474,-3.3559,-3.2781,-3.2108,-3.1705,-3.1496,-3.1496,-3.1496,-3.1391,-3.1077,-3.0731,-3.0387,-3.0088,-2.916,-2.8472,-2.8188,-2.7195,-2.6467,-2.6198,-2.5809,-2.5779,-2.6153,-2.5585,-2.5008,-2.4634,-2.435,-2.4201,-2.4171,-2.4208,-2.4335,-2.4627,-2.4073,-2.3595,-2.361,-2.3595,-2.3595,-2.3595,-2.3595,-2.3595,-2.3595,-2.3595,-2.3595,-2.3595,-2.3595,-2.3595,-2.3625,-2.3834,-2.4014,-2.4014,-2.4029,-2.3909,-2.3625,-2.3595,-2.3595,-2.3595,-2.3595,-2.3595,-2.3595,-2.3595,-2.3595,-2.3595,-2.3595,-2.3595,-2.3595,-2.3595,-2.3595,-2.3595,-2.3595,-2.3595,-2.3595,-2.3595,-2.3595,-2.3543,-2.3595,-2.3483,-2.3165,-2.2732,-2.2463,-4.1265,-4.092,-3.9679,-3.8856,-3.8347,-3.7689,-3.706,-3.6522,-3.6492,-3.6118,-3.5519,-3.5489,-3.5489,-3.5489,-3.5489,-3.5489,-3.5489,-3.5489,-3.5489,-3.5489,-3.5489,-3.5489,-3.5489,-3.5489,-3.525,-3.4758,-3.4113,-3.3544,-3.317,-3.3724,-3.4547,-3.5385,-3.5489,-3.5489,-3.5459,-3.4981,-3.4756,-3.4743,-3.4098,-3.3529,-3.3021,-3.2213,-3.169,-3.1525,-3.1496,-3.1496,-3.1496,-3.1032,-3.0791,-3.0761,-2.9714,-2.9041,-2.8846,-2.7769,-2.7066,-2.6856,-2.6422,-2.6348,-2.6851,-2.6243,-2.5674,-2.5202,-2.5008,-2.4874,-2.4874,-2.4874,-2.5083,-2.542,-2.4717,-2.4148,-2.3879,-2.3714,-2.3595,-2.3595,-2.3595,-2.3595,-2.3595,-2.3595,-2.3595,-2.3595,-2.3595,-2.3595,-2.3595,-2.3625,-2.3655,-2.364,-2.3625,-2.3595,-2.3595,-2.3595,-2.3595,-2.3595,-2.3595,-2.3595,-2.3595,-2.3595,-2.3595,-2.3595,-2.3595,-2.3595,-2.3595,-2.3595,-2.3595,-2.3595,-2.3595,-2.3595,-2.3595,-2.3595,-2.3468,-2.3372,-2.3402,-2.3417,-2.3084,-2.2848,-2.23,-4.1025,-4.0292,-3.899,-3.8392,-3.8317,-3.7629,-3.7015,-3.6417,-3.6447,-3.6103,-3.5534,-3.5489,-3.5489,-3.5489,-3.5489,-3.5489,-3.5489,-3.5489,-3.5489,-3.5489,-3.5489,-3.5489,-3.5489,-3.5489,-3.5474,-3.5235,-3.4683,-3.4369,-3.4337,-3.4996,-3.5444,-3.5489,-3.5489,-3.5489,-3.5489,-3.5429,-3.5429,-3.531,-3.4771,-3.4414,-3.4234,-3.3095,-3.2153,-3.1615,-3.1511,-3.1496,-3.1496,-3.1481,-3.1436,-3.1451,-3.0731,-3.0118,-2.9577,-2.8846,-2.8143,-2.7615,-2.748,-2.7465,-2.742,-2.6926,-2.6482,-2.6378,-2.5854,-2.5555,-2.557,-2.557,-2.5644,-2.5644,-2.5585,-2.5226,-2.4605,-2.4059,-2.367,-2.3595,-2.3595,-2.3595,-2.3595,-2.3595,-2.3595,-2.3595,-2.3595,-2.3595,-2.3595,-2.3595,-2.3595,-2.3595,-2.3595,-2.3595,-2.3595,-2.3595,-2.3595,-2.3595,-2.3595,-2.3595,-2.3595,-2.3595,-2.3595,-2.3595,-2.3595,-2.3595,-2.3595,-2.3595,-2.3595,-2.3595,-2.3595,-2.3595,-2.3595,-2.3483,-2.3261,-2.318,-2.3261,-2.3195,-2.2833,-2.321,-2.2549,-4.0741,-3.9649,-3.8317,-3.7764,-3.7644,-3.6641,-3.6058,-3.5863,-3.5863,-3.5729,-3.5534,-3.5489,-3.5489,-3.5489,-3.5489,-3.5489,-3.5489,-3.5489,-3.5489,-3.5489,-3.5489,-3.5489,-3.5489,-3.5489,-3.525,-3.4846,-3.4592,-3.4503,-3.4518,-3.4773,-3.507,-3.5444,-3.5489,-3.5489,-3.5489,-3.5489,-3.5489,-3.5474,-3.5235,-3.4936,-3.4488,-3.3589,-3.2796,-3.2153,-3.172,-3.1496,-3.1496,-3.1496,-3.1496,-3.1496,-3.0866,-3.0417,-3.0103,-2.9175,-2.8293,-2.769,-2.7585,-2.7585,-2.757,-2.7375,-2.7046,-2.6641,-2.6378,-2.6228,-2.6243,-2.6243,-2.6393,-2.6701,-2.6462,-2.5959,-2.5277,-2.4619,-2.4051,-2.3684,-2.3595,-2.3595,-2.3595,-2.3595,-2.3595,-2.3595,-2.3595,-2.3595,-2.3595,-2.3595,-2.3595,-2.3595,-2.3595,-2.3595,-2.3595,-2.3595,-2.3595,-2.3595,-2.3595,-2.3595,-2.3595,-2.3595,-2.3595,-2.3595,-2.3595,-2.3595,-2.3595,-2.3595,-2.3595,-2.3595,-2.3595,-2.3595,-2.3595,-2.3558,-2.3306,-2.3195,-2.3276,-2.3003,-2.2482,-2.2621,-2.1806,-4.0113,-3.899,-3.7868,-3.7285,-3.6985,-3.5968,-3.5489,-3.5489,-3.5489,-3.5489,-3.5489,-3.5489,-3.5489,-3.5489,-3.5489,-3.5489,-3.5489,-3.5489,-3.5489,-3.5489,-3.5489,-3.5489,-3.5489,-3.5489,-3.5265,-3.4908,-3.4801,-3.4743,-3.4563,-3.4743,-3.5055,-3.5474,-3.5489,-3.5489,-3.5489,-3.5489,-3.5489,-3.5489,-3.5489,-3.5265,-3.4771,-3.4158,-3.3484,-3.2841,-3.2153,-3.172,-3.1525,-3.1496,-3.1496,-3.1436,-3.1047,-3.0642,-3.0163,-2.919,-2.8293,-2.7705,-2.7585,-2.7585,-2.7585,-2.7585,-2.739,-2.6986,-2.6926,-2.6916,-2.6926,-2.6926,-2.718,-2.739,-2.7225,-2.6611,-2.5764,-2.5173,-2.456,-2.3819,-2.3595,-2.3595,-2.3595,-2.3595,-2.3595,-2.3595,-2.3595,-2.3595,-2.3595,-2.3595,-2.3595,-2.3595,-2.3595,-2.3595,-2.3595,-2.3595,-2.3595,-2.3595,-2.3595,-2.3595,-2.3595,-2.3595,-2.3595,-2.3595,-2.3595,-2.3595,-2.3595,-2.3595,-2.3595,-2.3595,-2.3595,-2.3595,-2.3595,-2.3595,-2.3483,-2.3306,-2.321,-2.304,-2.2446,-2.1836,-2.1201,-3.9065,-3.8437,-3.7704,-3.7135,-3.6611,-3.5968,-3.5564,-3.5519,-3.5549,-3.5579,-3.5519,-3.5489,-3.5489,-3.5489,-3.5489,-3.5489,-3.5489,-3.5489,-3.5489,-3.5489,-3.5489,-3.5489,-3.5489,-3.5489,-3.5489,-3.54,-3.5459,-3.513,-3.4653,-3.5115,-3.5444,-3.5489,-3.5489,-3.5489,-3.5489,-3.5489,-3.5489,-3.5489,-3.5489,-3.5474,-3.54,-3.4756,-3.4068,-3.344,-3.2796,-3.2108,-3.1525,-3.1496,-3.1496,-3.1496,-3.1481,-3.0896,-2.9774,-2.8966,-2.8293,-2.7735,-2.7585,-2.7585,-2.7585,-2.7585,-2.7585,-2.748,-2.754,-2.748,-2.7465,-2.7495,-2.754,-2.7555,-2.7495,-2.7031,-2.5899,-2.554,-2.4978,-2.3864,-2.3595,-2.3595,-2.3595,-2.3595,-2.3595,-2.3595,-2.3595,-2.3595,-2.3595,-2.3595,-2.3595,-2.3595,-2.3595,-2.3595,-2.3595,-2.3595,-2.3595,-2.3595,-2.3595,-2.3595,-2.3595,-2.3595,-2.3595,-2.3595,-2.3595,-2.3595,-2.3595,-2.3595,-2.3595,-2.3595,-2.3595,-2.3595,-2.3595,-2.3543,-2.3336,-2.3195,-2.3114,-2.2842,-2.2024,-2.1374,-2.1158,-3.929,-3.902,-3.8362,-3.7719,-3.7135,-3.6896,-3.6342,-3.5609,-3.5968,-3.5923,-3.5564,-3.5489,-3.5489,-3.5489,-3.5489,-3.5489,-3.5489,-3.5489,-3.5489,-3.5489,-3.5489,-3.5489,-3.5489,-3.5489,-3.5489,-3.5489,-3.5489,-3.5415,-3.5265,-3.54,-3.5489,-3.5489,-3.5489,-3.5489,-3.5489,-3.5489,-3.5489,-3.5489,-3.5489,-3.5489,-3.5444,-3.4846,-3.4204,-3.3499,-3.2856,-3.2183,-3.1555,-3.1496,-3.1496,-3.1496,-3.1496,-3.0941,-2.9759,-2.8951,-2.8293,-2.7705,-2.7585,-2.7585,-2.7585,-2.7585,-2.7585,-2.7585,-2.7585,-2.7585,-2.7585,-2.7585,-2.7585,-2.7585,-2.757,-2.7061,-2.5944,-2.56,-2.5016,-2.3744,-2.3595,-2.3595,-2.3595,-2.3595,-2.3595,-2.3595,-2.3595,-2.3595,-2.3595,-2.3595,-2.3595,-2.3595,-2.3595,-2.3595,-2.3595,-2.3595,-2.3595,-2.3595,-2.3595,-2.3595,-2.3595,-2.3595,-2.3595,-2.3595,-2.3595,-2.3595,-2.3595,-2.3595,-2.3595,-2.3595,-2.3595,-2.3595,-2.3595,-2.3513,-2.3321,-2.315,-2.3084,-2.2395,-2.1389,-2.1044,-2.1029,-3.9275,-3.899,-3.8571,-3.8018,-3.7434,-3.7404,-3.6971,-3.6282,-3.6402,-3.6252,-3.5878,-3.5609,-3.5489,-3.5489,-3.5489,-3.5489,-3.5489,-3.5489,-3.5489,-3.5489,-3.5489,-3.5489,-3.5489,-3.5489,-3.5489,-3.5489,-3.5489,-3.5489,-3.5489,-3.5489,-3.5489,-3.5489,-3.5489,-3.5489,-3.5489,-3.5489,-3.5489,-3.5489,-3.5489,-3.5489,-3.5415,-3.5085,-3.4427,-3.3589,-3.3095,-3.2392,-3.16,-3.1496,-3.1496,-3.1496,-3.1496,-3.0972,-2.9983,-2.9352,-2.8667,-2.8094,-2.7735,-2.7585,-2.7585,-2.7585,-2.7585,-2.7585,-2.7585,-2.7585,-2.7585,-2.7585,-2.7585,-2.7585,-2.7585,-2.7061,-2.5899,-2.56,-2.5001,-2.3744,-2.3595,-2.3595,-2.3595,-2.3595,-2.3595,-2.3595,-2.3595,-2.3595,-2.3595,-2.3595,-2.3595,-2.3595,-2.3595,-2.3595,-2.3595,-2.3595,-2.3595,-2.3595,-2.3595,-2.3595,-2.3595,-2.3595,-2.3595,-2.3595,-2.3595,-2.3595,-2.3595,-2.3595,-2.3595,-2.3595,-2.3595,-2.3595,-2.3595,-2.3595,-2.3483,-2.3276,-2.3069,-2.241,-2.172,-2.1459,-2.1272,-3.902,-3.8422,-3.8377,-3.7973,-3.7375,-3.7434,-3.7375,-3.718,-3.6911,-3.6611,-3.6357,-3.5878,-3.5564,-3.5519,-3.5489,-3.5489,-3.5489,-3.5489,-3.5489,-3.5489,-3.5489,-3.5489,-3.5489,-3.5489,-3.5489,-3.5489,-3.5489,-3.5489,-3.5489,-3.5489,-3.5489,-3.5489,-3.5489,-3.5489,-3.5489,-3.5489,-3.5489,-3.5489,-3.5489,-3.5489,-3.5489,-3.5474,-3.4876,-3.3679,-3.3469,-3.2871,-3.1854,-3.1555,-3.1496,-3.1496,-3.1421,-3.1047,-3.0492,-2.9909,-2.9232,-2.8547,-2.7989,-2.7705,-2.763,-2.7585,-2.7585,-2.7585,-2.7585,-2.7585,-2.7585,-2.7585,-2.7585,-2.7585,-2.7585,-2.7061,-2.5944,-2.56,-2.4971,-2.3894,-2.3595,-2.3595,-2.3595,-2.3595,-2.3595,-2.3595,-2.3595,-2.3595,-2.3595,-2.3595,-2.3595,-2.3595,-2.3595,-2.3595,-2.3595,-2.3595,-2.3595,-2.3595,-2.3595,-2.3595,-2.3595,-2.3595,-2.3595,-2.3595,-2.3595,-2.3595,-2.3595,-2.3595,-2.3595,-2.3595,-2.3595,-2.3595,-2.3595,-2.3595,-2.3595,-2.3483,-2.3129,-2.2615,-2.2039,-2.1524,-2.0863,-3.902,-3.8407,-3.8377,-3.7749,-3.6956,-3.7689,-3.7584,-3.6926,-3.7569,-3.7225,-3.6611,-3.6327,-3.5938,-3.5534,-3.5519,-3.5489,-3.5489,-3.5489,-3.5489,-3.5489,-3.5489,-3.5489,-3.5489,-3.5489,-3.5489,-3.5489,-3.5489,-3.5489,-3.5489,-3.5504,-3.5504,-3.5489,-3.5504,-3.5489,-3.5489,-3.5489,-3.5489,-3.5489,-3.5489,-3.5489,-3.5489,-3.5489,-3.51,-3.4339,-3.3769,-3.311,-3.2258,-3.175,-3.1496,-3.1451,-3.0987,-3.0717,-3.0522,-2.9968,-2.937,-2.8786,-2.8442,-2.8109,-2.772,-2.76,-2.76,-2.7585,-2.7585,-2.7585,-2.7585,-2.7585,-2.7585,-2.7585,-2.757,-2.7061,-2.5929,-2.5555,-2.4889,-2.3894,-2.3595,-2.3595,-2.3595,-2.3595,-2.3595,-2.3595,-2.3595,-2.3595,-2.3595,-2.3595,-2.3595,-2.3595,-2.3595,-2.3595,-2.3595,-2.3595,-2.3595,-2.3595,-2.3595,-2.3595,-2.3595,-2.3595,-2.3595,-2.3595,-2.3595,-2.3595,-2.3595,-2.3595,-2.3595,-2.3595,-2.3595,-2.3595,-2.3595,-2.3595,-2.3595,-2.3417,-2.2857,-2.2184,-2.1389,-2.0779,-2.0091,-3.902,-3.8457,-3.8691,-3.8078,-3.7075,-3.7958,-3.7808,-3.709,-3.7315,-3.7375,-3.6866,-3.6582,-3.6315,-3.5953,-3.5923,-3.5744,-3.5519,-3.5489,-3.5489,-3.5489,-3.5489,-3.5489,-3.5489,-3.5489,-3.5489,-3.5489,-3.5504,-3.5669,-3.5818,-3.5654,-3.5639,-3.5818,-3.5624,-3.5504,-3.5489,-3.5489,-3.5489,-3.5489,-3.5489,-3.5489,-3.5489,-3.5489,-3.513,-3.4608,-3.4084,-3.3514,-3.2572,-3.1854,-3.1496,-3.1421,-3.1122,-3.0898,-3.0853,-3.0328,-2.9804,-2.9385,-2.8936,-2.8397,-2.8079,-2.7779,-2.76,-2.7585,-2.7585,-2.7585,-2.7585,-2.7585,-2.7585,-2.7585,-2.7585,-2.6901,-2.5839,-2.5136,-2.4448,-2.3759,-2.3595,-2.3595,-2.3595,-2.3595,-2.3595,-2.3595,-2.3595,-2.3595,-2.3595,-2.361,-2.361,-2.3595,-2.3595,-2.3595,-2.3595,-2.3595,-2.3595,-2.3595,-2.3595,-2.3595,-2.3595,-2.3595,-2.3595,-2.3595,-2.3595,-2.3595,-2.3595,-2.3595,-2.3595,-2.3595,-2.3595,-2.3543,-2.3498,-2.3336,-2.3018,-2.2732,-2.2271,-2.1647,-2.0857,-2.0694,-1.9916,-3.8975,-3.8332,-3.8945,-3.8482,-3.7434,-3.7913,-3.7793,-3.736,-3.6956,-3.6926,-3.703,-3.6701,-3.6372,-3.6402,-3.6133,-3.6028,-3.5504,-3.5489,-3.5489,-3.5489,-3.5489,-3.5489,-3.5489,-3.5489,-3.5489,-3.5534,-3.5534,-3.5833,-3.6028,-3.5759,-3.5878,-3.6013,-3.5699,-3.5534,-3.5489,-3.5489,-3.5489,-3.5489,-3.5489,-3.5489,-3.5489,-3.5474,-3.522,-3.4786,-3.4309,-3.3619,-3.2632,-3.1884,-3.1496,-3.1496,-3.1496,-3.1436,-3.1376,-3.0853,-3.0537,-3.0223,-2.9385,-2.8727,-2.8472,-2.7944,-2.7585,-2.7585,-2.7585,-2.7585,-2.7585,-2.7585,-2.7585,-2.7585,-2.7585,-2.6916,-2.5749,-2.4477,-2.3819,-2.3595,-2.3595,-2.3595,-2.3595,-2.3595,-2.361,-2.3699,-2.3714,-2.3714,-2.3699,-2.3699,-2.3699,-2.3595,-2.3595,-2.3595,-2.3595,-2.3595,-2.3595,-2.3595,-2.3595,-2.3595,-2.3595,-2.3595,-2.3595,-2.3595,-2.3595,-2.3595,-2.3595,-2.3595,-2.3595,-2.3595,-2.3595,-2.3432,-2.3225,-2.2974,-2.2621,-2.2125,-2.1727,-2.1015,-2.0318,-2.0758,-2.0445,-3.8706,-3.7629,-3.7778,-3.7404,-3.6761,-3.6836,-3.709,-3.7345,-3.7225,-3.6911,-3.6731,-3.6537,-3.6207,-3.5774,-3.5833,-3.5609,-3.5534,-3.5489,-3.5489,-3.5489,-3.5489,-3.5489,-3.5489,-3.5489,-3.5489,-3.5609,-3.6043,-3.6073,-3.5893,-3.6148,-3.6058,-3.5744,-3.5744,-3.5504,-3.5504,-3.5489,-3.5489,-3.5489,-3.5489,-3.5489,-3.5489,-3.5489,-3.5415,-3.513,-3.4277,-3.3365,-3.2587,-3.1854,-3.1511,-3.1496,-3.1496,-3.1496,-3.1451,-3.1331,-3.1017,-3.0507,-2.9819,-2.9131,-2.8622,-2.8049,-2.7585,-2.7585,-2.7585,-2.7585,-2.7585,-2.7585,-2.7585,-2.7585,-2.7555,-2.7001,-2.5809,-2.4418,-2.3804,-2.3684,-2.3714,-2.3684,-2.361,-2.3625,-2.3842,-2.4186,-2.4335,-2.438,-2.4365,-2.4246,-2.4088,-2.3729,-2.3595,-2.3595,-2.3595,-2.3595,-2.3595,-2.3595,-2.3595,-2.3595,-2.3595,-2.3595,-2.3595,-2.3595,-2.3595,-2.3595,-2.3595,-2.3595,-2.3595,-2.3595,-2.3595,-2.3402,-2.321,-2.2732,-2.2416,-2.1806,-2.1345,-2.095,-2.0744,-2.1044,-2.1266,-3.8631,-3.7479,-3.7734,-3.7165,-3.6178,-3.6375,-3.6507,-3.6522,-3.6522,-3.6522,-3.6507,-3.6492,-3.6282,-3.5968,-3.5953,-3.5848,-3.5549,-3.5489,-3.5489,-3.5489,-3.5489,-3.5489,-3.5489,-3.5489,-3.5504,-3.5624,-3.6163,-3.6222,-3.6207,-3.6507,-3.6611,-3.6013,-3.5953,-3.5789,-3.5534,-3.5489,-3.5489,-3.5489,-3.5489,-3.5489,-3.5489,-3.5489,-3.5489,-3.525,-3.4247,-3.329,-3.2976,-3.1974,-3.1585,-3.1496,-3.1496,-3.1496,-3.1496,-3.1496,-3.1301,-3.0928,-3.0058,-2.9532,-2.8992,-2.8199,-2.7585,-2.7615,-2.76,-2.7585,-2.7585,-2.7585,-2.7585,-2.7585,-2.751,-2.7151,-2.6138,-2.4859,-2.4171,-2.4126,-2.4335,-2.438,-2.4141,-2.4066,-2.4156,-2.453,-2.456,-2.456,-2.4575,-2.453,-2.4126,-2.364,-2.3595,-2.3595,-2.3595,-2.3595,-2.3595,-2.3595,-2.3595,-2.3595,-2.3595,-2.3595,-2.3595,-2.3595,-2.3595,-2.3595,-2.3595,-2.3595,-2.3595,-2.3595,-2.3595,-2.3513,-2.3291,-2.2768,-2.2366,-2.2031,-2.1683,-2.133,-2.1123,-2.1187,-2.1503,-3.8482,-3.7315,-3.7868,-3.7135,-3.5863,-3.6133,-3.6103,-3.5759,-3.5549,-3.5893,-3.6237,-3.6342,-3.6207,-3.6267,-3.6271,-3.5968,-3.5639,-3.5489,-3.5489,-3.5489,-3.5699,-3.5624,-3.5594,-3.5639,-3.5744,-3.5744,-3.6387,-3.6582,-3.6641,-3.712,-3.721,-3.6701,-3.651,-3.6193,-3.5774,-3.5519,-3.5489,-3.5489,-3.5489,-3.5489,-3.5489,-3.5489,-3.5459,-3.5026,-3.4188,-3.3395,-3.2976,-3.2153,-3.1496,-3.1496,-3.1496,-3.1496,-3.1496,-3.1496,-3.1496,-3.1436,-3.0402,-2.9891,-2.952,-2.8607,-2.7824,-2.775,-2.763,-2.76,-2.7585,-2.7585,-2.7585,-2.7525,-2.742,-2.7136,-2.6557,-2.551,-2.4859,-2.4829,-2.5277,-2.5262,-2.4948,-2.4814,-2.5008,-2.4993,-2.5023,-2.4948,-2.4694,-2.45,-2.4007,-2.3625,-2.361,-2.3595,-2.3595,-2.3595,-2.3595,-2.3595,-2.3595,-2.3595,-2.3595,-2.3595,-2.3595,-2.3595,-2.3595,-2.3498,-2.3513,-2.3543,-2.3543,-2.3595,-2.358,-2.3462,-2.3329,-2.2954,-2.2587,-2.233,-2.2178,-2.2005,-2.1708,-2.1374,-2.1662,-3.7808,-3.6641,-3.6761,-3.6596,-3.6267,-3.5878,-3.5923,-3.6193,-3.5699,-3.5549,-3.5669,-3.5684,-3.5729,-3.5714,-3.5669,-3.5579,-3.5519,-3.5489,-3.5489,-3.5609,-3.5923,-3.6043,-3.5624,-3.6088,-3.6267,-3.6477,-3.6911,-3.7015,-3.6911,-3.7539,-3.7764,-3.727,-3.6836,-3.6477,-3.6178,-3.5833,-3.5564,-3.5504,-3.5489,-3.5489,-3.5489,-3.5474,-3.522,-3.4786,-3.3993,-3.335,-3.2691,-3.1974,-3.1496,-3.1496,-3.1496,-3.1496,-3.1496,-3.1496,-3.1496,-3.1331,-3.0718,-3.0238,-3.0058,-2.916,-2.8547,-2.8308,-2.7989,-2.7645,-2.7615,-2.7585,-2.7585,-2.745,-2.7136,-2.6746,-2.6626,-2.5914,-2.554,-2.5495,-2.5591,-2.5636,-2.56,-2.5839,-2.6138,-2.6093,-2.5779,-2.533,-2.4993,-2.456,-2.3992,-2.3684,-2.361,-2.3595,-2.3595,-2.3595,-2.3595,-2.3595,-2.3595,-2.3595,-2.3595,-2.3595,-2.3595,-2.3595,-2.3528,-2.327,-2.3299,-2.3432,-2.3498,-2.345,-2.339,-2.3278,-2.3124,-2.2949,-2.2531,-2.2049,-2.2312,-2.2664,-2.2035,-2.1489,-2.1727,-3.733,-3.6507,-3.6492,-3.6282,-3.5953,-3.5639,-3.5684,-3.5893,-3.5639,-3.5489,-3.5489,-3.5489,-3.5489,-3.5489,-3.5489,-3.5489,-3.5504,-3.5489,-3.5489,-3.5654,-3.6118,-3.6133,-3.5744,-3.6492,-3.6656,-3.6851,-3.7345,-3.7569,-3.7165,-3.8302,-3.8302,-3.7629,-3.7375,-3.7214,-3.6615,-3.6207,-3.5804,-3.5624,-3.5489,-3.5489,-3.5489,-3.5489,-3.513,-3.4562,-3.4128,-3.3514,-3.2632,-3.2273,-3.1839,-3.1585,-3.1496,-3.1496,-3.1496,-3.1496,-3.1496,-3.1391,-3.0883,-3.0507,-3.0402,-2.9594,-2.9011,-2.8592,-2.8248,-2.7959,-2.7705,-2.7585,-2.7585,-2.745,-2.7046,-2.6752,-2.7091,-2.6467,-2.6183,-2.6183,-2.6363,-2.6393,-2.6363,-2.6752,-2.6941,-2.6941,-2.6123,-2.557,-2.533,-2.4792,-2.4073,-2.3759,-2.3625,-2.3595,-2.3595,-2.3595,-2.3595,-2.3595,-2.3595,-2.3595,-2.3595,-2.3595,-2.3595,-2.3595,-2.3513,-2.327,-2.3271,-2.3478,-2.337,-2.3231,-2.3142,-2.3155,-2.2869,-2.2658,-2.2205,-2.1914,-2.2291,-2.2479,-2.1968,-2.1712,-2.1936,-3.6851,-3.6297,-3.6282,-3.5983,-3.5549,-3.5489,-3.5504,-3.5489,-3.5504,-3.5489,-3.5489,-3.5489,-3.5489,-3.5489,-3.5489,-3.5504,-3.5519,-3.5609,-3.5759,-3.5893,-3.6417,-3.6372,-3.6357,-3.6716,-3.7255,-3.73,-3.7764,-3.8123,-3.7913,-3.8715,-3.8676,-3.8257,-3.8347,-3.7868,-3.6926,-3.6522,-3.6118,-3.5714,-3.5489,-3.5489,-3.5489,-3.5459,-3.5175,-3.4502,-3.4384,-3.3664,-3.2647,-3.2213,-3.1929,-3.163,-3.1496,-3.1496,-3.1496,-3.1496,-3.1496,-3.1406,-3.0972,-3.0776,-3.0552,-2.9924,-2.9322,-2.8936,-2.8547,-2.8124,-2.7809,-2.7585,-2.7585,-2.7495,-2.721,-2.7016,-2.736,-2.7106,-2.6841,-2.6871,-2.7195,-2.742,-2.7106,-2.7165,-2.7375,-2.7046,-2.6243,-2.5764,-2.5495,-2.4612,-2.3819,-2.3729,-2.3595,-2.3595,-2.3595,-2.3595,-2.3595,-2.3595,-2.3595,-2.3595,-2.3595,-2.3595,-2.3595,-2.3595,-2.3528,-2.3351,-2.3457,-2.3628,-2.3312,-2.2908,-2.3216,-2.3171,-2.2805,-2.2586,-2.2556,-2.2527,-2.2531,-2.2522,-2.2484,-2.209,-2.1951,-3.6207,-3.5624,-3.5624,-3.5564,-3.5519,-3.5489,-3.5489,-3.5489,-3.5489,-3.5489,-3.5489,-3.5489,-3.5489,-3.5489,-3.5489,-3.5489,-3.5639,-3.5938,-3.6133,-3.6193,-3.6776,-3.703,-3.709,-3.7255,-3.7749,-3.7898,-3.8272,-3.8347,-3.8437,-3.908,-3.9313,-3.8985,-3.8542,-3.8003,-3.724,-3.6806,-3.6163,-3.5624,-3.5489,-3.5489,-3.5489,-3.5489,-3.5115,-3.4563,-3.4053,-3.341,-3.2632,-3.2168,-3.178,-3.1555,-3.1496,-3.1496,-3.1496,-3.1496,-3.1496,-3.1496,-3.1421,-3.1376,-3.1137,-3.0432,-2.9666,-2.9235,-2.8562,-2.7869,-2.763,-2.7585,-2.7585,-2.7585,-2.7465,-2.7435,-2.754,-2.7495,-2.7465,-2.742,-2.7465,-2.757,-2.745,-2.733,-2.7555,-2.7285,-2.6512,-2.5974,-2.557,-2.4522,-2.361,-2.3595,-2.3595,-2.3595,-2.3595,-2.3595,-2.3595,-2.3595,-2.3595,-2.3595,-2.3595,-2.3595,-2.3693,-2.3663,-2.3663,-2.356,-2.3688,-2.3659,-2.2781,-2.257,-2.2922,-2.2937,-2.2403,-2.2381,-2.2871,-2.2922,-2.2664,-2.2962,-2.3396,-2.2842,-2.1936,-3.5759,-3.5504,-3.5489,-3.5489,-3.5489,-3.5489,-3.5489,-3.5489,-3.5489,-3.5489,-3.5489,-3.5489,-3.5489,-3.5489,-3.5489,-3.5489,-3.5579,-3.5848,-3.5938,-3.6103,-3.6582,-3.6896,-3.7045,-3.7584,-3.8197,-3.8422,-3.8781,-3.9005,-3.9095,-3.92,-3.9388,-3.9328,-3.9065,-3.8422,-3.7509,-3.7135,-3.6417,-3.5818,-3.5489,-3.5489,-3.5489,-3.5459,-3.519,-3.4563,-3.4563,-3.3799,-3.2841,-3.2706,-3.2153,-3.1765,-3.1496,-3.1496,-3.1496,-3.1496,-3.1496,-3.1496,-3.1496,-3.1481,-3.1391,-3.0913,-3.0342,-2.9684,-2.8992,-2.8513,-2.7884,-2.7585,-2.7585,-2.7585,-2.7585,-2.7585,-2.7585,-2.7585,-2.7585,-2.7585,-2.7585,-2.7585,-2.7585,-2.7585,-2.7525,-2.718,-2.6821,-2.6258,-2.56,-2.4552,-2.3759,-2.3595,-2.3595,-2.3595,-2.3595,-2.3595,-2.3595,-2.3595,-2.3595,-2.3595,-2.3595,-2.361,-2.3865,-2.394,-2.4149,-2.4075,-2.4022,-2.3696,-2.2848,-2.241,-2.2629,-2.2439,-2.1908,-2.2149,-2.26,-2.268,-2.2672,-2.2809,-2.2859,-2.2273,-2.1687,-3.54,-3.5265,-3.5429,-3.5489,-3.5489,-3.5489,-3.5489,-3.5489,-3.5489,-3.5489,-3.5489,-3.5489,-3.5489,-3.5489,-3.5489,-3.5504,-3.5534,-3.5669,-3.5744,-3.5938,-3.6237,-3.6716,-3.721,-3.7928,-3.8257,-3.8631,-3.9095,-3.9305,-3.9328,-3.9388,-3.9388,-3.9373,-3.908,-3.8467,-3.7674,-3.709,-3.6492,-3.5609,-3.5489,-3.5489,-3.5489,-3.5489,-3.522,-3.4951,-3.4741,-3.4292,-3.3095,-3.2662,-3.2228,-3.1765,-3.1496,-3.1496,-3.1496,-3.1496,-3.1496,-3.1496,-3.1496,-3.1496,-3.1421,-3.1122,-3.0731,-3.0088,-2.9325,-2.8622,-2.7809,-2.7585,-2.7585,-2.7585,-2.7585,-2.7585,-2.7585,-2.7585,-2.7585,-2.7585,-2.7585,-2.7585,-2.7585,-2.7585,-2.7555,-2.7345,-2.6986,-2.6482,-2.5704,-2.4642,-2.3984,-2.3684,-2.3595,-2.3595,-2.3595,-2.3573,-2.3595,-2.3573,-2.3573,-2.3477,-2.324,-2.3389,-2.3747,-2.4052,-2.4261,-2.4156,-2.3835,-2.3569,-2.2974,-2.271,-2.2337,-2.1932,-2.1427,-2.1873,-2.2308,-2.225,-2.2184,-2.208,-2.1919,-2.1522,-2.1785,-3.513,-3.4638,-3.5235,-3.5489,-3.5489,-3.5489,-3.5489,-3.5489,-3.5489,-3.5489,-3.5489,-3.5489,-3.5489,-3.5519,-3.5579,-3.5594,-3.5579,-3.6163,-3.6327,-3.6387,-3.6537,-3.7105,-3.7629,-3.7958,-3.8197,-3.911,-3.9358,-3.9373,-3.9343,-3.9275,-3.9313,-3.9328,-3.8901,-3.8167,-3.7389,-3.6746,-3.6267,-3.5594,-3.5489,-3.5489,-3.5489,-3.5489,-3.5429,-3.5145,-3.4352,-3.3529,-3.3365,-3.2542,-3.1854,-3.1525,-3.1496,-3.1496,-3.1496,-3.1496,-3.1496,-3.1496,-3.1496,-3.1496,-3.1436,-3.1122,-3.0627,-3.0148,-2.9415,-2.8472,-2.7705,-2.76,-2.7585,-2.7585,-2.7585,-2.7585,-2.7585,-2.7585,-2.7585,-2.7585,-2.7585,-2.7585,-2.7585,-2.7585,-2.7555,-2.7465,-2.7165,-2.6761,-2.6288,-2.533,-2.441,-2.4066,-2.361,-2.3595,-2.3588,-2.3566,-2.3588,-2.3588,-2.3573,-2.3314,-2.2776,-2.2999,-2.3503,-2.3629,-2.3724,-2.3516,-2.3199,-2.2943,-2.2951,-2.1974,-2.1426,-2.1187,-2.0934,-2.0888,-2.1025,-2.1527,-2.1757,-2.1894,-2.2243,-2.2338,-2.2731,-3.4966,-3.513,-3.54,-3.5489,-3.5489,-3.5489,-3.5489,-3.5489,-3.5489,-3.5489,-3.5489,-3.5489,-3.5489,-3.5609,-3.5983,-3.6103,-3.6133,-3.6327,-3.6671,-3.6806,-3.6881,-3.73,-3.7853,-3.8302,-3.8512,-3.9209,-3.9388,-3.9388,-3.9373,-3.914,-3.917,-3.905,-3.8631,-3.7778,-3.7015,-3.6327,-3.5804,-3.5624,-3.5489,-3.5489,-3.5489,-3.5489,-3.5489,-3.5385,-3.4696,-3.3903,-3.344,-3.2632,-3.2004,-3.1615,-3.1511,-3.1496,-3.1496,-3.1496,-3.1496,-3.1496,-3.1496,-3.1496,-3.1496,-3.1167,-3.0821,-2.9864,-2.9101,-2.8338,-2.7764,-2.76,-2.76,-2.7585,-2.7585,-2.7585,-2.7585,-2.7585,-2.7585,-2.7585,-2.7585,-2.7585,-2.7585,-2.7585,-2.7585,-2.751,-2.7375,-2.7106,-2.6647,-2.6153,-2.5247,-2.447,-2.3977,-2.3625,-2.3663,-2.3581,-2.3566,-2.3566,-2.3551,-2.3375,-2.2867,-2.3046,-2.3334,-2.3238,-2.3206,-2.2984,-2.2757,-2.2963,-2.2724,-2.1584,-2.0586,-2.0366,-2.0057,-1.9631,-2.0025,-2.1168,-2.1772,-2.2069,-2.2483,-2.292,-2.3215,-3.4831,-3.4951,-3.5325,-3.5489,-3.5489,-3.5489,-3.5489,-3.5489,-3.5489,-3.5489,-3.5489,-3.5504,-3.5639,-3.5893,-3.6222,-3.6462,-3.6432,-3.6507,-3.6746,-3.6791,-3.6791,-3.73,-3.7988,-3.8467,-3.8661,-3.9239,-3.9388,-3.9388,-3.9358,-3.8916,-3.8901,-3.8826,-3.8422,-3.7539,-3.6926,-3.5953,-3.5504,-3.5489,-3.5489,-3.5489,-3.5489,-3.5489,-3.5489,-3.54,-3.4786,-3.4144,-3.3499,-3.2781,-3.2123,-3.1705,-3.1496,-3.1496,-3.1496,-3.1496,-3.1496,-3.1496,-3.1496,-3.1496,-3.1496,-3.1391,-3.0987,-3.0118,-2.9385,-2.8652,-2.8079,-2.7735,-2.7585,-2.7585,-2.7585,-2.7585,-2.7585,-2.7585,-2.7585,-2.7585,-2.7585,-2.7585,-2.7585,-2.7585,-2.7585,-2.757,-2.7435,-2.7345,-2.7076,-2.6602,-2.5914,-2.5068,-2.4455,-2.4111,-2.4007,-2.385,-2.3545,-2.3545,-2.3545,-2.3302,-2.3039,-2.323,-2.3289,-2.2542,-2.2518,-2.2574,-2.2509,-2.2582,-2.2212,-2.1105,-2.0251,-1.9701,-1.9569,-1.9634,-2.0322,-2.1247,-2.1737,-2.2191,-2.2251,-2.2615,-2.279,-3.4726,-3.3754,-3.4981,-3.5489,-3.5444,-3.5489,-3.5489,-3.5489,-3.5489,-3.5489,-3.5489,-3.5504,-3.5804,-3.6256,-3.6372,-3.6477,-3.6492,-3.6492,-3.6611,-3.6686,-3.6641,-3.7319,-3.7973,-3.8467,-3.8736,-3.9239,-3.9388,-3.9388,-3.9388,-3.9125,-3.8931,-3.8571,-3.8138,-3.7449,-3.7255,-3.6118,-3.5534,-3.5489,-3.5489,-3.5489,-3.5489,-3.5489,-3.5489,-3.534,-3.4696,-3.4009,-3.3499,-3.2691,-3.2034,-3.1615,-3.1511,-3.1496,-3.1496,-3.1496,-3.1496,-3.1496,-3.1496,-3.1496,-3.1496,-3.1496,-3.1077,-3.0462,-2.9759,-2.9205,-2.8592,-2.8068,-2.763,-2.766,-2.7585,-2.7585,-2.7585,-2.7585,-2.7585,-2.7585,-2.7585,-2.7585,-2.7585,-2.7585,-2.7585,-2.7585,-2.7585,-2.754,-2.7345,-2.7031,-2.6422,-2.5734,-2.5023,-2.4679,-2.453,-2.435,-2.4067,-2.397,-2.3963,-2.3504,-2.3349,-2.337,-2.3171,-2.2345,-2.1944,-2.2128,-2.1796,-2.1439,-2.0946,-2.0358,-2.0049,-1.9675,-1.9746,-1.9873,-2.0706,-2.1469,-2.192,-2.2283,-2.2285,-2.2273,-2.2379,-3.4562,-3.4218,-3.513,-3.5235,-3.4953,-3.5325,-3.5489,-3.5489,-3.5489,-3.5489,-3.5489,-3.5489,-3.5579,-3.5908,-3.6312,-3.6492,-3.6492,-3.6507,-3.6582,-3.7,-3.6716,-3.733,-3.8018,-3.8437,-3.8736,-3.9245,-3.9388,-3.9328,-3.9409,-3.914,-3.908,-3.8796,-3.8212,-3.7345,-3.6417,-3.5609,-3.5504,-3.5489,-3.5489,-3.5489,-3.5504,-3.5489,-3.5489,-3.5444,-3.4487,-3.3814,-3.3455,-3.2557,-3.1869,-3.1555,-3.1496,-3.1496,-3.1496,-3.1496,-3.1496,-3.1496,-3.1496,-3.1496,-3.1496,-3.1451,-3.1167,-3.0687,-3.0253,-2.9654,-2.8757,-2.8457,-2.8079,-2.772,-2.76,-2.7585,-2.7585,-2.7585,-2.7585,-2.7585,-2.7585,-2.7585,-2.7585,-2.7585,-2.7585,-2.7585,-2.7585,-2.7585,-2.7465,-2.739,-2.6886,-2.6542,-2.5929,-2.5465,-2.527,-2.5116,-2.4898,-2.4774,-2.4602,-2.4012,-2.3664,-2.3474,-2.3127,-2.2396,-2.2013,-2.1965,-2.1451,-2.0843,-2.0414,-2.0196,-1.995,-1.9719,-1.9986,-2.0358,-2.1012,-2.1665,-2.2013,-2.2229,-2.2244,-2.2034,-2.1854,-3.4369,-3.4233,-3.4861,-3.4756,-3.4369,-3.5115,-3.5489,-3.5489,-3.5489,-3.5489,-3.5489,-3.5504,-3.5684,-3.5938,-3.6252,-3.6492,-3.6492,-3.6507,-3.6567,-3.706,-3.6971,-3.736,-3.7853,-3.8287,-3.8586,-3.899,-3.9065,-3.9035,-3.902,-3.8871,-3.8841,-3.8811,-3.8586,-3.7479,-3.6477,-3.6088,-3.6118,-3.6043,-3.5938,-3.5759,-3.5609,-3.5489,-3.5489,-3.522,-3.4562,-3.3754,-3.329,-3.2542,-3.172,-3.1585,-3.1496,-3.1496,-3.1496,-3.1496,-3.1496,-3.1496,-3.1496,-3.1496,-3.1496,-3.1496,-3.1256,-3.0957,-3.0673,-3.0013,-2.9101,-2.8727,-2.8188,-2.7839,-2.7675,-2.7645,-2.7675,-2.7675,-2.7645,-2.766,-2.766,-2.766,-2.7585,-2.7585,-2.7585,-2.7585,-2.7585,-2.7585,-2.7585,-2.757,-2.739,-2.7136,-2.6851,-2.6378,-2.5875,-2.5652,-2.5468,-2.5292,-2.4936,-2.4263,-2.3691,-2.3338,-2.2929,-2.2431,-2.2145,-2.1925,-2.1533,-2.1012,-2.0512,-2.0252,-2.0581,-2.075,-2.0555,-2.0857,-2.1465,-2.1746,-2.1867,-2.2049,-2.2147,-2.203,-2.1796,-3.4098,-3.3664,-3.4234,-3.4174,-3.3829,-3.4981,-3.5489,-3.5489,-3.5489,-3.5489,-3.5489,-3.5489,-3.5729,-3.6267,-3.6417,-3.6372,-3.6342,-3.6357,-3.6387,-3.6552,-3.6686,-3.712,-3.7479,-3.7868,-3.8108,-3.8272,-3.8392,-3.8452,-3.8482,-3.8975,-3.899,-3.8527,-3.8407,-3.7494,-3.6896,-3.6731,-3.6671,-3.6282,-3.6043,-3.5833,-3.5579,-3.5489,-3.54,-3.51,-3.4517,-3.3829,-3.3275,-3.2587,-3.2004,-3.1705,-3.1496,-3.1496,-3.1496,-3.1496,-3.1496,-3.1496,-3.1496,-3.1496,-3.1496,-3.1496,-3.1481,-3.1256,-3.0898,-3.0283,-2.9756,-2.922,-2.8771,-2.8259,-2.7974,-2.7884,-2.7824,-2.7809,-2.7779,-2.7779,-2.7779,-2.772,-2.7615,-2.7585,-2.7585,-2.7585,-2.7585,-2.7585,-2.7585,-2.7585,-2.7585,-2.7465,-2.7156,-2.6792,-2.632,-2.5869,-2.5693,-2.5545,-2.5082,-2.4372,-2.3837,-2.3281,-2.2844,-2.2347,-2.2073,-2.1824,-2.1496,-2.1299,-2.0994,-2.1005,-2.1671,-2.1788,-2.1416,-2.1463,-2.1848,-2.2017,-2.2092,-2.2078,-2.2253,-2.2243,-2.2104,-3.4367,-3.4249,-3.4414,-3.4399,-3.4369,-3.513,-3.5489,-3.5489,-3.5489,-3.5489,-3.5489,-3.5489,-3.5654,-3.5789,-3.5789,-3.5804,-3.5804,-3.5789,-3.5774,-3.5968,-3.6327,-3.6462,-3.6731,-3.7105,-3.733,-3.7584,-3.7764,-3.7958,-3.8467,-3.9065,-3.8676,-3.7898,-3.8153,-3.7494,-3.7105,-3.7075,-3.6582,-3.6163,-3.5938,-3.5774,-3.5594,-3.5489,-3.5295,-3.4891,-3.4322,-3.3679,-3.308,-3.2392,-3.1854,-3.163,-3.1525,-3.1511,-3.1496,-3.1496,-3.1496,-3.1496,-3.1496,-3.1496,-3.1496,-3.1496,-3.1496,-3.1496,-3.1256,-3.0883,-3.0417,-2.9953,-2.9535,-2.8948,-2.8498,-2.8438,-2.8483,-2.8483,-2.8289,-2.8128,-2.8109,-2.7959,-2.7824,-2.7585,-2.7585,-2.7585,-2.7585,-2.7585,-2.7585,-2.7585,-2.7585,-2.7585,-2.7385,-2.6981,-2.6649,-2.6169,-2.5725,-2.5553,-2.487,-2.4081,-2.3627,-2.3086,-2.2717,-2.2328,-2.2087,-2.1923,-2.1854,-2.1684,-2.1462,-2.1587,-2.1983,-2.2155,-2.2117,-2.2229,-2.2278,-2.2419,-2.2507,-2.2399,-2.2322,-2.2346,-2.2332,-3.4503,-3.4503,-3.4503,-3.4622,-3.4936,-3.5325,-3.5489,-3.5489,-3.5489,-3.5489,-3.5489,-3.5489,-3.5489,-3.5519,-3.5534,-3.5534,-3.5534,-3.5594,-3.5699,-3.6073,-3.6028,-3.6357,-3.6552,-3.6701,-3.7135,-3.727,-3.7315,-3.7509,-3.8212,-3.8377,-3.8078,-3.7988,-3.8108,-3.736,-3.6881,-3.6731,-3.6417,-3.5998,-3.5729,-3.5684,-3.5594,-3.5489,-3.5205,-3.4816,-3.4219,-3.3649,-3.32,-3.2557,-3.2168,-3.1944,-3.1899,-3.1735,-3.163,-3.1496,-3.1496,-3.1496,-3.1496,-3.1496,-3.1496,-3.1496,-3.1496,-3.1496,-3.1496,-3.1286,-3.0943,-3.0552,-3.0043,-2.9532,-2.925,-2.9086,-2.919,-2.922,-2.8906,-2.8592,-2.8427,-2.8263,-2.7949,-2.7645,-2.7585,-2.7585,-2.7585,-2.7585,-2.7585,-2.7585,-2.753,-2.747,-2.716,-2.6664,-2.6451,-2.6234,-2.5712,-2.536,-2.4519,-2.3673,-2.3278,-2.2923,-2.2578,-2.2325,-2.2207,-2.2099,-2.2123,-2.2072,-2.1875,-2.1917,-2.2088,-2.2263,-2.2424,-2.2548,-2.2617,-2.2724,-2.2749,-2.2644,-2.2543,-2.2525,-2.2495,-3.4459,-3.4518,-3.4563,-3.4936,-3.5444,-3.5489,-3.5489,-3.5489,-3.5489,-3.5489,-3.5489,-3.5489,-3.5489,-3.5489,-3.5489,-3.5489,-3.5489,-3.5519,-3.5714,-3.642,-3.6477,-3.6552,-3.6477,-3.6896,-3.6761,-3.6881,-3.7075,-3.724,-3.7943,-3.8153,-3.8167,-3.8287,-3.7644,-3.6926,-3.6402,-3.6342,-3.6073,-3.5729,-3.5789,-3.5908,-3.5594,-3.5489,-3.5459,-3.5235,-3.4771,-3.4339,-3.4113,-3.3694,-3.314,-3.2676,-3.2273,-3.1974,-3.1705,-3.1496,-3.1496,-3.1496,-3.1496,-3.1496,-3.1496,-3.1496,-3.1496,-3.1496,-3.1496,-3.1451,-3.1197,-3.0987,-3.0537,-3.0223,-2.9953,-2.9924,-3.0013,-2.9834,-2.9535,-2.9235,-2.9011,-2.8786,-2.8513,-2.8184,-2.7959,-2.7884,-2.7675,-2.766,-2.75,-2.7485,-2.7315,-2.7285,-2.6946,-2.6411,-2.6036,-2.5953,-2.5511,-2.4931,-2.3952,-2.3184,-2.3073,-2.2756,-2.246,-2.2258,-2.2235,-2.2235,-2.2227,-2.2259,-2.2301,-2.2326,-2.2378,-2.2538,-2.2709,-2.277,-2.2781,-2.2759,-2.2782,-2.2804,-2.2784,-2.2697,-2.263,-3.4023,-3.4563,-3.504,-3.5355,-3.5489,-3.5489,-3.5489,-3.5489,-3.5489,-3.5489,-3.5489,-3.5489,-3.5489,-3.5489,-3.5489,-3.5489,-3.5489,-3.5504,-3.5609,-3.5818,-3.6148,-3.6312,-3.5878,-3.6193,-3.6148,-3.6103,-3.6387,-3.7195,-3.7958,-3.8093,-3.7883,-3.7644,-3.7135,-3.6596,-3.5983,-3.5938,-3.5789,-3.5534,-3.5639,-3.5789,-3.5564,-3.5415,-3.5325,-3.4966,-3.4548,-3.4324,-3.3948,-3.3275,-3.2826,-3.2452,-3.1944,-3.1675,-3.1525,-3.1511,-3.1496,-3.1496,-3.1496,-3.1496,-3.1496,-3.1496,-3.1496,-3.1496,-3.1496,-3.1496,-3.1436,-3.1316,-3.1137,-3.0868,-3.0718,-3.0733,-3.0702,-3.0432,-3.0148,-2.9864,-2.9606,-2.9337,-2.9052,-2.8708,-2.8353,-2.8079,-2.7824,-2.7679,-2.7545,-2.7285,-2.713,-2.6877,-2.6564,-2.609,-2.5536,-2.5262,-2.4809,-2.4191,-2.3179,-2.2583,-2.2692,-2.2651,-2.2428,-2.2402,-2.2385,-2.2394,-2.2358,-2.2415,-2.2493,-2.2561,-2.263,-2.2792,-2.2887,-2.2968,-2.2955,-2.2876,-2.2857,-2.2887,-2.287,-2.2792,-2.2748,-3.3709,-3.4083,-3.4457,-3.4801,-3.5011,-3.5055,-3.5205,-3.5474,-3.5489,-3.5489,-3.5489,-3.5489,-3.5489,-3.5489,-3.5489,-3.5489,-3.5489,-3.5489,-3.5789,-3.5893,-3.5833,-3.6043,-3.5938,-3.5848,-3.6073,-3.6148,-3.6941,-3.7734,-3.8018,-3.8272,-3.8078,-3.7689,-3.715,-3.6507,-3.5968,-3.5893,-3.5729,-3.5534,-3.5504,-3.5474,-3.5474,-3.5367,-3.537,-3.4981,-3.4831,-3.4607,-3.4502,-3.3933,-3.3529,-3.2826,-3.2064,-3.1615,-3.1511,-3.1496,-3.1496,-3.1496,-3.1496,-3.1496,-3.1496,-3.1496,-3.1496,-3.1496,-3.1496,-3.1496,-3.1496,-3.1391,-3.1391,-3.1167,-3.1137,-3.1152,-3.1167,-3.0972,-3.0642,-3.0328,-3.0043,-2.9759,-2.937,-2.8966,-2.8453,-2.7854,-2.7809,-2.7989,-2.7614,-2.6847,-2.6778,-2.7031,-2.6609,-2.609,-2.5482,-2.4848,-2.43,-2.3706,-2.2884,-2.277,-2.3195,-2.2961,-2.2532,-2.2515,-2.2546,-2.2485,-2.2437,-2.2587,-2.2684,-2.2709,-2.2763,-2.2939,-2.3056,-2.3072,-2.3072,-2.3001,-2.2996,-2.3009,-2.2952,-2.2889,-2.2868,-3.341,-3.3484,-3.3529,-3.386,-3.4322,-3.4503,-3.4816,-3.531,-3.5459,-3.5489,-3.5489,-3.5489,-3.5489,-3.5489,-3.5489,-3.5489,-3.5489,-3.5489,-3.5863,-3.6088,-3.6193,-3.6043,-3.6073,-3.6237,-3.6222,-3.6567,-3.727,-3.7434,-3.7539,-3.7749,-3.7838,-3.7973,-3.7524,-3.6851,-3.6522,-3.6282,-3.5983,-3.5624,-3.5474,-3.5382,-3.535,-3.5335,-3.529,-3.5352,-3.5397,-3.5397,-3.5412,-3.5006,-3.4455,-3.3422,-3.2124,-3.1647,-3.1496,-3.1496,-3.1496,-3.1496,-3.1496,-3.1496,-3.1496,-3.1496,-3.1496,-3.1496,-3.1496,-3.1496,-3.1496,-3.1496,-3.1496,-3.1481,-3.1466,-3.1466,-3.1481,-3.1406,-3.1032,-3.0793,-3.0537,-3.0223,-2.9774,-2.937,-2.8753,-2.8034,-2.8034,-2.8233,-2.7558,-2.6738,-2.6649,-2.6902,-2.6693,-2.6229,-2.5692,-2.5026,-2.4426,-2.382,-2.3124,-2.3261,-2.3515,-2.3134,-2.2517,-2.2603,-2.2591,-2.2534,-2.2518,-2.2644,-2.2723,-2.2796,-2.2876,-2.3039,-2.3092,-2.3088,-2.3088,-2.3059,-2.2997,-2.2965,-2.2959,-2.293,-2.3005,-3.3021,-3.3499,-3.3499,-3.3574,-3.3754,-3.4218,-3.4593,-3.4788,-3.5235,-3.5489,-3.5429,-3.5474,-3.5489,-3.5489,-3.5489,-3.5489,-3.5489,-3.5489,-3.5504,-3.5669,-3.5818,-3.5759,-3.5774,-3.5908,-3.6088,-3.6462,-3.6851,-3.7,-3.718,-3.706,-3.6911,-3.7,-3.6372,-3.5968,-3.5863,-3.5744,-3.5726,-3.5442,-3.532,-3.5228,-3.448,-3.451,-3.4877,-3.483,-3.4693,-3.4984,-3.4909,-3.4114,-3.3547,-3.2788,-3.1945,-3.1471,-3.1365,-3.1467,-3.1496,-3.1496,-3.1496,-3.1496,-3.1496,-3.1496,-3.1496,-3.1496,-3.1496,-3.1496,-3.1496,-3.1496,-3.1496,-3.1496,-3.1481,-3.1481,-3.1496,-3.1496,-3.1256,-3.1256,-3.1092,-3.0746,-3.0328,-3.0073,-2.9684,-2.9052,-2.8588,-2.8293,-2.7649,-2.7046,-2.6693,-2.6763,-2.647,-2.6066,-2.6004,-2.529,-2.4475,-2.3925,-2.331,-2.3029,-2.3006,-2.292,-2.2534,-2.2631,-2.2658,-2.2577,-2.2602,-2.2644,-2.2749,-2.2817,-2.2943,-2.3072,-2.3095,-2.3095,-2.3069,-2.3018,-2.2955,-2.2891,-2.293,-2.2959,-2.301]},{"header":{"parameterUnit":"m.s-1","parameterCategory":1,"la1":31.0,"la2":29.5877,"lo1":-88.7671,"lo2":-86.6584,"dy":0.0162,"dx":0.0185,"nx":115,"ny":88,"refTime":"2023-06-08T00:00:00:Z","depth":0,"parameterNumber":3,"parameterNumberName":"V-component_of_WINDS"},"data":[0.0,0.0,0.0,0.0,0.0,0.0,0.0,0.0,0.0,0.0,0.0,0.0,0.0,0.0,0.0,0.0,0.0,0.0,0.0,0.0,0.0,0.0,0.0,0.0,0.0,0.0,0.0,0.0,0.0,0.0,0.0,0.0,0.0,0.0,0.0,0.0,0.0,0.0,0.0,0.0,0.0,0.0,0.0,0.0,0.0,0.0,0.0,0.0,0.0,0.0,0.0,0.0,0.0,0.0,0.0,0.0,0.0,0.0,0.0,0.0,0.0,0.0,0.0,0.0,0.0,0.0,0.0,0.0,0.0,0.0,0.0,0.0,0.0,0.0,0.0,0.0,0.0,0.0,0.0,0.0,0.0,0.0,0.0,0.0,0.0,0.0,0.0,0.0,0.0,0.0,0.0,0.0,0.0,0.0,0.0,0.0,0.0,0.0,0.0,0.0,0.0,0.0,0.0,0.0,0.0,0.0,0.0,0.0,0.0,0.0,0.0,0.0,0.0,0.0,0.0,0.0,0.0,0.0,0.0,0.0,0.0,0.0,0.0,0.0,0.0,0.0,0.0,0.0,0.0,0.0,0.0,0.0,0.0,0.0,0.0,0.0,0.0,0.0,0.0,0.0,0.0,0.0,0.0,0.0,0.0,0.0,0.0,0.0,0.0,0.0,0.0,0.0,0.0,0.0,0.0,0.0,0.0,0.0,0.0,0.0,0.0,0.0,0.0,0.0,0.0,0.0,0.0,0.0,0.0,0.0,0.0,0.0,0.0,0.0,0.0,0.0,0.0,0.0,0.0,0.0,0.0,0.0,0.0,0.0,0.0,0.0,0.0,0.0,0.0,0.0,0.0,0.0,0.0,0.0,0.0,0.0,0.0,0.0,0.0,0.0,0.0,0.0,0.0,0.0,0.0,0.0,0.0,0.0,0.0,0.0,0.0,0.0,0.0,0.0,0.0,0.0,0.0,0.0,0.0,0.0,0.0,0.0,0.0,0.0,0.0,0.0,0.0,0.0,0.0,0.0,0.0,0.0,0.0,0.0,0.0,0.0,0.0,0.0,0.0,0.0,0.0,0.0,0.0,0.0,0.0,0.0,0.0,0.0,0.0,0.0,0.0,0.0,0.0,0.0,0.0,0.0,0.0,0.0,0.0,0.0,0.0,0.0,0.0,0.0,0.0,0.0,0.0,0.0,0.0,0.0,0.0,0.0,0.0,0.0,0.0,0.0,0.0,0.0,0.0,0.0,0.0,0.0,0.0,0.0,0.0,0.0,0.0,0.0,0.0,0.0,0.0,0.0,0.0,0.0,0.0,0.0,0.0,0.0,0.0,0.0,0.0,0.0,0.0,0.0,0.0,0.0,0.0,0.0,0.0,0.0,0.0,0.0,0.0,0.0,0.0,0.0,0.0,0.0,0.0,0.0,0.0,0.0,0.0,0.0,0.0,0.0,0.0,0.0,0.0,0.0,0.0,0.0,0.0,0.0,0.0,0.0,0.0,0.0,0.0,0.0,0.0,0.0,0.0,0.0,0.0,0.0,0.0,0.0,0.0,0.0,0.0,0.0,0.0,0.0,0.0,0.0,0.0,0.0,0.0,0.0,0.0,0.0,0.0,0.0,0.0,0.0,0.0,0.0,0.0,0.0,0.0,0.0,0.0,0.0,0.0,0.0,0.0,0.0,0.0,0.0,0.0,0.0,0.0,0.0,0.0,0.0,0.0,0.0,0.0,0.0,0.0,0.0,0.0,0.0,0.0,0.0,0.0,0.0,0.0,0.0,0.0,0.0,0.0,0.0,0.0,0.0,0.0,0.0,0.0,0.0,0.0,0.0,0.0,0.0,0.0,0.0,0.0,0.0,0.0,0.0,0.0,0.0,0.0,0.0,0.0,0.0,0.0,0.0,0.0,0.0,0.0,0.0,0.0,0.0,0.0,0.0,0.0,0.0,0.0,0.0,0.0,0.0,0.0,0.0,0.0,0.0,0.0,0.0,0.0,0.0,0.0,0.0,0.0,0.0,0.0,0.0,0.0,0.0,0.0,0.0,0.0,0.0,0.0,0.0,0.0,0.0,0.0,0.0,0.0,0.0,0.0,0.0,0.0,0.0,0.0,0.0,0.0,0.0,0.0,0.0,0.0,0.0,0.0,0.0,0.0,0.0,0.0,0.0,0.0,0.0,0.0,0.0,0.0,0.0,0.0,0.0,0.0,0.0,0.0,0.0,0.0,0.0,0.0,0.0,0.0,0.0,0.0,0.0,0.0,0.0,0.0,0.0,0.0,0.0,0.0,0.0,0.0,0.0,0.0,0.0,0.0,0.0,0.0,0.0,0.0,0.0,0.0,0.0,0.0,0.0,0.0,0.0,0.0,0.0,0.0,0.0,0.0,0.0,0.0,0.0,0.0,0.0,0.0,0.0,0.0,0.0,0.0,0.0,0.0,0.0,0.0,0.0,0.0,0.0,0.0,0.0,0.0,0.0,0.0,0.0,0.0,0.0,0.0,0.0,0.0,0.0,0.0,0.0,0.0,0.0,0.0,0.0,0.0,0.0,0.0,0.0,0.0,0.0,0.0,0.0,0.0,0.0,0.0,0.0,0.0,0.0,0.0,0.0,0.0,0.0,0.0,0.0,0.0,0.0,0.0,0.0,0.0,0.0,0.0,0.0,0.0,0.0,0.0,0.0,0.0,0.0,0.0,0.0,0.0,0.0,0.0,0.0,0.0,0.0,0.0,0.0,0.0,0.0,0.0,0.0,0.0,0.0,0.0,0.0,0.0,0.0,0.0,0.0,0.0,0.0,0.0,0.0,0.0,0.0,0.0,0.0,0.0,0.0,0.0,0.0,0.0,0.0,0.0,0.0,0.0,0.0,0.0,0.0,0.0,0.0,0.0,0.0,0.0,0.0,0.0,0.0,0.0,0.0,0.0,0.0,0.0,0.0,0.0,0.0,0.0,0.0,0.0,0.0,0.0,0.0,0.0,0.0,0.0,0.0,0.0,0.0,0.0,0.0,0.0,0.0,0.0,0.0,0.0,0.0,0.0,0.0,0.0,0.0,0.0,0.0,0.0,0.0,0.0,0.0,0.0,0.0,0.0,0.0,0.0,0.0,0.0,0.0,0.0,0.0,0.0,0.0,0.0,0.0,0.0,0.0,0.0,0.0,0.0,0.0,0.0,0.0,0.0,0.0,0.0,0.0,0.0,0.0,0.0,0.0,0.0,0.0,0.0,0.0,0.0,0.0,0.0,0.0,0.0,0.0,0.0,0.0,0.0,0.0,0.0,0.0,0.0,0.0,0.0,0.0,0.0,0.0,0.0,0.0,0.0,0.0,0.0,0.0,0.0,0.0,0.0,0.0,0.0,0.0,0.0,0.0,0.0,0.0,0.0,0.0,0.0,0.0,0.0,0.0,0.0,0.0,0.0,0.0,0.0,0.0,0.0,0.0,0.0,0.0,0.0,0.0,0.0,0.0,0.0,0.0,0.0,0.0,0.0,0.0,0.0,0.0,0.0,0.0,0.0,0.0,0.0,0.0,0.0,0.0,0.0,0.0,0.0,0.0,0.0,0.0,0.0,0.0,0.0,0.0,0.0,0.0,0.0,0.0,0.0,0.0,0.0,0.0,0.0,0.0,0.0,0.0,0.0,0.0,0.0,0.0,0.0,0.0,0.0,0.0,0.0,0.0,0.0,0.0,0.0,0.0,0.0,0.0,0.0,0.0,0.0,0.0,0.0,0.0,0.0,0.0,0.0,0.0,0.0,0.0,0.0,0.0,0.0,0.0,0.0,0.0,0.0,0.0,0.0,0.0,0.0,0.0,0.0,0.0,0.0,0.0,0.0,0.0,0.0,0.0,0.0,0.0,0.0,0.0,0.0,0.0,0.0,0.0,0.0,0.0,0.0,0.0,0.0,0.0,0.0,0.0,0.0,0.0,0.0,0.0,0.0,0.0,0.0,0.0,0.0,0.0,0.0,0.0,0.0,0.0,0.0,0.0,0.0,0.0,0.0,0.0,0.0,0.0,0.0,0.0,0.0,0.0,0.0,0.0,0.0,0.0,0.0,0.0,0.0,0.0,0.0,0.0,0.0,0.0,0.0,0.0,0.0,0.0,0.0,0.0,0.0,0.0,0.0,0.0,0.0,0.0,0.0,0.0,0.0,0.0,0.0,0.0,0.0,0.0,0.0,0.0,0.0,0.0,0.0,0.0,0.0,0.0,0.0,0.0,0.0,0.0,0.0,0.0,0.0,0.0,0.0,0.0,0.0,0.0,0.0,0.0,0.0,0.0,-1.6759,0.0,0.0,0.0,0.0,0.0,0.0,0.0,0.0,0.0,0.0,0.0,0.0,0.0,0.0,0.0,0.0,0.0,0.0,0.0,0.0,0.0,0.0,0.0,0.0,0.0,0.0,0.0,0.0,0.0,0.0,0.0,0.0,0.0,0.0,0.0,0.0,0.0,0.0,0.0,0.0,0.0,0.0,0.0,0.0,0.0,0.0,0.0,0.0,0.0,0.0,0.0,0.0,0.0,0.0,0.0,0.0,0.0,0.0,0.0,0.0,0.0,0.0,0.0,0.0,0.0,0.0,0.0,0.0,0.0,0.0,0.0,0.0,0.0,0.0,0.0,0.0,0.0,0.0,0.0,0.0,0.0,0.0,0.0,0.0,0.0,0.0,0.0,0.0,0.0,0.0,0.0,0.0,0.0,0.0,0.0,0.0,0.0,0.0,0.0,0.0,0.0,0.0,0.0,0.0,0.0,0.0,0.0,0.0,0.0,0.0,-1.5968,-1.5613,-1.6891,-1.7632,-1.7703,0.0,0.0,0.0,0.0,0.0,0.0,0.0,0.0,0.0,0.0,0.0,0.0,0.0,0.0,0.0,0.0,0.0,0.0,0.0,0.0,0.0,0.0,0.0,0.0,0.0,0.0,0.0,0.0,0.0,0.0,0.0,0.0,0.0,0.0,0.0,0.0,0.0,0.0,0.0,0.0,0.0,0.0,0.0,0.0,0.0,0.0,0.0,0.0,0.0,0.0,0.0,0.0,0.0,0.0,0.0,0.0,0.0,0.0,0.0,0.0,0.0,0.0,0.0,0.0,0.0,0.0,0.0,0.0,0.0,0.0,0.0,0.0,0.0,0.0,0.0,0.0,0.0,0.0,0.0,0.0,0.0,0.0,0.0,0.0,0.0,0.0,0.0,0.0,0.0,0.0,0.0,0.0,0.0,0.0,0.0,0.0,0.0,0.0,0.0,0.0,0.0,0.0,0.0,0.0,0.0,0.0,0.0,0.0,0.0,0.0,0.0,0.0,-1.8244,-1.8916,-1.8617,0.0,0.0,0.0,0.0,0.0,0.0,0.0,0.0,0.0,0.0,0.0,0.0,0.0,0.0,0.0,0.0,0.0,0.0,0.0,0.0,0.0,0.0,0.0,0.0,0.0,0.0,0.0,0.0,0.0,0.0,0.0,0.0,0.0,0.0,0.0,0.0,0.0,0.0,0.0,0.0,0.0,0.0,0.0,0.0,0.0,0.0,0.0,0.0,0.0,0.0,0.0,0.0,0.0,0.0,0.0,0.0,0.0,0.0,0.0,0.0,0.0,0.0,0.0,0.0,0.0,0.0,0.0,0.0,0.0,0.0,0.0,0.0,0.0,0.0,0.0,0.0,0.0,0.0,0.0,0.0,0.0,0.0,0.0,0.0,0.0,0.0,0.0,0.0,0.0,0.0,0.0,0.0,0.0,0.0,0.0,0.0,0.0,0.0,0.0,0.0,0.0,0.0,0.0,0.0,0.0,0.0,0.0,0.0,0.0,0.0,-1.7248,-1.6899,-1.7884,0.0,-1.8595,0.0,0.0,0.0,0.0,0.0,0.0,0.0,0.0,0.0,0.0,0.0,0.0,0.0,0.0,0.0,0.0,0.0,0.0,0.0,0.0,0.0,0.0,0.0,0.0,0.0,0.0,0.0,0.0,0.0,0.0,0.0,0.0,0.0,0.0,0.0,0.0,0.0,0.0,0.0,0.0,0.0,0.0,0.0,0.0,0.0,0.0,0.0,0.0,0.0,0.0,0.0,0.0,0.0,0.0,0.0,0.0,0.0,0.0,0.0,0.0,0.0,0.0,0.0,0.0,0.0,0.0,0.0,0.0,0.0,0.0,0.0,0.0,0.0,0.0,0.0,0.0,0.0,0.0,0.0,0.0,0.0,0.0,0.0,0.0,0.0,0.0,0.0,0.0,0.0,0.0,0.0,0.0,0.0,0.0,0.0,0.0,0.0,0.0,0.0,0.0,0.0,0.0,0.0,0.0,0.0,0.0,0.0,0.0,0.0,0.0,-1.8906,-1.8145,-1.8865,-1.9173,0.0,0.0,0.0,0.0,0.0,0.0,0.0,0.0,0.0,0.0,0.0,0.0,0.0,0.0,0.0,0.0,0.0,0.0,0.0,0.0,0.0,0.0,0.0,0.0,0.0,0.0,0.0,0.0,0.0,0.0,0.0,0.0,0.0,0.0,0.0,0.0,0.0,0.0,0.0,0.0,0.0,0.0,0.0,0.0,0.0,0.0,0.0,0.0,0.0,0.0,0.0,0.0,0.0,0.0,0.0,0.0,0.0,0.0,0.0,0.0,0.0,0.0,0.0,0.0,0.0,0.0,0.0,0.0,0.0,0.0,0.0,0.0,0.0,0.0,0.0,0.0,0.0,0.0,0.0,0.0,0.0,0.0,0.0,0.0,0.0,0.0,0.0,0.0,0.0,0.0,0.0,0.0,0.0,0.0,0.0,0.0,0.0,0.0,0.0,0.0,0.0,0.0,0.0,0.0,0.0,0.0,0.0,0.0,0.0,0.0,-1.9638,-2.0206,-1.9502,-1.986,-1.9844,-1.9297,0.0,0.0,0.0,0.0,0.0,0.0,0.0,0.0,0.0,0.0,0.0,0.0,0.0,0.0,0.0,0.0,0.0,0.0,0.0,0.0,0.0,0.0,0.0,0.0,0.0,0.0,0.0,0.0,0.0,0.0,0.0,0.0,0.0,0.0,0.0,0.0,0.0,0.0,0.0,0.0,0.0,0.0,0.0,0.0,0.0,0.0,0.0,0.0,0.0,0.0,0.0,0.0,0.0,0.0,0.0,0.0,0.0,0.0,0.0,0.0,0.0,0.0,0.0,0.0,0.0,0.0,0.0,0.0,0.0,0.0,0.0,0.0,0.0,0.0,0.0,0.0,0.0,0.0,0.0,0.0,0.0,0.0,0.0,0.0,0.0,0.0,0.0,0.0,0.0,0.0,0.0,0.0,0.0,0.0,0.0,0.0,0.0,0.0,0.0,0.0,0.0,0.0,0.0,0.0,0.0,0.0,0.0,0.0,-1.8957,-2.004,-2.0566,-2.0518,-2.0547,-2.0184,0.0,0.0,0.0,0.0,0.0,0.0,0.0,0.0,0.0,0.0,0.0,0.0,0.0,0.0,0.0,0.0,0.0,0.0,0.0,0.0,0.0,0.0,0.0,0.0,0.0,0.0,0.0,0.0,0.0,0.0,0.0,0.0,0.0,0.0,0.0,0.0,0.0,0.0,0.0,0.0,0.0,0.0,0.0,0.0,0.0,0.0,0.0,0.0,0.0,0.0,0.0,0.0,0.0,0.0,0.0,0.0,0.0,0.0,0.0,0.0,0.0,0.0,0.0,0.0,0.0,0.0,0.0,0.0,0.0,0.0,0.0,0.0,0.0,0.0,0.0,0.0,0.0,0.0,0.0,0.0,0.0,0.0,0.0,0.0,0.0,0.0,0.0,0.0,0.0,0.0,0.0,0.0,0.0,0.0,0.0,0.0,0.0,0.0,0.0,0.0,0.0,0.0,0.0,0.0,0.0,0.0,0.0,0.0,0.0,-2.004,-2.0401,-2.0615,-2.0615,-2.0615,-2.0194,0.0,0.0,0.0,0.0,0.0,0.0,0.0,0.0,0.0,0.0,0.0,0.0,0.0,0.0,0.0,0.0,0.0,0.0,0.0,0.0,0.0,0.0,0.0,0.0,0.0,0.0,0.0,0.0,0.0,0.0,0.0,0.0,0.0,0.0,0.0,0.0,0.0,0.0,0.0,0.0,0.0,0.0,0.0,0.0,0.0,0.0,0.0,0.0,0.0,0.0,0.0,0.0,0.0,0.0,0.0,0.0,0.0,0.0,0.0,0.0,0.0,0.0,0.0,0.0,0.0,0.0,0.0,0.0,0.0,0.0,0.0,0.0,0.0,0.0,0.0,0.0,0.0,0.0,0.0,0.0,0.0,0.0,0.0,0.0,0.0,0.0,0.0,0.0,0.0,0.0,0.0,0.0,0.0,0.0,0.0,0.0,0.0,0.0,0.0,0.0,0.0,0.0,0.0,0.0,0.0,0.0,0.0,0.0,0.0,-2.0771,0.0,-2.0781,-2.0771,-2.0791,-2.0312,0.0,0.0,0.0,0.0,0.0,0.0,0.0,0.0,0.0,0.0,0.0,0.0,0.0,0.0,0.0,0.0,0.0,0.0,0.0,0.0,0.0,0.0,0.0,0.0,0.0,0.0,0.0,0.0,0.0,0.0,0.0,0.0,0.0,0.0,0.0,0.0,0.0,0.0,0.0,0.0,0.0,0.0,0.0,0.0,0.0,0.0,0.0,0.0,0.0,0.0,0.0,0.0,0.0,0.0,0.0,0.0,0.0,0.0,0.0,0.0,0.0,0.0,0.0,0.0,0.0,0.0,0.0,0.0,0.0,0.0,0.0,0.0,0.0,0.0,0.0,0.0,0.0,0.0,0.0,0.0,0.0,0.0,0.0,0.0,0.0,0.0,0.0,0.0,0.0,0.0,0.0,0.0,0.0,0.0,0.0,0.0,0.0,0.0,0.0,0.0,0.0,0.0,0.0,0.0,0.0,0.0,0.0,0.0,-2.0801,-2.1171,-2.119,-2.12,-2.119,-2.1181,-2.0576,0.0,0.0,0.0,0.0,0.0,0.0,0.0,0.0,0.0,0.0,0.0,0.0,0.0,0.0,0.0,0.0,0.0,0.0,0.0,0.0,0.0,0.0,0.0,0.0,0.0,0.0,0.0,0.0,0.0,0.0,0.0,0.0,0.0,0.0,0.0,0.0,0.0,0.0,0.0,0.0,0.0,0.0,0.0,0.0,0.0,0.0,0.0,0.0,0.0,0.0,0.0,0.0,0.0,0.0,0.0,0.0,0.0,0.0,0.0,0.0,0.0,0.0,0.0,0.0,0.0,0.0,0.0,0.0,0.0,0.0,0.0,0.0,0.0,0.0,0.0,0.0,0.0,0.0,0.0,0.0,0.0,0.0,0.0,0.0,0.0,0.0,0.0,0.0,0.0,0.0,0.0,0.0,0.0,0.0,0.0,0.0,0.0,0.0,0.0,0.0,0.0,0.0,0.0,0.0,0.0,0.0,0.0,0.0,0.0,-2.12,-2.1523,-2.1689,-2.167,-2.1346,-2.0762,0.0,0.0,0.0,0.0,0.0,0.0,0.0,0.0,0.0,0.0,0.0,0.0,0.0,0.0,0.0,0.0,0.0,0.0,0.0,0.0,0.0,0.0,0.0,0.0,0.0,0.0,0.0,0.0,0.0,0.0,0.0,0.0,0.0,0.0,0.0,0.0,0.0,0.0,0.0,0.0,0.0,0.0,0.0,0.0,0.0,0.0,0.0,0.0,0.0,0.0,0.0,0.0,0.0,0.0,0.0,0.0,0.0,0.0,0.0,0.0,0.0,0.0,0.0,0.0,0.0,0.0,0.0,0.0,0.0,0.0,0.0,0.0,0.0,0.0,0.0,0.0,0.0,0.0,0.0,0.0,0.0,0.0,0.0,0.0,0.0,0.0,0.0,0.0,0.0,0.0,0.0,0.0,0.0,0.0,0.0,0.0,0.0,0.0,0.0,0.0,0.0,0.0,0.0,0.0,0.0,0.0,0.0,0.0,0.0,-2.2646,-2.2617,-2.2588,-2.2588,-2.2021,-2.1221,-2.0195,0.0,0.0,0.0,0.0,0.0,0.0,0.0,0.0,0.0,0.0,0.0,0.0,0.0,0.0,0.0,0.0,0.0,0.0,0.0,0.0,0.0,0.0,0.0,0.0,0.0,0.0,0.0,0.0,0.0,0.0,0.0,0.0,0.0,0.0,0.0,0.0,0.0,0.0,0.0,0.0,0.0,0.0,0.0,0.0,0.0,0.0,0.0,0.0,0.0,0.0,0.0,0.0,0.0,0.0,0.0,0.0,0.0,0.0,0.0,0.0,0.0,0.0,0.0,0.0,0.0,0.0,0.0,0.0,0.0,0.0,0.0,0.0,0.0,0.0,0.0,0.0,0.0,0.0,0.0,0.0,0.0,0.0,0.0,0.0,0.0,0.0,0.0,0.0,0.0,0.0,0.0,0.0,0.0,0.0,0.0,0.0,0.0,0.0,0.0,0.0,0.0,0.0,0.0,0.0,0.0,0.0,0.0,0.0,-2.5204,-2.4434,-2.4023,-2.3926,-2.3057,-2.1973,0.0,0.0,0.0,0.0,0.0,0.0,0.0,0.0,0.0,0.0,0.0,0.0,0.0,0.0,0.0,0.0,0.0,0.0,0.0,0.0,0.0,0.0,0.0,0.0,0.0,0.0,0.0,0.0,0.0,0.0,0.0,0.0,0.0,0.0,0.0,0.0,0.0,0.0,0.0,0.0,0.0,0.0,0.0,0.0,0.0,0.0,0.0,0.0,0.0,0.0,0.0,0.0,0.0,0.0,0.0,0.0,0.0,0.0,0.0,0.0,0.0,0.0,0.0,0.0,0.0,0.0,0.0,0.0,0.0,0.0,0.0,0.0,0.0,0.0,0.0,0.0,0.0,0.0,0.0,0.0,0.0,0.0,0.0,0.0,0.0,0.0,0.0,0.0,0.0,0.0,0.0,0.0,0.0,0.0,0.0,0.0,0.0,0.0,0.0,0.0,0.0,0.0,0.0,0.0,0.0,0.0,0.0,0.0,0.0,-2.6416,-2.6894,-2.667,-2.5723,-2.4248,-2.2852,0.0,0.0,0.0,0.0,0.0,0.0,0.0,0.0,0.0,0.0,0.0,0.0,0.0,0.0,0.0,0.0,0.0,0.0,0.0,0.0,0.0,0.0,0.0,0.0,0.0,0.0,0.0,0.0,0.0,0.0,0.0,0.0,0.0,0.0,0.0,0.0,0.0,0.0,0.0,0.0,0.0,0.0,0.0,0.0,0.0,0.0,0.0,0.0,0.0,0.0,0.0,0.0,0.0,0.0,0.0,0.0,0.0,0.0,0.0,0.0,0.0,0.0,0.0,0.0,0.0,0.0,0.0,0.0,0.0,0.0,0.0,0.0,0.0,0.0,0.0,0.0,0.0,0.0,0.0,0.0,0.0,0.0,0.0,0.0,0.0,0.0,0.0,0.0,0.0,0.0,0.0,0.0,0.0,0.0,0.0,0.0,0.0,0.0,0.0,0.0,0.0,0.0,0.0,0.0,0.0,0.0,0.0,0.0,-2.5371,-2.75,-2.8213,-2.8291,-2.7734,-2.5703,-2.3926,0.0,0.0,0.0,0.0,0.0,0.0,0.0,0.0,0.0,0.0,0.0,0.0,0.0,0.0,0.0,0.0,0.0,0.0,0.0,0.0,0.0,0.0,0.0,0.0,0.0,0.0,0.0,0.0,0.0,0.0,0.0,0.0,0.0,0.0,0.0,0.0,0.0,0.0,0.0,0.0,0.0,0.0,0.0,0.0,0.0,0.0,0.0,0.0,0.0,0.0,0.0,0.0,0.0,0.0,0.0,0.0,0.0,0.0,0.0,0.0,0.0,0.0,0.0,0.0,0.0,0.0,0.0,0.0,0.0,0.0,0.0,0.0,0.0,0.0,0.0,0.0,0.0,0.0,0.0,0.0,0.0,0.0,0.0,0.0,0.0,0.0,0.0,0.0,0.0,0.0,0.0,0.0,0.0,0.0,0.0,0.0,0.0,0.0,0.0,0.0,0.0,0.0,0.0,0.0,0.0,0.0,0.0,0.0,-2.6113,-2.8242,-2.874,-2.9189,-2.9597,-2.7148,-2.5,0.0,0.0,0.0,0.0,0.0,0.0,0.0,0.0,0.0,0.0,0.0,0.0,0.0,0.0,0.0,0.0,0.0,0.0,0.0,0.0,0.0,0.0,0.0,0.0,0.0,0.0,0.0,0.0,0.0,0.0,0.0,0.0,0.0,0.0,0.0,0.0,0.0,0.0,0.0,0.0,0.0,0.0,0.0,0.0,0.0,0.0,0.0,0.0,0.0,0.0,0.0,0.0,0.0,0.0,0.0,0.0,0.0,0.0,0.0,0.0,0.0,0.0,0.0,0.0,0.0,0.0,0.0,0.0,0.0,0.0,0.0,0.0,0.0,0.0,0.0,0.0,0.0,0.0,0.0,0.0,0.0,0.0,0.0,0.0,0.0,0.0,0.0,0.0,0.0,0.0,0.0,0.0,0.0,0.0,0.0,0.0,0.0,0.0,0.0,0.0,0.0,0.0,0.0,0.0,0.0,0.0,0.0,0.0,-2.6163,-2.8242,-2.9033,-2.9639,-3.0039,-2.7578,-2.543,0.0,0.0,0.0,0.0,0.0,0.0,0.0,0.0,0.0,0.0,0.0,0.0,0.0,0.0,0.0,0.0,0.0,0.0,0.0,0.0,0.0,0.0,0.0,0.0,0.0,0.0,0.0,0.0,0.0,0.0,0.0,0.0,0.0,0.0,0.0,0.0,0.0,0.0,0.0,0.0,0.0,0.0,0.0,0.0,0.0,0.0,0.0,0.0,-1.7568,0.0,0.0,0.0,0.0,0.0,0.0,0.0,0.0,0.0,0.0,0.0,0.0,0.0,0.0,0.0,0.0,0.0,0.0,0.0,0.0,0.0,0.0,0.0,0.0,0.0,0.0,0.0,0.0,0.0,0.0,0.0,0.0,0.0,0.0,0.0,0.0,0.0,0.0,0.0,0.0,0.0,0.0,0.0,0.0,0.0,0.0,0.0,0.0,0.0,0.0,0.0,0.0,0.0,0.0,0.0,0.0,0.0,0.0,0.0,-2.6328,-2.8232,-2.8926,-2.9375,-2.9512,-2.751,-2.5664,0.0,0.0,0.0,0.0,0.0,0.0,0.0,0.0,0.0,0.0,0.0,0.0,0.0,0.0,0.0,0.0,0.0,0.0,0.0,0.0,0.0,0.0,0.0,0.0,0.0,0.0,0.0,0.0,0.0,0.0,0.0,0.0,0.0,0.0,0.0,0.0,0.0,0.0,0.0,0.0,0.0,0.0,0.0,0.0,0.0,0.0,0.0,0.0,0.0,0.0,0.0,0.0,0.0,0.0,0.0,0.0,0.0,0.0,0.0,0.0,0.0,0.0,0.0,0.0,0.0,0.0,0.0,0.0,0.0,0.0,0.0,0.0,0.0,0.0,0.0,0.0,0.0,0.0,0.0,0.0,0.0,0.0,0.0,0.0,0.0,0.0,0.0,0.0,0.0,0.0,0.0,0.0,0.0,0.0,0.0,0.0,0.0,0.0,0.0,0.0,0.0,0.0,0.0,0.0,0.0,0.0,0.0,-2.5021,-2.6572,-2.8213,-2.8643,-2.8828,-2.8799,-2.7178,-2.5674,-2.4346,0.0,0.0,0.0,0.0,0.0,0.0,0.0,0.0,0.0,0.0,0.0,0.0,0.0,0.0,0.0,0.0,0.0,0.0,0.0,0.0,0.0,0.0,0.0,0.0,0.0,0.0,0.0,0.0,0.0,0.0,0.0,0.0,0.0,0.0,0.0,0.0,0.0,0.0,-1.8144,-1.8838,0.0,0.0,0.0,0.0,0.0,0.0,0.0,0.0,-1.7773,0.0,0.0,0.0,0.0,0.0,0.0,0.0,0.0,0.0,0.0,0.0,0.0,0.0,0.0,0.0,0.0,0.0,0.0,0.0,0.0,0.0,0.0,0.0,0.0,0.0,0.0,0.0,0.0,0.0,0.0,0.0,0.0,0.0,0.0,0.0,0.0,0.0,0.0,0.0,0.0,0.0,0.0,0.0,0.0,0.0,0.0,0.0,0.0,0.0,0.0,0.0,0.0,0.0,0.0,0.0,0.0,-2.3769,-2.5078,-2.6572,-2.8242,-2.8359,-2.8398,-2.835,-2.6738,-2.5225,-2.3896,0.0,0.0,0.0,0.0,0.0,0.0,0.0,0.0,0.0,0.0,0.0,0.0,0.0,0.0,0.0,0.0,0.0,0.0,0.0,0.0,0.0,0.0,0.0,0.0,0.0,0.0,0.0,0.0,0.0,0.0,0.0,0.0,0.0,0.0,0.0,0.0,0.0,0.0,0.0,-1.9199,-1.9294,0.0,0.0,0.0,0.0,0.0,0.0,0.0,0.0,-1.8105,0.0,0.0,0.0,0.0,0.0,0.0,0.0,0.0,0.0,0.0,0.0,0.0,0.0,0.0,0.0,0.0,0.0,0.0,0.0,0.0,0.0,0.0,0.0,0.0,0.0,0.0,0.0,0.0,0.0,0.0,0.0,0.0,0.0,0.0,0.0,0.0,0.0,0.0,0.0,0.0,0.0,0.0,0.0,0.0,0.0,0.0,0.0,0.0,0.0,0.0,0.0,0.0,0.0,0.0,0.0,-2.376,-2.5031,-2.6465,-2.791,-2.8174,-2.8193,-2.7939,-2.6299,-2.4883,0.0,0.0,0.0,0.0,0.0,0.0,0.0,0.0,0.0,0.0,0.0,0.0,0.0,0.0,0.0,0.0,0.0,0.0,0.0,0.0,0.0,0.0,0.0,0.0,0.0,0.0,0.0,0.0,0.0,0.0,0.0,0.0,0.0,0.0,0.0,0.0,0.0,0.0,0.0,0.0,-2.0013,-2.0124,-1.9667,0.0,0.0,0.0,0.0,0.0,0.0,-1.8525,-1.874,0.0,0.0,0.0,0.0,0.0,0.0,0.0,0.0,0.0,0.0,0.0,0.0,0.0,0.0,0.0,0.0,0.0,0.0,0.0,0.0,0.0,0.0,0.0,0.0,0.0,0.0,0.0,0.0,0.0,0.0,0.0,0.0,0.0,0.0,0.0,0.0,0.0,0.0,0.0,0.0,0.0,0.0,0.0,0.0,0.0,0.0,0.0,0.0,0.0,0.0,0.0,0.0,0.0,0.0,0.0,-2.375,-2.4902,-2.6093,-2.7471,-2.7861,-2.7793,-2.7266,-2.5752,-2.4492,0.0,0.0,0.0,0.0,0.0,0.0,0.0,0.0,0.0,0.0,0.0,0.0,0.0,0.0,0.0,0.0,0.0,0.0,0.0,0.0,0.0,0.0,0.0,0.0,0.0,0.0,0.0,0.0,0.0,0.0,0.0,0.0,0.0,0.0,0.0,0.0,0.0,0.0,0.0,0.0,0.0,-2.1184,-2.0393,-2.0635,0.0,0.0,0.0,0.0,-1.9026,-1.9463,0.0,0.0,0.0,0.0,0.0,0.0,0.0,0.0,0.0,0.0,0.0,0.0,0.0,0.0,0.0,0.0,0.0,0.0,0.0,0.0,0.0,0.0,0.0,0.0,0.0,0.0,0.0,0.0,0.0,0.0,0.0,0.0,0.0,0.0,0.0,0.0,0.0,0.0,0.0,0.0,0.0,0.0,0.0,0.0,0.0,0.0,0.0,0.0,0.0,0.0,0.0,0.0,0.0,0.0,0.0,0.0,-2.3701,-2.4307,-2.5381,-2.6992,-2.7139,-2.6787,-2.5927,-2.5,-2.3916,0.0,0.0,0.0,0.0,0.0,0.0,0.0,0.0,0.0,0.0,0.0,0.0,0.0,0.0,0.0,0.0,0.0,0.0,0.0,0.0,0.0,0.0,0.0,0.0,0.0,0.0,0.0,0.0,0.0,0.0,0.0,0.0,0.0,0.0,0.0,0.0,0.0,0.0,0.0,0.0,0.0,-2.2241,-2.1659,-2.1718,-2.1626,0.0,0.0,-1.9961,-2.0321,-2.1035,0.0,0.0,0.0,0.0,0.0,0.0,0.0,0.0,0.0,0.0,0.0,0.0,0.0,0.0,0.0,0.0,0.0,0.0,0.0,0.0,0.0,0.0,0.0,0.0,0.0,0.0,0.0,0.0,0.0,0.0,0.0,0.0,0.0,0.0,0.0,0.0,0.0,0.0,0.0,0.0,0.0,0.0,0.0,0.0,0.0,0.0,0.0,0.0,0.0,0.0,0.0,0.0,0.0,0.0,0.0,-2.0947,-2.3008,-2.4226,-2.5491,-2.6675,-2.7212,-2.7019,-2.6124,-2.478,-2.3553,0.0,0.0,0.0,0.0,0.0,0.0,0.0,0.0,0.0,0.0,0.0,0.0,0.0,0.0,0.0,0.0,0.0,0.0,0.0,0.0,0.0,0.0,0.0,0.0,0.0,0.0,0.0,0.0,0.0,0.0,0.0,0.0,0.0,0.0,0.0,0.0,0.0,0.0,0.0,0.0,0.0,0.0,-2.1989,-2.2564,0.0,0.0,0.0,-2.1367,-2.1328,0.0,0.0,0.0,0.0,0.0,0.0,0.0,0.0,0.0,0.0,0.0,0.0,0.0,0.0,0.0,0.0,0.0,0.0,0.0,0.0,0.0,0.0,0.0,0.0,0.0,0.0,0.0,0.0,0.0,0.0,0.0,0.0,0.0,0.0,0.0,0.0,0.0,0.0,0.0,0.0,0.0,0.0,0.0,0.0,0.0,0.0,0.0,0.0,0.0,0.0,0.0,0.0,0.0,0.0,0.0,0.0,0.0,-2.2493,-2.4048,-2.527,-2.6162,-2.6904,-2.6851,-2.5935,-2.4682,0.0,0.0,0.0,0.0,0.0,0.0,0.0,0.0,0.0,0.0,0.0,0.0,0.0,0.0,0.0,0.0,0.0,0.0,0.0,0.0,0.0,0.0,0.0,0.0,0.0,0.0,0.0,-1.5777,0.0,0.0,0.0,0.0,0.0,0.0,0.0,0.0,0.0,0.0,0.0,0.0,0.0,0.0,-2.3267,-2.2774,-2.3722,-2.4126,0.0,0.0,-2.2723,-2.214,-2.1869,-2.1572,0.0,0.0,0.0,0.0,0.0,0.0,0.0,0.0,0.0,0.0,0.0,0.0,0.0,0.0,0.0,0.0,0.0,0.0,0.0,0.0,0.0,0.0,0.0,0.0,0.0,0.0,0.0,0.0,0.0,0.0,0.0,0.0,0.0,0.0,0.0,0.0,0.0,0.0,0.0,0.0,0.0,0.0,0.0,0.0,0.0,0.0,0.0,0.0,0.0,0.0,0.0,0.0,0.0,0.0,-2.0783,-2.2472,-2.3432,-2.4361,-2.5194,-2.5702,-2.5506,-2.4555,-2.4587,-2.3991,0.0,0.0,0.0,0.0,0.0,0.0,0.0,0.0,0.0,0.0,0.0,0.0,0.0,0.0,0.0,0.0,0.0,0.0,0.0,0.0,0.0,0.0,0.0,0.0,0.0,0.0,0.0,0.0,0.0,0.0,0.0,0.0,0.0,0.0,0.0,0.0,0.0,0.0,0.0,0.0,0.0,-2.4157,-2.4697,-2.5511,-2.6025,0.0,-2.4897,-2.3722,-2.2635,-2.2797,-2.2523,-2.0918,0.0,0.0,0.0,0.0,0.0,0.0,0.0,0.0,0.0,0.0,0.0,0.0,0.0,0.0,0.0,0.0,0.0,0.0,0.0,0.0,0.0,0.0,0.0,0.0,0.0,0.0,0.0,0.0,0.0,0.0,0.0,0.0,0.0,0.0,0.0,0.0,0.0,0.0,0.0,0.0,0.0,0.0,0.0,0.0,0.0,0.0,0.0,0.0,0.0,0.0,0.0,0.0,0.0,-2.1634,-2.3989,-2.4938,-2.5867,-2.6806,-2.7242,-2.7146,-2.6494,-2.5732,-2.4747,0.0,0.0,0.0,0.0,0.0,0.0,0.0,0.0,0.0,0.0,0.0,0.0,0.0,0.0,0.0,0.0,0.0,0.0,0.0,0.0,0.0,0.0,0.0,0.0,0.0,0.0,0.0,0.0,-1.6814,-1.696,-1.8014,0.0,0.0,0.0,0.0,0.0,0.0,0.0,0.0,0.0,0.0,-2.5293,-2.4825,-2.5835,0.0,0.0,-2.48,-2.4132,-2.3133,-2.2625,-2.2025,-2.1124,-2.0361,0.0,0.0,0.0,0.0,0.0,0.0,0.0,0.0,0.0,0.0,0.0,0.0,0.0,0.0,0.0,0.0,0.0,0.0,0.0,0.0,0.0,0.0,0.0,0.0,0.0,0.0,0.0,0.0,0.0,0.0,0.0,0.0,0.0,0.0,0.0,0.0,0.0,0.0,0.0,0.0,0.0,0.0,0.0,0.0,0.0,0.0,0.0,0.0,0.0,0.0,0.0,0.0,-2.2468,-2.4736,-2.5819,-2.6718,-2.7383,-2.7994,-2.7993,-2.7364,-2.6569,-2.545,0.0,0.0,0.0,0.0,0.0,0.0,0.0,0.0,0.0,0.0,0.0,0.0,0.0,0.0,0.0,0.0,0.0,0.0,0.0,0.0,0.0,0.0,0.0,0.0,0.0,0.0,0.0,0.0,-1.8043,-1.8414,-1.9011,0.0,0.0,0.0,0.0,0.0,0.0,0.0,0.0,0.0,0.0,-2.5737,-2.526,-2.626,-2.6672,-2.5739,-2.5234,-2.4766,-2.4111,-2.3047,-2.2162,-2.1729,0.0,0.0,0.0,0.0,0.0,0.0,0.0,0.0,0.0,0.0,0.0,0.0,0.0,0.0,0.0,0.0,0.0,0.0,0.0,0.0,0.0,0.0,0.0,0.0,0.0,0.0,0.0,-2.0615,0.0,0.0,-2.0615,0.0,0.0,0.0,0.0,0.0,0.0,0.0,0.0,0.0,0.0,0.0,0.0,0.0,0.0,0.0,0.0,0.0,0.0,0.0,0.0,0.0,0.0,-2.3144,-2.4154,-2.5651,-2.6341,-2.64,-2.7305,-2.738,-2.6438,-2.6812,-2.6057,-2.3987,0.0,0.0,0.0,0.0,0.0,0.0,0.0,0.0,0.0,0.0,0.0,0.0,0.0,0.0,0.0,0.0,0.0,0.0,0.0,0.0,0.0,0.0,0.0,0.0,0.0,0.0,-1.964,-1.9851,-1.9881,0.0,0.0,0.0,0.0,0.0,0.0,0.0,0.0,0.0,0.0,-2.3648,-2.5272,-2.6356,-2.6875,-2.728,-2.7766,-2.6668,-2.5745,-2.5616,-2.4386,-2.3259,0.0,0.0,0.0,0.0,0.0,0.0,0.0,0.0,0.0,0.0,0.0,0.0,0.0,0.0,0.0,0.0,0.0,0.0,0.0,0.0,0.0,0.0,0.0,0.0,0.0,0.0,0.0,-2.1002,-2.1012,0.0,0.0,0.0,0.0,0.0,0.0,0.0,0.0,0.0,0.0,0.0,-2.1204,-2.1059,0.0,0.0,0.0,0.0,0.0,0.0,0.0,0.0,0.0,0.0,0.0,0.0,-2.4596,-2.6175,-2.6698,-2.7139,-2.7496,-2.7802,-2.7815,-2.7508,-2.7334,-2.6191,-2.4045,0.0,0.0,0.0,0.0,0.0,0.0,0.0,0.0,0.0,0.0,0.0,0.0,0.0,0.0,0.0,0.0,0.0,0.0,0.0,0.0,0.0,0.0,0.0,0.0,0.0,-1.944,0.0,0.0,0.0,0.0,0.0,0.0,0.0,0.0,0.0,0.0,0.0,-2.3251,-2.3042,-2.5001,-2.6323,-2.5997,-2.698,-2.7458,0.0,0.0,0.0,0.0,0.0,0.0,0.0,0.0,0.0,0.0,0.0,0.0,0.0,0.0,-2.1916,-2.1396,-2.0549,-1.9964,-2.0128,0.0,0.0,0.0,0.0,0.0,0.0,0.0,0.0,0.0,0.0,0.0,0.0,0.0,0.0,-2.1453,0.0,-2.109,0.0,0.0,0.0,0.0,0.0,0.0,0.0,0.0,-2.1305,-2.1864,-2.2218,-2.2429,-2.3198,0.0,-2.2907,-2.2667,0.0,0.0,0.0,0.0,0.0,0.0,0.0,0.0,-2.5502,-2.6967,-2.7369,-2.7657,-2.7833,-2.8185,-2.821,-2.7821,-2.708,-2.5937,-2.4343,-2.371,-2.3058,0.0,0.0,0.0,0.0,0.0,0.0,0.0,0.0,0.0,0.0,0.0,0.0,0.0,0.0,0.0,0.0,0.0,0.0,0.0,0.0,0.0,0.0,0.0,-2.0159,0.0,0.0,0.0,0.0,0.0,0.0,0.0,0.0,0.0,-2.1859,-2.3074,-2.4053,-2.4225,-2.5648,-2.6489,-2.598,0.0,0.0,0.0,0.0,0.0,0.0,0.0,-2.4581,-2.4714,-2.3704,-2.3054,-2.3644,-2.3885,-2.4036,-2.4011,0.0,0.0,-2.2949,-2.2037,-2.144,-2.1587,-2.1893,-2.2122,-2.2155,-2.2643,-2.3315,0.0,0.0,0.0,0.0,0.0,0.0,0.0,0.0,-2.2241,-2.2088,0.0,-2.1047,0.0,0.0,0.0,0.0,0.0,-2.107,0.0,0.0,-2.272,-2.3409,-2.3075,-2.4411,-2.5421,-2.5948,-2.475,-2.4933,-2.6177,-2.2617,0.0,0.0,0.0,0.0,0.0,0.0,-2.5933,-2.6524,-2.7507,-2.7808,-2.7306,-2.8298,-2.8311,-2.7281,-2.6248,-2.5398,-2.48,-2.428,-2.3477,-2.2372,-2.2297,0.0,0.0,0.0,0.0,0.0,0.0,0.0,0.0,0.0,0.0,0.0,0.0,0.0,0.0,0.0,0.0,0.0,0.0,0.0,0.0,-2.0691,0.0,0.0,0.0,0.0,0.0,0.0,0.0,0.0,0.0,0.0,-2.3879,-2.4029,-2.4406,-2.5448,0.0,0.0,0.0,0.0,-2.5862,-2.6424,-2.6524,-2.6751,-2.7205,-2.6806,-2.6246,-2.5741,0.0,0.0,-2.4439,-2.4706,-2.5052,-2.504,-2.5352,-2.5344,-2.4439,-2.3549,-2.3063,-2.3394,-2.3511,-2.3559,-2.3637,-2.423,-2.4953,-2.4665,0.0,0.0,0.0,0.0,-2.3241,-2.3674,-2.3739,-2.401,-2.4137,-2.4082,-2.295,0.0,0.0,0.0,0.0,0.0,0.0,-2.2435,-2.2572,-2.3252,-2.4213,-2.5429,-2.5527,-2.6273,-2.7408,-2.5912,-2.5629,-2.6355,-2.455,-2.3535,-2.3418,0.0,0.0,0.0,0.0,-2.6336,-2.6524,-2.719,-2.7256,-2.6738,-2.7381,-2.7419,-2.6751,-2.6411,-2.5808,-2.4813,-2.4293,-2.3477,-2.2359,-2.1933,0.0,0.0,0.0,0.0,0.0,0.0,0.0,0.0,0.0,0.0,0.0,0.0,0.0,0.0,0.0,0.0,0.0,0.0,0.0,-2.0112,-2.0805,-2.1333,0.0,0.0,0.0,0.0,0.0,0.0,0.0,0.0,0.0,-2.4374,-2.455,-2.4833,0.0,0.0,-2.6298,-2.6474,-2.6688,-2.6763,-2.6524,-2.7165,0.0,-2.7318,-2.6573,-2.6187,-2.6746,-2.6512,-2.6145,-2.5906,-2.5948,-2.606,-2.6047,-2.6177,-2.6133,-2.5844,-2.4967,-2.4319,-2.4423,-2.4723,-2.5004,-2.5029,-2.554,-2.6047,-2.7866,-2.5906,-2.4922,-2.4389,-2.4352,-2.5207,-2.5498,-2.5361,-2.5532,-2.5483,-2.5205,-2.3674,-2.2594,-2.1865,-2.155,0.0,0.0,0.0,-2.359,-2.3446,-2.4835,-2.6056,-2.709,-2.7298,-2.7869,-2.8687,-2.7299,-2.6881,-2.7419,-2.6086,-2.5551,-2.5774,0.0,0.0,-2.5382,-2.614,-2.6487,-2.6512,-2.704,-2.7052,-2.6524,-2.6826,-2.6839,-2.6499,-2.6487,-2.6172,-2.5485,-2.4732,-2.3803,-2.2656,-2.1895,-2.1393,0.0,0.0,0.0,0.0,0.0,0.0,0.0,0.0,0.0,0.0,0.0,-2.2322,-2.2322,0.0,0.0,0.0,-2.0679,-2.0175,-1.9836,-2.0627,0.0,0.0,0.0,0.0,0.0,0.0,0.0,-2.3045,-2.3195,-2.3647,-2.4662,-2.5197,-2.5586,-2.59,-2.6084,-2.6235,-2.6461,0.0,-2.6612,-2.6512,-2.7052,-2.7379,-2.7005,-2.6459,-2.6231,-2.6536,-2.6587,-2.6311,-2.5875,-2.6009,-2.6072,-2.5896,-2.5845,-2.5845,-2.5812,-2.5259,-2.4963,-2.5385,-2.5711,-2.5959,-2.5937,-2.626,-2.6487,-3.0947,-2.9836,-2.7497,-2.6597,-2.6818,-2.7459,-2.7664,-2.7473,-2.6991,-2.6493,-2.5863,-2.377,-2.2556,-2.2074,-2.2114,0.0,-2.2324,-2.4391,-2.4816,-2.3872,-2.6958,-2.8332,-2.8266,-2.9309,-2.9779,-2.9779,-2.8693,-2.8421,-2.8775,-2.7299,-2.677,-2.7256,-2.6251,-2.5555,-2.5205,-2.6025,-2.6487,-2.6499,-2.704,-2.7042,-2.6575,-2.6524,-2.6474,-2.6424,-2.6424,-2.6373,-2.626,-2.5247,-2.4136,-2.3007,-2.1995,-2.1167,-2.0666,0.0,0.0,0.0,0.0,0.0,0.0,0.0,0.0,0.0,0.0,0.0,0.0,0.0,0.0,0.0,-2.01,0.0,-1.9798,-2.0352,0.0,0.0,0.0,-2.1769,-2.2293,-2.2347,-2.2493,-2.3045,0.0,0.0,-2.4757,-2.5674,-2.6361,-2.6361,-2.5984,-2.585,-2.6424,-2.6072,-2.5862,-2.6424,-2.6499,-2.6499,-2.6549,-2.6405,-2.6192,-2.5799,-2.6047,-2.5959,-2.5121,-2.5222,-2.531,-2.4983,-2.4813,-2.4858,-2.4813,-2.4825,-2.5134,-2.6084,-2.6336,-2.6399,-2.6436,-2.6474,-2.6461,-3.2571,-3.224,-3.1141,-2.9833,-2.8451,-2.9433,-2.9599,-2.9131,-2.9046,-2.8661,-2.8027,-2.6323,-2.4781,-2.3502,-2.3945,-2.4115,-2.4233,-2.5909,-2.6815,-2.704,-2.7806,-2.8617,-2.9386,-2.9678,-2.9779,-2.9754,-2.9049,-2.8775,-2.8863,-2.8088,-2.7551,-2.7293,-2.7017,-2.6624,-2.6164,-2.6383,-2.6487,-2.6487,-2.704,-2.7253,-2.7115,-2.6713,-2.6285,-2.5812,-2.5812,-2.5423,-2.4619,-2.3904,-2.2995,-2.1933,-2.1257,-2.0616,-2.0075,-2.0453,0.0,0.0,0.0,0.0,0.0,0.0,0.0,0.0,0.0,-2.171,-2.1681,0.0,-1.9999,0.0,-1.9899,-1.9798,-1.9798,-2.0352,0.0,0.0,-2.1794,-2.2305,-2.2844,-2.2531,-2.2523,-2.3045,-2.3333,-2.3672,-2.413,-2.4795,-2.5222,-2.5222,-2.5845,-2.6336,-2.6474,-2.6386,-2.6323,-2.6449,-2.6449,-2.6487,-2.6424,-2.6109,-2.5749,-2.5624,-2.5385,-2.5121,-2.487,-2.4908,-2.4938,-2.4845,-2.48,-2.48,-2.475,-2.48,-2.487,-2.5184,-2.5523,-2.5984,-2.6386,-2.6474,-2.6361,-3.3307,-3.3099,-3.2729,-3.1884,-3.0815,-3.1176,-3.097,-3.044,-3.0263,-2.9842,-2.9164,-2.7329,-2.598,-2.5142,-2.5407,-2.5649,-2.5949,-2.7336,-2.8,-2.8116,-2.863,-2.9209,-2.9779,-2.9779,-2.9779,-2.9779,-2.9465,-2.9302,-2.9264,-2.8499,-2.7946,-2.7632,-2.7155,-2.6801,-2.6499,-2.6487,-2.6487,-2.6487,-2.6801,-2.6952,-2.6939,-2.665,-2.621,-2.5624,-2.5586,-2.5209,-2.4393,-2.3797,-2.3095,-2.2246,-2.1468,-2.0792,-2.0251,-2.0277,-2.0553,0.0,0.0,0.0,0.0,0.0,0.0,0.0,0.0,0.0,0.0,0.0,-1.9798,-1.9798,-1.9798,-1.9899,-2.0162,-2.0503,-2.0918,-2.1458,-2.1757,-2.2171,-2.2669,-2.2498,-2.2493,-2.3032,-2.3333,-2.3609,-2.3966,-2.4449,-2.48,-2.48,-2.5347,-2.5858,-2.6072,-2.6109,-2.6109,-2.6109,-2.5908,-2.5724,-2.5724,-2.546,-2.5159,-2.4946,-2.4858,-2.4637,-2.4161,-2.428,-2.4381,-2.4098,-2.3847,-2.3672,-2.3672,-2.3459,-2.3464,-2.3948,-2.4261,-2.4795,-2.5548,-2.5724,-2.5598,-3.3633,-3.3124,-3.3124,-3.3124,-3.3074,-3.2453,-3.1938,-3.1461,-3.0934,-3.0319,-2.954,-2.7521,-2.6638,-2.6675,-2.6712,-2.6993,-2.747,-2.8537,-2.8761,-2.8404,-2.9348,-2.9779,-2.9779,-2.9779,-2.9779,-2.9779,-2.9779,-2.9779,-2.9767,-2.88,-2.8273,-2.8172,-2.718,-2.6663,-2.66,-2.6537,-2.6487,-2.6487,-2.6487,-2.6487,-2.6487,-2.6487,-2.6185,-2.5536,-2.5498,-2.5184,-2.4499,-2.4042,-2.3514,-2.2895,-2.1933,-2.1194,-2.0717,-2.0112,-2.0062,0.0,-2.0691,0.0,0.0,0.0,0.0,0.0,0.0,0.0,0.0,-2.0163,-1.9798,-1.9798,-1.9798,-2.0012,-2.0541,-2.0578,-2.0805,-2.1345,-2.1408,-2.1634,-2.2121,-2.2209,-2.2385,-2.2844,-2.3427,-2.3778,-2.3753,-2.4255,-2.4575,-2.4512,-2.4625,-2.4858,-2.5184,-2.5372,-2.5498,-2.5498,-2.5121,-2.4958,-2.4876,-2.4795,-2.4531,-2.4092,-2.4142,-2.4098,-2.3058,-2.3314,-2.3502,-2.2982,-2.2573,-2.2272,-2.2209,-2.1857,-2.187,-2.2719,-2.2932,-2.3358,-2.4512,-2.4921,-2.4763,-3.3985,-3.3136,-3.3124,-3.3124,-3.3031,-3.2453,-3.2152,-3.2014,-3.1474,-3.0432,-2.8975,-2.7656,-2.7361,-2.7789,-2.7803,-2.8074,-2.86,-2.9327,-2.9577,-2.9474,-2.9703,-2.9779,-2.9779,-2.9779,-2.9779,-2.9779,-2.9779,-2.9779,-2.9779,-2.9578,-2.9239,-2.8725,-2.8122,-2.757,-2.7153,0.0,0.0,0.0,-2.6487,-2.6487,-2.6487,-2.6487,-2.6021,-2.5008,-2.4938,0.0,-2.2844,-2.2673,-2.2372,-2.182,-2.1207,0.0,0.0,0.0,0.0,0.0,0.0,0.0,0.0,0.0,0.0,0.0,-2.0314,-2.0175,-2.0629,-2.0137,-1.9798,-1.9798,-1.9798,-1.9849,-1.9949,-1.9962,-2.0226,-2.0779,-2.0855,-2.1056,-2.1597,-2.1656,-2.1694,-2.1782,-2.2297,-2.2648,-2.2736,-2.3083,-2.3434,-2.3509,-2.3866,-2.3948,-2.3647,-2.4387,-2.4901,-2.4913,-2.4725,-2.475,-2.48,-2.4362,-2.3853,-2.3421,-2.292,-2.2585,-2.2033,-2.192,-2.1995,-2.1845,-2.1719,-2.1644,-2.1644,-2.1556,-2.1506,-2.1769,-2.1807,-2.241,-2.4349,-2.4775,-2.4695,-3.4073,0.0,-3.3124,-3.3124,0.0,-3.2767,-3.2328,-3.1763,-3.1235,-3.0382,-2.9314,-2.8735,-2.8661,-2.895,-2.8947,-2.9072,-2.9365,-2.9666,-2.9779,-2.9779,-2.9779,-2.9779,-2.9779,-2.9779,-2.9779,-2.9779,-2.9503,-2.9515,-2.9754,-2.9227,-2.8812,-2.8524,-2.8235,-2.7695,-2.6927,-2.6625,-2.6487,-2.6487,-2.6487,-2.6487,-2.6487,-2.6487,-2.5937,-2.485,-2.48,0.0,0.0,0.0,0.0,0.0,0.0,0.0,0.0,-2.0125,0.0,-2.0239,-2.0238,-2.039,-2.0627,-2.0401,-2.0264,-2.0264,-1.9962,-1.9924,-2.0239,-1.9962,-1.9798,-1.9798,-1.9798,-1.9911,-2.0226,-2.0264,-2.0478,-2.1018,-2.1106,-2.1219,-2.143,-2.1481,-2.1606,-2.1832,-2.1895,-2.2083,-2.2631,-2.2656,-2.2832,-2.307,-2.3346,-2.3434,-2.3208,-2.3584,-2.3873,-2.3609,-2.3559,-2.3577,-2.354,-2.3113,-2.2698,-2.2347,-2.2096,-2.1832,-2.1571,-2.1481,-2.1481,-2.1468,-2.1307,-2.1106,-2.1081,-2.0865,-2.0767,-2.1018,-2.1106,-2.1481,-2.2912,-2.3389,-2.3484,-3.4073,-3.3136,-3.3124,-3.3124,-3.3111,-3.2968,-3.2332,-3.121,0.0,0.0,0.0,-2.9779,-2.9779,-2.9779,-2.9779,-2.9779,-2.9779,-2.9779,-2.9779,-2.9779,-2.9779,-2.9779,-2.9779,-2.9779,-2.9779,-2.9767,-2.9302,-2.9315,-2.9741,-2.885,-2.8398,-2.8398,-2.8298,-2.7745,-2.6839,-2.6688,-2.6637,-2.6637,-2.6537,-2.6487,-2.6487,-2.6487,-2.6021,-2.4951,-2.4926,-2.4412,-2.3296,-2.2849,-2.256,-2.2435,-2.1506,-2.0943,-2.083,-2.0263,-1.9911,-1.9811,-1.9798,-1.9798,-1.9798,-1.9798,-1.9798,-1.9798,-1.9798,-1.9798,-1.9798,-1.9798,-1.9798,-1.9798,-1.9798,-1.9999,-2.049,-2.0541,-2.0729,-2.1142,-2.1179,-2.1194,-2.1179,-2.1192,-2.1305,-2.1744,-2.1506,-2.1669,-2.2472,-2.2447,-2.2431,-2.2844,-2.2945,-2.2844,-2.2744,-2.2819,-2.2882,-2.256,-2.2435,-2.2234,-2.2121,-2.1907,-2.1481,-2.1446,-2.1383,-2.1345,-2.1217,-2.1179,-2.1192,-2.1091,-2.079,-2.0591,-2.0503,-2.0175,-1.9987,-2.044,-2.0541,-2.0679,-2.1119,-2.1571,-2.1977,-3.4073,-3.3124,-3.3124,-3.3124,-3.3031,-3.2541,-3.1725,-3.0696,-3.0156,-2.9867,-2.9779,-2.9779,-2.9779,-2.9779,-2.9779,-2.9779,-2.9779,-2.9779,-2.9779,-2.9779,-2.9779,-2.9779,-2.9779,-2.9779,-2.9779,-2.9779,-2.9704,-2.9716,-2.9767,-2.9616,-2.9566,-2.9465,-2.9063,-2.8486,-2.7883,-2.7406,-2.7168,-2.7155,-2.6738,-2.6487,-2.6487,-2.6487,-2.6185,-2.5536,-2.5473,-2.4983,-2.3916,-2.3778,-2.3527,-2.2995,-2.238,-2.187,-2.1393,-2.0855,-2.0339,-1.9849,-1.9798,-1.9798,-1.9798,-1.9798,-1.9798,-1.9798,-1.9798,-1.9798,-1.9798,-1.9798,-1.9798,-1.9798,-1.9798,-1.9823,-1.9924,-1.9949,-1.9999,-2.0062,-2.0062,-2.0049,-2.01,-2.0112,-2.0175,-2.0313,-2.0552,-2.0855,-2.1219,-2.1782,-2.2217,-2.2385,-2.2393,-2.2133,-2.1597,-2.1832,-2.2305,-2.2259,-2.1895,-2.1644,-2.1581,-2.1556,-2.1257,-2.088,-2.0805,-2.0666,-2.025,-2.0188,-2.0188,-2.0075,-2.0049,-1.9987,-1.9949,-1.9874,-1.9861,-1.9987,-2.0025,-2.0037,-2.0189,-2.0408,-2.0766,-3.4248,-3.352,-3.3206,-3.3124,-3.3031,-3.2453,-3.1763,-3.1009,-3.0457,-3.0068,-2.9792,-2.9779,-2.9779,-2.9779,-2.9779,-2.9779,-2.9779,-2.9779,-2.9779,-2.9779,-2.9779,-2.9779,-2.9779,-2.9779,-2.9779,-2.9754,-2.9164,-2.9038,-2.9277,-2.9026,-2.8875,-2.8863,-2.8599,-2.8499,-2.8486,-2.7708,-2.7329,-2.7304,-2.6776,-2.6487,-2.6487,-2.6487,-2.621,-2.5611,-2.5586,-2.5234,-2.4469,-2.381,-2.3384,-2.312,-2.2322,-2.1744,-2.1493,-2.0993,-2.0566,-2.03,-2.0302,-2.0151,-1.9823,-1.9798,-1.9798,-1.9798,-1.9798,-1.9798,-1.9798,-1.9798,-1.9798,-1.9798,-1.9798,-1.9798,-1.9798,-1.9798,-1.9798,-1.9798,-1.9798,-1.9798,-1.9798,-1.9798,-1.9936,-2.0188,-2.0239,-2.0453,-2.1069,-2.132,-2.1556,-2.1782,-2.1857,-2.1631,-2.1169,-2.127,-2.143,-2.1421,-2.1245,-2.1094,-2.1056,-2.0752,-2.0515,-2.0251,-2.0226,-2.01,-1.9836,-1.9798,-1.9798,-1.9798,-1.9798,-1.9798,-1.9798,-1.9798,-1.9798,-1.9798,-1.9798,-1.9798,-1.9811,-1.9775,-2.0118,-3.4512,-3.3859,-3.3445,-3.3194,-3.3061,-3.2453,-3.1901,-3.1361,-3.0834,-3.0306,-2.9829,-2.9779,-2.9779,-2.9779,-2.9779,-2.9779,-2.9779,-2.9779,-2.9779,-2.9779,-2.9779,-2.9779,-2.9779,-2.9779,-2.9779,-2.9704,-2.89,-2.8712,-2.9038,-2.8699,-2.8486,-2.8486,-2.8486,-2.8712,-2.9089,-2.8134,-2.7657,-2.762,-2.7027,-2.6625,-2.6499,-2.6487,-2.6273,-2.5837,-2.5833,-2.5548,-2.4996,-2.4136,-2.3609,-2.3446,-2.2573,-2.1995,-2.1845,-2.137,-2.1006,-2.0905,-2.088,-2.0665,-2.0225,-2.0062,-1.9999,-1.9987,-1.9874,-1.9798,-1.9798,-1.9798,-1.9798,-1.9798,-1.9798,-1.9798,-1.9798,-1.9798,-1.9798,-1.9798,-1.9798,-1.9798,-1.9798,-1.9798,-1.9962,-2.0365,-2.0062,-2.0162,-2.0803,-2.0893,-2.0905,-2.1217,-2.1333,-2.1295,-2.1104,-2.0754,-2.0528,-2.0503,-2.0503,-2.049,-2.0465,-2.015,-1.9874,-1.9798,-1.9823,-1.9836,-1.9798,-1.9798,-1.9798,-1.9798,-1.9798,-1.9798,-1.9798,-1.9798,-1.9798,-1.9798,-1.9798,-1.9786,-1.9687,-1.9509,-1.9683,-3.4793,-3.3972,-3.3822,-3.352,-3.3048,-3.2453,-3.1876,-3.1336,-3.0846,-3.0306,-2.9804,-2.9779,-2.9779,-2.9779,-2.9779,-2.9779,-2.9779,-2.9779,-2.9779,-2.9779,-2.9779,-2.9779,-2.9779,-2.9779,-2.9779,-2.9767,-2.9578,-2.9453,-2.9503,-2.9553,-2.9603,-2.9641,-2.9628,-2.9616,-2.9616,-2.9026,-2.875,-2.8712,-2.7745,-2.7002,-2.6524,-2.6487,-2.6461,-2.6424,-2.6399,-2.6147,-2.5548,-2.5423,-2.5146,-2.465,-2.4054,-2.3471,-2.297,-2.246,-2.1933,-2.1468,-2.1433,-2.1368,-2.1292,-2.0893,-2.0603,-2.0578,-2.01,-1.9836,-1.9836,-1.9823,-1.9811,-1.9849,-1.9836,-1.9798,-1.9798,-1.9798,-1.9798,-1.9798,-1.9798,-1.9798,-1.9798,-1.9798,-1.9823,-1.9861,-1.9849,-1.9861,-2.0075,-2.0402,-2.0666,-2.0742,-2.0767,-2.0629,-2.0225,-2.0062,-1.9962,-1.9924,-1.9899,-1.9924,-1.9924,-1.9874,-1.9798,-1.9798,-1.9798,-1.9798,-1.9798,-1.9798,-1.9798,-1.9798,-1.9798,-1.9798,-1.9798,-1.9798,-1.9798,-1.9798,-1.9786,-1.9724,-1.9457,-1.9329,-1.9632,-3.4756,-3.4324,-3.3684,-3.3081,-3.2528,-3.1964,-3.1424,-3.0922,-3.0708,-3.0306,-2.9829,-2.9779,-2.9779,-2.9779,-2.9779,-2.9779,-2.9779,-2.9779,-2.9779,-2.9779,-2.9779,-2.9779,-2.9779,-2.9779,-2.9628,-2.9264,-2.8963,-2.8624,-2.8411,-2.8637,-2.9126,-2.9729,-2.9779,-2.9779,-2.9754,-2.9214,-2.8888,-2.8863,-2.816,-2.7507,-2.7002,-2.6663,-2.6487,-2.6487,-2.6487,-2.6399,-2.6135,-2.5787,-2.5498,-2.5247,-2.4469,-2.3891,-2.3653,-2.2769,-2.2209,-2.1983,-2.1656,-2.1631,-2.1945,-2.1468,-2.1031,-2.0717,-2.0478,-2.0352,-2.0327,-2.0313,-2.0465,-2.0665,-2.02,-1.9798,-1.9811,-1.9798,-1.9798,-1.9798,-1.9798,-1.9798,-1.9798,-1.9798,-1.9798,-1.9798,-1.9798,-1.9798,-1.9823,-1.9999,-2.015,-2.015,-2.0162,-2.0062,-1.9823,-1.9798,-1.9798,-1.9798,-1.9798,-1.9798,-1.9798,-1.9798,-1.9798,-1.9798,-1.9798,-1.9798,-1.9798,-1.9798,-1.9798,-1.9798,-1.9798,-1.9798,-1.9798,-1.9798,-1.9798,-1.9799,-1.9798,-1.9749,-1.9611,-1.9457,-1.9441,-3.4625,-3.4336,-3.3294,-3.2604,-3.2177,-3.1625,-3.1097,-3.0645,-3.062,-3.0306,-2.9804,-2.9779,-2.9779,-2.9779,-2.9779,-2.9779,-2.9779,-2.9779,-2.9779,-2.9779,-2.9779,-2.9779,-2.9779,-2.9779,-2.9578,-2.9101,-2.8624,-2.8147,-2.7833,-2.8298,-2.8988,-2.9691,-2.9779,-2.9779,-2.9754,-2.9352,-2.9164,-2.9088,-2.8612,-2.8134,-2.7708,-2.709,-2.665,-2.6512,-2.6487,-2.6487,-2.6487,-2.6097,-2.5837,-2.5812,-2.4933,-2.4368,-2.4205,-2.3301,-2.2711,-2.2535,-2.2171,-2.2108,-2.2481,-2.202,-2.1543,-2.1194,-2.1031,-2.0918,-2.0918,-2.0918,-2.1094,-2.133,-2.074,-2.0263,-2.0037,-1.9899,-1.9798,-1.9798,-1.9798,-1.9798,-1.9798,-1.9798,-1.9798,-1.9798,-1.9798,-1.9798,-1.9798,-1.9823,-1.9849,-1.9836,-1.9823,-1.9798,-1.9798,-1.9798,-1.9798,-1.9798,-1.9798,-1.9798,-1.9798,-1.9798,-1.9798,-1.9798,-1.9798,-1.9798,-1.9798,-1.9798,-1.9798,-1.9798,-1.9798,-1.9798,-1.9798,-1.9798,-1.9736,-1.9699,-1.9724,-1.9736,-1.9586,-1.9471,-1.93,-3.4424,-3.3809,-3.2717,-3.2215,-3.2152,-3.1574,-3.106,-3.0557,-3.0583,-3.0294,-2.9817,-2.9779,-2.9779,-2.9779,-2.9779,-2.9779,-2.9779,-2.9779,-2.9779,-2.9779,-2.9779,-2.9779,-2.9779,-2.9779,-2.9767,-2.9566,-2.9038,-2.8775,-2.8812,-2.9365,-2.9741,-2.9779,-2.9779,-2.9779,-2.9779,-2.9729,-2.9729,-2.9628,-2.9176,-2.8813,-2.8662,-2.777,-2.704,-2.6587,-2.6499,-2.6487,-2.6487,-2.6474,-2.6436,-2.6449,-2.5787,-2.5272,-2.4763,-2.4205,-2.3615,-2.312,-2.3007,-2.2995,-2.2957,-2.2543,-2.2221,-2.2133,-2.1694,-2.1443,-2.1455,-2.1455,-2.1518,-2.1518,-2.1468,-2.1167,-2.0691,-2.0188,-1.9861,-1.9798,-1.9798,-1.9798,-1.9798,-1.9798,-1.9798,-1.9798,-1.9798,-1.9798,-1.9798,-1.9798,-1.9798,-1.9798,-1.9798,-1.9798,-1.9798,-1.9798,-1.9798,-1.9798,-1.9798,-1.9798,-1.9798,-1.9798,-1.9798,-1.9798,-1.9798,-1.9798,-1.9798,-1.9798,-1.9798,-1.9798,-1.9798,-1.9798,-1.9798,-1.9749,-1.9649,-1.9623,-1.9649,-1.9636,-1.9459,-1.9649,-1.943,-3.4186,-3.3269,-3.2152,-3.1687,-3.1587,-3.0746,-3.0256,-3.0093,-3.0093,-2.998,-2.9817,-2.9779,-2.9779,-2.9779,-2.9779,-2.9779,-2.9779,-2.9779,-2.9779,-2.9779,-2.9779,-2.9779,-2.9779,-2.9779,-2.9578,-2.9239,-2.9026,-2.8888,-2.89,-2.9113,-2.9428,-2.9741,-2.9779,-2.9779,-2.9779,-2.9779,-2.9779,-2.9767,-2.9566,-2.9315,-2.8875,-2.8185,-2.758,-2.704,-2.6675,-2.6487,-2.6487,-2.6487,-2.6487,-2.6487,-2.59,-2.5523,-2.5259,-2.4481,-2.374,-2.3183,-2.3095,-2.3095,-2.3083,-2.292,-2.2644,-2.2305,-2.2133,-2.2008,-2.202,-2.202,-2.2146,-2.2355,-2.2155,-2.1782,-2.1257,-2.0704,-2.0226,-1.9874,-1.9798,-1.9798,-1.9798,-1.9798,-1.9798,-1.9798,-1.9798,-1.9798,-1.9798,-1.9798,-1.9798,-1.9798,-1.9798,-1.9798,-1.9798,-1.9798,-1.9798,-1.9798,-1.9798,-1.9798,-1.9798,-1.9798,-1.9798,-1.9798,-1.9798,-1.9798,-1.9798,-1.9798,-1.9798,-1.9798,-1.9798,-1.9798,-1.9798,-1.9811,-1.9686,-1.9636,-1.9661,-1.956,-1.9329,-1.9406,-1.9124,-3.3658,-3.2717,-3.1775,-3.1286,-3.1035,-3.0181,-2.9779,-2.9779,-2.9779,-2.9779,-2.9779,-2.9779,-2.9779,-2.9779,-2.9779,-2.9779,-2.9779,-2.9779,-2.9779,-2.9779,-2.9779,-2.9779,-2.9779,-2.9779,-2.9591,-2.9226,-2.9202,-2.9088,-2.8938,-2.9088,-2.9415,-2.9767,-2.9779,-2.9779,-2.9779,-2.9779,-2.9779,-2.9779,-2.9779,-2.9591,-2.9176,-2.8662,-2.8097,-2.7557,-2.704,-2.6675,-2.6512,-2.6487,-2.6487,-2.6436,-2.6109,-2.5711,-2.531,-2.4494,-2.374,-2.3195,-2.3095,-2.3095,-2.3095,-2.3095,-2.2932,-2.2594,-2.2543,-2.2585,-2.2543,-2.2543,-2.2757,-2.2932,-2.2794,-2.228,-2.1619,-2.1169,-2.0654,-1.9987,-1.9798,-1.9798,-1.9798,-1.9798,-1.9798,-1.9798,-1.9798,-1.9798,-1.9798,-1.9798,-1.9798,-1.9798,-1.9798,-1.9798,-1.9798,-1.9798,-1.9798,-1.9798,-1.9798,-1.9798,-1.9798,-1.9798,-1.9798,-1.9798,-1.9798,-1.9798,-1.9798,-1.9798,-1.9798,-1.9798,-1.9798,-1.9798,-1.9798,-1.9798,-1.9749,-1.9686,-1.9649,-1.9548,-1.9341,-1.9149,-1.8923,-3.278,-3.2252,-3.1637,-3.116,-3.0721,-3.0181,-2.9842,-2.9804,-2.9829,-2.9854,-2.9804,-2.9779,-2.9779,-2.9779,-2.9779,-2.9779,-2.9779,-2.9779,-2.9779,-2.9779,-2.9779,-2.9779,-2.9779,-2.9779,-2.9779,-2.9704,-2.9754,-2.9478,-2.9013,-2.9465,-2.9741,-2.9779,-2.9779,-2.9779,-2.9779,-2.9779,-2.9779,-2.9779,-2.9779,-2.9767,-2.9704,-2.9164,-2.8586,-2.8059,-2.7519,-2.7002,-2.6512,-2.6487,-2.6487,-2.6487,-2.6474,-2.5925,-2.4983,-2.4305,-2.374,-2.3221,-2.3095,-2.3095,-2.3095,-2.3095,-2.3095,-2.3007,-2.3058,-2.3007,-2.2995,-2.302,-2.3058,-2.307,-2.302,-2.2631,-2.1732,-2.143,-2.1006,-2.0024,-1.9798,-1.9798,-1.9798,-1.9798,-1.9798,-1.9798,-1.9798,-1.9798,-1.9798,-1.9798,-1.9798,-1.9798,-1.9798,-1.9798,-1.9798,-1.9798,-1.9798,-1.9798,-1.9798,-1.9798,-1.9798,-1.9798,-1.9798,-1.9798,-1.9798,-1.9798,-1.9798,-1.9798,-1.9798,-1.9798,-1.9798,-1.9798,-1.9798,-1.9799,-1.9712,-1.9636,-1.9611,-1.9509,-1.923,-1.8993,-1.8884,-3.2968,-3.2742,-3.219,-3.165,-3.116,-3.0959,-3.0495,-2.988,-3.0181,-3.0143,-2.9842,-2.9779,-2.9779,-2.9779,-2.9779,-2.9779,-2.9779,-2.9779,-2.9779,-2.9779,-2.9779,-2.9779,-2.9779,-2.9779,-2.9779,-2.9779,-2.9779,-2.9716,-2.9591,-2.9704,-2.9779,-2.9779,-2.9779,-2.9779,-2.9779,-2.9779,-2.9779,-2.9779,-2.9779,-2.9779,-2.9741,-2.9239,-2.8637,-2.8109,-2.757,-2.7065,-2.6537,-2.6487,-2.6487,-2.6487,-2.6487,-2.5963,-2.4971,-2.4293,-2.374,-2.3195,-2.3095,-2.3095,-2.3095,-2.3095,-2.3095,-2.3095,-2.3095,-2.3095,-2.3095,-2.3095,-2.3095,-2.3095,-2.3083,-2.2656,-2.1769,-2.1481,-2.0991,-1.9924,-1.9798,-1.9798,-1.9798,-1.9798,-1.9798,-1.9798,-1.9798,-1.9798,-1.9798,-1.9798,-1.9798,-1.9798,-1.9798,-1.9798,-1.9798,-1.9798,-1.9798,-1.9798,-1.9798,-1.9798,-1.9798,-1.9798,-1.9798,-1.9798,-1.9798,-1.9798,-1.9798,-1.9798,-1.9798,-1.9798,-1.9798,-1.9798,-1.9798,-1.9774,-1.9699,-1.9598,-1.9586,-1.9339,-1.9006,-1.8865,-1.8852,-3.2955,-3.2717,-3.2365,-3.1901,-3.1411,-3.1386,-3.1022,-3.0444,-3.0545,-3.0419,-3.0105,-2.988,-2.9779,-2.9779,-2.9779,-2.9779,-2.9779,-2.9779,-2.9779,-2.9779,-2.9779,-2.9779,-2.9779,-2.9779,-2.9779,-2.9779,-2.9779,-2.9779,-2.9779,-2.9779,-2.9779,-2.9779,-2.9779,-2.9779,-2.9779,-2.9779,-2.9779,-2.9779,-2.9779,-2.9779,-2.9716,-2.944,-2.8888,-2.8185,-2.777,-2.7241,-2.6575,-2.6487,-2.6487,-2.6487,-2.6487,-2.6047,-2.5159,-2.4575,-2.4054,-2.3521,-2.3221,-2.3095,-2.3095,-2.3095,-2.3095,-2.3095,-2.3095,-2.3095,-2.3095,-2.3095,-2.3095,-2.3095,-2.3095,-2.2656,-2.1732,-2.1481,-2.0978,-1.9924,-1.9798,-1.9798,-1.9798,-1.9798,-1.9798,-1.9798,-1.9798,-1.9798,-1.9798,-1.9798,-1.9798,-1.9798,-1.9798,-1.9798,-1.9798,-1.9798,-1.9798,-1.9798,-1.9798,-1.9798,-1.9798,-1.9798,-1.9798,-1.9798,-1.9798,-1.9798,-1.9798,-1.9798,-1.9798,-1.9798,-1.9798,-1.9798,-1.9798,-1.9798,-1.9749,-1.9661,-1.9573,-1.9352,-1.9132,-1.8986,-1.8903,-3.2742,-3.224,-3.2202,-3.1863,-3.1361,-3.1411,-3.1361,-3.1198,-3.0972,-3.0721,-3.0507,-3.0105,-2.9842,-2.9804,-2.9779,-2.9779,-2.9779,-2.9779,-2.9779,-2.9779,-2.9779,-2.9779,-2.9779,-2.9779,-2.9779,-2.9779,-2.9779,-2.9779,-2.9779,-2.9779,-2.9779,-2.9779,-2.9779,-2.9779,-2.9779,-2.9779,-2.9779,-2.9779,-2.9779,-2.9779,-2.9779,-2.9767,-2.9264,-2.826,-2.8084,-2.7582,-2.6788,-2.6537,-2.6487,-2.6487,-2.6424,-2.6109,-2.5586,-2.5096,-2.4474,-2.3954,-2.3434,-2.3195,-2.3133,-2.3095,-2.3095,-2.3095,-2.3095,-2.3095,-2.3095,-2.3095,-2.3095,-2.3095,-2.3095,-2.2656,-2.1769,-2.1481,-2.0953,-2.0049,-1.9798,-1.9798,-1.9798,-1.9798,-1.9798,-1.9798,-1.9798,-1.9798,-1.9798,-1.9798,-1.9798,-1.9798,-1.9798,-1.9798,-1.9798,-1.9798,-1.9798,-1.9798,-1.9798,-1.9798,-1.9798,-1.9798,-1.9798,-1.9798,-1.9798,-1.9798,-1.9798,-1.9798,-1.9798,-1.9798,-1.9798,-1.9798,-1.9798,-1.9798,-1.9798,-1.9749,-1.9623,-1.9443,-1.9243,-1.9001,-1.8744,-3.2742,-3.2227,-3.2202,-3.1675,-3.1009,-3.1625,-3.1537,-3.0984,-3.1524,-3.1235,-3.0721,-3.0482,-3.0156,-2.9817,-2.9804,-2.9779,-2.9779,-2.9779,-2.9779,-2.9779,-2.9779,-2.9779,-2.9779,-2.9779,-2.9779,-2.9779,-2.9779,-2.9779,-2.9779,-2.9792,-2.9792,-2.9779,-2.9792,-2.9779,-2.9779,-2.9779,-2.9779,-2.9779,-2.9779,-2.9779,-2.9779,-2.9779,-2.9453,-2.875,-2.8335,-2.7783,-2.7128,-2.67,-2.6487,-2.6449,-2.6059,-2.5774,-2.5611,-2.5146,-2.4644,-2.4155,-2.3866,-2.3534,-2.3208,-2.3108,-2.3108,-2.3095,-2.3095,-2.3095,-2.3095,-2.3095,-2.3095,-2.3095,-2.3083,-2.2656,-2.1757,-2.1443,-2.093,-2.0049,-1.9798,-1.9798,-1.9798,-1.9798,-1.9798,-1.9798,-1.9798,-1.9798,-1.9798,-1.9798,-1.9798,-1.9798,-1.9798,-1.9798,-1.9798,-1.9798,-1.9798,-1.9798,-1.9798,-1.9798,-1.9798,-1.9798,-1.9798,-1.9798,-1.9798,-1.9798,-1.9798,-1.9798,-1.9798,-1.9798,-1.9798,-1.9798,-1.9798,-1.9798,-1.9798,-1.9736,-1.9521,-1.9285,-1.9006,-1.875,-1.8491,-3.2742,-3.2198,-3.2466,-3.1951,-3.111,-3.1851,-3.1725,-3.1122,-3.1311,-3.1361,-3.0934,-3.0696,-3.0405,-3.0168,-3.0143,-2.9993,-2.9804,-2.9779,-2.9779,-2.9779,-2.9779,-2.9779,-2.9779,-2.9779,-2.9779,-2.9779,-2.9792,-2.993,-3.0055,-2.9917,-2.9905,-3.0055,-2.9892,-2.9792,-2.9779,-2.9779,-2.9779,-2.9779,-2.9779,-2.9779,-2.9779,-2.9779,-2.9478,-2.8976,-2.8537,-2.8122,-2.7392,-2.6788,-2.6487,-2.6424,-2.6172,-2.5984,-2.5946,-2.5448,-2.5008,-2.4657,-2.428,-2.3828,-2.3509,-2.3258,-2.3108,-2.3095,-2.3095,-2.3095,-2.3095,-2.3095,-2.3095,-2.3095,-2.3095,-2.2573,-2.1681,-2.1091,-2.0514,-1.9936,-1.9798,-1.9798,-1.9798,-1.9798,-1.9798,-1.9798,-1.9798,-1.9798,-1.9798,-1.9811,-1.9811,-1.9798,-1.9798,-1.9798,-1.9798,-1.9798,-1.9798,-1.9798,-1.9798,-1.9798,-1.9798,-1.9798,-1.9798,-1.9798,-1.9798,-1.9798,-1.9798,-1.9798,-1.9798,-1.9798,-1.9798,-1.9799,-1.9761,-1.9712,-1.9573,-1.9457,-1.9274,-1.9068,-1.878,-1.8756,-1.845,-3.2704,-3.2164,-3.2679,-3.229,-3.1411,-3.1813,-3.1712,-3.1348,-3.1009,-3.0984,-3.1072,-3.0796,-3.052,-3.0545,-3.0319,-3.0231,-2.9792,-2.9779,-2.9779,-2.9779,-2.9779,-2.9779,-2.9779,-2.9779,-2.9779,-2.9817,-2.9817,-3.0068,-3.0231,-3.0005,-3.0105,-3.0218,-2.9955,-2.9817,-2.9779,-2.9779,-2.9779,-2.9779,-2.9779,-2.9779,-2.9779,-2.9767,-2.9553,-2.9189,-2.8725,-2.821,-2.7442,-2.6813,-2.6487,-2.6487,-2.6487,-2.6436,-2.6386,-2.5946,-2.5624,-2.536,-2.4657,-2.4104,-2.3891,-2.3396,-2.3095,-2.3095,-2.3095,-2.3095,-2.3095,-2.3095,-2.3095,-2.3095,-2.3095,-2.2585,-2.1606,-2.0539,-1.9987,-1.9798,-1.9798,-1.9798,-1.9798,-1.9798,-1.9811,-1.9886,-1.9899,-1.9899,-1.9886,-1.9886,-1.9886,-1.9798,-1.9798,-1.9798,-1.9798,-1.9798,-1.9798,-1.9798,-1.9798,-1.9798,-1.9798,-1.9798,-1.9798,-1.9798,-1.9798,-1.9798,-1.9798,-1.9798,-1.9798,-1.9798,-1.9798,-1.9749,-1.9661,-1.9535,-1.9406,-1.9233,-1.9096,-1.8839,-1.8618,-1.8773,-1.8653,-3.2478,-3.1574,-3.17,-3.1386,-3.0846,-3.0909,-3.1122,-3.1336,-3.1235,-3.0972,-3.0821,-3.0658,-3.0382,-3.0018,-3.0068,-2.988,-2.9817,-2.9779,-2.9779,-2.9779,-2.9779,-2.9779,-2.9779,-2.9779,-2.9779,-2.988,-3.0244,-3.0269,-3.0118,-3.0331,-3.0256,-2.9993,-2.9993,-2.9792,-2.9792,-2.9779,-2.9779,-2.9779,-2.9779,-2.9779,-2.9779,-2.9779,-2.9716,-2.9478,-2.8762,-2.7996,-2.7344,-2.6788,-2.6499,-2.6487,-2.6487,-2.6487,-2.6449,-2.6348,-2.6084,-2.5598,-2.5021,-2.4443,-2.4017,-2.3484,-2.3095,-2.3095,-2.3095,-2.3095,-2.3095,-2.3095,-2.3095,-2.3095,-2.307,-2.2606,-2.1656,-2.0489,-1.9974,-1.9874,-1.9899,-1.9874,-1.9811,-1.9823,-2.005,-2.0339,-2.0465,-2.0503,-2.049,-2.039,-2.0213,-1.9911,-1.9798,-1.9798,-1.9798,-1.9798,-1.9798,-1.9798,-1.9798,-1.9798,-1.9798,-1.9798,-1.9798,-1.9798,-1.9798,-1.9798,-1.9798,-1.9798,-1.9798,-1.9798,-1.9798,-1.9724,-1.9649,-1.9457,-1.9315,-1.9124,-1.8967,-1.8823,-1.876,-1.8865,-1.8939,-3.2416,-3.1449,-3.1662,-3.1185,-3.0357,-3.0455,-3.0633,-3.0645,-3.0645,-3.0645,-3.0633,-3.062,-3.0444,-3.0181,-3.0168,-3.008,-2.9829,-2.9779,-2.9779,-2.9779,-2.9779,-2.9779,-2.9779,-2.9779,-2.9792,-2.9892,-3.0344,-3.0394,-3.0382,-3.0633,-3.0721,-3.0218,-3.0168,-3.003,-2.9817,-2.9779,-2.9779,-2.9779,-2.9779,-2.9779,-2.9779,-2.9779,-2.9779,-2.9578,-2.8737,-2.7934,-2.767,-2.6889,-2.6562,-2.6487,-2.6487,-2.6487,-2.6487,-2.6487,-2.6323,-2.6009,-2.5222,-2.4725,-2.4274,-2.3609,-2.3095,-2.312,-2.3108,-2.3095,-2.3095,-2.3095,-2.3095,-2.3095,-2.3032,-2.2732,-2.1933,-2.0905,-2.0327,-2.0289,-2.0465,-2.0503,-2.0302,-2.0239,-2.0314,-2.0629,-2.0654,-2.0654,-2.0666,-2.0629,-2.0289,-1.9836,-1.9798,-1.9798,-1.9798,-1.9798,-1.9798,-1.9798,-1.9798,-1.9798,-1.9798,-1.9798,-1.9798,-1.9798,-1.9798,-1.9798,-1.9798,-1.9798,-1.9798,-1.9798,-1.9798,-1.9774,-1.9674,-1.9445,-1.9314,-1.9193,-1.9057,-1.8955,-1.8894,-1.891,-1.9024,-3.229,-3.1311,-3.1775,-3.116,-3.0093,-3.0319,-3.0294,-3.0005,-2.9829,-3.0118,-3.0407,-3.0495,-3.0382,-3.0432,-3.0367,-3.0181,-2.9905,-2.9779,-2.9779,-2.9779,-2.9955,-2.9892,-2.9867,-2.9905,-2.9993,-2.9993,-3.0532,-3.0696,-3.0746,-3.1148,-3.1223,-3.0796,-3.0568,-3.0369,-3.0018,-2.9804,-2.9779,-2.9779,-2.9779,-2.9779,-2.9779,-2.9779,-2.9754,-2.939,-2.8687,-2.8021,-2.767,-2.704,-2.6487,-2.6487,-2.6487,-2.6487,-2.6487,-2.6487,-2.6487,-2.6436,-2.5511,-2.5026,-2.477,-2.4004,-2.3296,-2.3233,-2.3133,-2.3108,-2.3095,-2.3095,-2.3095,-2.3045,-2.2957,-2.2719,-2.2284,-2.1405,-2.0905,-2.088,-2.1257,-2.1245,-2.0981,-2.0867,-2.1031,-2.1018,-2.1043,-2.0981,-2.0767,-2.0603,-2.0189,-1.9823,-1.9811,-1.9798,-1.9798,-1.9798,-1.9798,-1.9798,-1.9798,-1.9798,-1.9798,-1.9798,-1.9798,-1.9798,-1.9798,-1.9761,-1.9774,-1.9799,-1.9799,-1.9798,-1.9786,-1.9774,-1.975,-1.9648,-1.9505,-1.9326,-1.9322,-1.9341,-1.9206,-1.8993,-1.9081,-3.1725,-3.0746,-3.0846,-3.0708,-3.0432,-3.0105,-3.0143,-3.0369,-2.9955,-2.9829,-2.993,-2.9942,-2.998,-2.9967,-2.993,-2.9854,-2.9804,-2.9779,-2.9779,-2.988,-3.0143,-3.0244,-2.9892,-3.0281,-3.0432,-3.0608,-3.0972,-3.106,-3.0972,-3.1499,-3.1687,-3.1273,-3.0909,-3.0608,-3.0357,-3.0068,-2.9842,-2.9792,-2.9779,-2.9779,-2.9779,-2.9767,-2.9553,-2.9189,-2.8524,-2.7984,-2.7431,-2.6889,-2.6487,-2.6487,-2.6487,-2.6487,-2.6487,-2.6487,-2.6487,-2.6348,-2.5833,-2.5372,-2.5222,-2.4469,-2.3954,-2.3753,-2.3434,-2.3145,-2.312,-2.3095,-2.3095,-2.2982,-2.2719,-2.2393,-2.2293,-2.1744,-2.143,-2.1393,-2.1521,-2.1559,-2.1481,-2.1681,-2.1933,-2.1895,-2.1631,-2.1255,-2.1018,-2.0654,-2.0176,-1.9874,-1.9811,-1.9798,-1.9798,-1.9798,-1.9798,-1.9798,-1.9798,-1.9798,-1.9798,-1.9798,-1.9798,-1.9798,-1.9786,-1.9699,-1.9724,-1.9749,-1.9761,-1.994,-1.9889,-1.975,-1.975,-1.9774,-1.9629,-1.9379,-1.9524,-1.9745,-1.9367,-1.9011,-1.9096,-3.1323,-3.0633,-3.062,-3.0444,-3.0168,-2.9905,-2.9942,-3.0118,-2.9905,-2.9779,-2.9779,-2.9779,-2.9779,-2.9779,-2.9779,-2.9779,-2.9792,-2.9779,-2.9779,-2.9917,-3.0306,-3.0319,-2.9993,-3.062,-3.0758,-3.0922,-3.1336,-3.1524,-3.1185,-3.2139,-3.2139,-3.1574,-3.1361,-3.1157,-3.0656,-3.0382,-3.0043,-2.9892,-2.9779,-2.9779,-2.9779,-2.9779,-2.9478,-2.9001,-2.8637,-2.8122,-2.7381,-2.708,-2.6776,-2.6562,-2.6487,-2.6487,-2.6487,-2.6487,-2.6487,-2.6399,-2.5971,-2.5598,-2.5511,-2.4833,-2.4343,-2.3991,-2.3703,-2.3409,-2.3195,-2.3095,-2.3095,-2.2982,-2.2644,-2.2447,-2.2681,-2.2209,-2.197,-2.197,-2.2121,-2.2146,-2.2121,-2.2447,-2.2556,-2.2556,-2.192,-2.1455,-2.1255,-2.0803,-2.02,-1.9936,-1.9823,-1.9798,-1.9798,-1.9798,-1.9798,-1.9798,-1.9798,-1.9798,-1.9798,-1.9798,-1.9798,-1.9798,-1.9774,-1.9699,-1.9788,-1.9876,-2.0093,-2.0283,-2.0117,-1.9864,-1.9836,-1.987,-1.9646,-1.9473,-1.9549,-1.9541,-1.9265,-1.9083,-1.9153,-3.0922,-3.0457,-3.0444,-3.0193,-2.9829,-2.9779,-2.9792,-2.9779,-2.9792,-2.9779,-2.9779,-2.9779,-2.9779,-2.9779,-2.9779,-2.9792,-2.9804,-2.988,-3.0005,-3.0118,-3.0557,-3.052,-3.0507,-3.0809,-3.126,-3.1298,-3.1687,-3.1989,-3.1813,-3.2558,-3.2453,-3.2102,-3.2177,-3.1775,-3.0984,-3.0645,-3.0306,-2.9967,-2.9779,-2.9779,-2.9779,-2.9754,-2.9515,-2.895,-2.8787,-2.8247,-2.7394,-2.709,-2.6851,-2.66,-2.6487,-2.6487,-2.6487,-2.6487,-2.6487,-2.6411,-2.6047,-2.5824,-2.5636,-2.5109,-2.455,-2.428,-2.3954,-2.3547,-2.3283,-2.3095,-2.3095,-2.302,-2.2782,-2.2619,-2.2907,-2.2694,-2.2523,-2.2548,-2.2769,-2.2957,-2.2694,-2.2744,-2.292,-2.2644,-2.202,-2.1619,-2.1393,-2.0652,-1.9987,-1.9911,-1.9798,-1.9798,-1.9798,-1.9798,-1.9798,-1.9798,-1.9798,-1.9798,-1.9798,-1.9798,-1.9798,-1.9798,-1.9786,-1.9724,-1.9901,-2.0091,-2.022,-2.0178,-2.0271,-2.0054,-1.9999,-1.9982,-1.9956,-1.9842,-1.9629,-1.9492,-1.9416,-1.9245,-1.9166,-3.0382,-2.9892,-2.9892,-2.9842,-2.9804,-2.9779,-2.9779,-2.9779,-2.9779,-2.9779,-2.9779,-2.9779,-2.9779,-2.9779,-2.9779,-2.9779,-2.9905,-3.0156,-3.0319,-3.0369,-3.0859,-3.1072,-3.1122,-3.126,-3.1675,-3.18,-3.2114,-3.2177,-3.2252,-3.2792,-3.3061,-3.2784,-3.234,-3.1888,-3.1248,-3.0884,-3.0344,-2.9892,-2.9779,-2.9779,-2.9779,-2.9779,-2.9465,-2.8938,-2.8574,-2.8034,-2.7442,-2.7052,-2.6725,-2.6537,-2.6487,-2.6487,-2.6487,-2.6487,-2.6487,-2.6487,-2.6424,-2.6386,-2.6185,-2.5536,-2.4838,-2.4531,-2.3966,-2.3333,-2.3133,-2.3095,-2.3095,-2.3095,-2.2995,-2.297,-2.3058,-2.302,-2.2995,-2.2957,-2.2995,-2.3083,-2.2982,-2.2882,-2.307,-2.2844,-2.2246,-2.1794,-2.1455,-2.0577,-1.9811,-1.9798,-1.9798,-1.9798,-1.9798,-1.9798,-1.9798,-1.9798,-1.9798,-1.9798,-1.9798,-1.9798,-1.9925,-1.9899,-1.9899,-1.9901,-2.0142,-2.0296,-1.9759,-1.9793,-2.0014,-2.0204,-2.0128,-2.0152,-2.0279,-2.0102,-1.9745,-1.9698,-1.9762,-1.9509,-1.9153,-3.0005,-2.9792,-2.9779,-2.9779,-2.9779,-2.9779,-2.9779,-2.9779,-2.9779,-2.9779,-2.9779,-2.9779,-2.9779,-2.9779,-2.9779,-2.9779,-2.9854,-3.008,-3.0156,-3.0294,-3.0696,-3.0959,-3.1085,-3.1537,-3.2051,-3.224,-3.2541,-3.2729,-3.2805,-3.2893,-3.3124,-3.3074,-3.278,-3.224,-3.1474,-3.116,-3.0557,-3.0055,-2.9779,-2.9779,-2.9779,-2.9754,-2.9528,-2.8938,-2.8938,-2.836,-2.7557,-2.7444,-2.704,-2.6713,-2.6487,-2.6487,-2.6487,-2.6487,-2.6487,-2.6487,-2.6487,-2.6474,-2.6399,-2.5996,-2.546,-2.4908,-2.4274,-2.3873,-2.3346,-2.3095,-2.3095,-2.3095,-2.3095,-2.3095,-2.3095,-2.3095,-2.3095,-2.3095,-2.3095,-2.3095,-2.3095,-2.3095,-2.3045,-2.2757,-2.2456,-2.2033,-2.1481,-2.0602,-1.9936,-1.9798,-1.9798,-1.9798,-1.9798,-1.9798,-1.9798,-1.9798,-1.9798,-1.9798,-1.9798,-1.9811,-2.0114,-2.0177,-2.0353,-2.0381,-2.0562,-2.0463,-1.9949,-1.9827,-2.0197,-2.0293,-2.0208,-2.0118,-2.0083,-1.9934,-1.9795,-1.9697,-1.9609,-1.9361,-1.9229,-2.9704,-2.9591,-2.9729,-2.9779,-2.9779,-2.9779,-2.9779,-2.9779,-2.9779,-2.9779,-2.9779,-2.9779,-2.9779,-2.9779,-2.9779,-2.9792,-2.9817,-2.993,-2.9993,-3.0156,-3.0407,-3.0809,-3.1223,-3.1825,-3.2102,-3.2416,-3.2805,-3.298,-3.3074,-3.3124,-3.3124,-3.3111,-3.2792,-3.2277,-3.1612,-3.1122,-3.062,-2.988,-2.9779,-2.9779,-2.9779,-2.9779,-2.9553,-2.9327,-2.9151,-2.8775,-2.777,-2.7406,-2.7102,-2.6713,-2.6487,-2.6487,-2.6487,-2.6487,-2.6487,-2.6487,-2.6487,-2.6487,-2.6424,-2.6172,-2.5787,-2.5247,-2.4607,-2.4017,-2.3283,-2.3095,-2.3095,-2.3095,-2.3095,-2.3095,-2.3095,-2.3095,-2.3095,-2.3095,-2.3095,-2.3095,-2.3095,-2.3095,-2.307,-2.2895,-2.2594,-2.2221,-2.1568,-2.0677,-2.0125,-1.9874,-1.9798,-1.9798,-1.9798,-1.9824,-1.9798,-1.9824,-1.9824,-1.9787,-1.9674,-1.98,-2.0103,-2.0407,-2.0584,-2.0677,-2.072,-2.0579,-2.0192,-2.0225,-2.0201,-1.9921,-1.9548,-1.9695,-1.9824,-1.9772,-1.967,-1.9492,-1.935,-1.9209,-1.953,-2.9478,-2.9001,-2.9566,-2.9779,-2.9779,-2.9779,-2.9779,-2.9779,-2.9779,-2.9779,-2.9779,-2.9779,-2.9779,-2.9804,-2.9854,-2.9867,-2.9854,-3.0344,-3.0482,-3.0532,-3.0658,-3.1135,-3.1574,-3.1851,-3.2051,-3.2817,-3.3099,-3.3111,-3.3086,-3.2955,-3.3061,-3.3074,-3.2641,-3.2026,-3.1373,-3.0834,-3.0432,-2.9867,-2.9779,-2.9779,-2.9779,-2.9779,-2.9729,-2.949,-2.8825,-2.8134,-2.7996,-2.7306,-2.6788,-2.6512,-2.6487,-2.6487,-2.6487,-2.6487,-2.6487,-2.6487,-2.6487,-2.6487,-2.6436,-2.6172,-2.5699,-2.5297,-2.4682,-2.3891,-2.3195,-2.3108,-2.3095,-2.3095,-2.3095,-2.3095,-2.3095,-2.3095,-2.3095,-2.3095,-2.3095,-2.3095,-2.3095,-2.3095,-2.307,-2.2995,-2.2744,-2.2406,-2.2058,-2.1255,-2.0528,-2.0239,-1.9811,-1.9798,-1.9837,-1.9862,-1.9837,-1.9837,-1.9824,-1.9737,-1.9496,-1.9686,-2.0118,-2.045,-2.0669,-2.0669,-2.0615,-2.0433,-2.0306,-1.9699,-1.9462,-1.9202,-1.9015,-1.9182,-1.935,-1.9554,-1.959,-1.9584,-1.9809,-1.9937,-2.0377,-2.934,-2.9478,-2.9704,-2.9779,-2.9779,-2.9779,-2.9779,-2.9779,-2.9779,-2.9779,-2.9779,-2.9779,-2.9779,-2.988,-3.0193,-3.0294,-3.0319,-3.0482,-3.0771,-3.0884,-3.0947,-3.1298,-3.1763,-3.2139,-3.2315,-3.2973,-3.3124,-3.3124,-3.3111,-3.2842,-3.2867,-3.2767,-3.2416,-3.17,-3.106,-3.0482,-3.0043,-2.9892,-2.9779,-2.9779,-2.9779,-2.9779,-2.9779,-2.9691,-2.9114,-2.8448,-2.8059,-2.7381,-2.6914,-2.6587,-2.6499,-2.6487,-2.6487,-2.6487,-2.6487,-2.6487,-2.6487,-2.6487,-2.6487,-2.621,-2.5862,-2.5059,-2.4418,-2.3778,-2.3246,-2.3108,-2.3108,-2.3095,-2.3095,-2.3095,-2.3095,-2.3095,-2.3095,-2.3095,-2.3095,-2.3095,-2.3095,-2.3095,-2.3095,-2.3032,-2.292,-2.2694,-2.2359,-2.1945,-2.1232,-2.0578,-2.0163,-1.9823,-1.9899,-1.9875,-1.9862,-1.9862,-1.985,-1.9876,-1.966,-1.9901,-2.0195,-2.0424,-2.0666,-2.065,-2.0581,-2.0586,-2.0326,-1.952,-1.8905,-1.8826,-1.8785,-1.8752,-1.8962,-1.9397,-1.969,-1.9828,-2.0156,-2.0547,-2.0949,-2.9227,-2.9327,-2.9641,-2.9779,-2.9779,-2.9779,-2.9779,-2.9779,-2.9779,-2.9779,-2.9779,-2.9792,-2.9905,-3.0118,-3.0394,-3.0595,-3.057,-3.0633,-3.0834,-3.0871,-3.0871,-3.1298,-3.1876,-3.2277,-3.2441,-3.2998,-3.3124,-3.3124,-3.3099,-3.2654,-3.2641,-3.2579,-3.224,-3.1499,-3.0984,-3.0168,-2.9792,-2.9779,-2.9779,-2.9779,-2.9779,-2.9779,-2.9779,-2.9704,-2.9189,-2.8587,-2.8109,-2.7507,-2.7014,-2.6663,-2.6487,-2.6487,-2.6487,-2.6487,-2.6487,-2.6487,-2.6487,-2.6487,-2.6487,-2.6399,-2.6059,-2.5272,-2.4657,-2.4042,-2.3509,-2.3221,-2.3095,-2.3095,-2.3095,-2.3095,-2.3095,-2.3095,-2.3095,-2.3095,-2.3095,-2.3095,-2.3095,-2.3095,-2.3095,-2.3083,-2.297,-2.2895,-2.2669,-2.2322,-2.1744,-2.1081,-2.0566,-2.0277,-2.0189,-2.0101,-1.9888,-1.9888,-1.9888,-1.9902,-1.9939,-2.0016,-2.0067,-2.0208,-2.0409,-2.055,-2.0535,-2.0512,-2.0309,-1.9638,-1.9092,-1.8736,-1.8733,-1.8919,-1.9159,-1.9426,-1.9788,-2.0246,-2.0614,-2.0997,-2.1067,-2.9139,-2.8323,-2.9352,-2.9779,-2.9741,-2.9779,-2.9779,-2.9779,-2.9779,-2.9779,-2.9779,-2.9792,-3.0043,-3.0355,-3.052,-3.0608,-3.062,-3.062,-3.0721,-3.0783,-3.0746,-3.1245,-3.1863,-3.2277,-3.2503,-3.2998,-3.3124,-3.3124,-3.3124,-3.283,-3.2667,-3.2365,-3.2001,-3.1424,-3.126,-3.0306,-2.9817,-2.9779,-2.9779,-2.9779,-2.9779,-2.9779,-2.9779,-2.9654,-2.9114,-2.8474,-2.8109,-2.7431,-2.6939,-2.6587,-2.6499,-2.6487,-2.6487,-2.6487,-2.6487,-2.6487,-2.6487,-2.6487,-2.6487,-2.6487,-2.6135,-2.5561,-2.4971,-2.4506,-2.3991,-2.3552,-2.3133,-2.3158,-2.3095,-2.3095,-2.3095,-2.3095,-2.3095,-2.3095,-2.3095,-2.3095,-2.3095,-2.3095,-2.3095,-2.3095,-2.3095,-2.3058,-2.2895,-2.2631,-2.2171,-2.1594,-2.1043,-2.0754,-2.0629,-2.0569,-2.042,-2.0292,-2.0331,-2.0297,-2.0297,-2.0004,-1.9965,-2.0076,-2.0284,-2.0545,-2.0414,-2.0167,-1.9921,-1.9574,-1.9276,-1.8876,-1.9027,-1.9233,-1.9606,-2.002,-2.0396,-2.078,-2.1148,-2.1275,-2.1191,-2.9001,-2.8712,-2.9478,-2.9566,-2.9264,-2.9641,-2.9779,-2.9779,-2.9779,-2.9779,-2.9779,-2.9779,-2.9854,-3.0131,-3.047,-3.062,-3.062,-3.0633,-3.0696,-3.1047,-3.0809,-3.1323,-3.1901,-3.2252,-3.2503,-3.293,-3.3124,-3.3074,-3.3068,-3.2842,-3.2792,-3.2554,-3.2064,-3.1336,-3.0557,-2.988,-2.9792,-2.9779,-2.9779,-2.9779,-2.9792,-2.9779,-2.9779,-2.9741,-2.8938,-2.8373,-2.8072,-2.7379,-2.6801,-2.6537,-2.6487,-2.6487,-2.6487,-2.6487,-2.6487,-2.6487,-2.6487,-2.6487,-2.6487,-2.6449,-2.621,-2.5749,-2.5385,-2.4883,-2.413,-2.3879,-2.3509,-2.3208,-2.3108,-2.3095,-2.3095,-2.3095,-2.3095,-2.3095,-2.3095,-2.3095,-2.3095,-2.3095,-2.3095,-2.3095,-2.3095,-2.3095,-2.2995,-2.2932,-2.256,-2.2272,-2.1757,-2.1368,-2.1204,-2.1357,-2.1312,-2.1066,-2.0966,-2.0873,-2.0707,-2.0361,-2.0372,-2.0658,-2.0753,-2.089,-2.058,-2.0084,-1.9714,-1.9461,-1.9266,-1.9084,-1.9342,-1.9659,-2.0247,-2.0695,-2.0981,-2.1094,-2.1248,-2.1185,-2.0921,-2.8775,-2.8725,-2.9252,-2.9164,-2.8775,-2.9465,-2.9779,-2.9779,-2.9779,-2.9779,-2.9779,-2.9792,-2.9942,-3.0156,-3.0419,-3.062,-3.062,-3.0633,-3.0683,-3.1097,-3.1022,-3.1348,-3.1763,-3.2127,-3.2378,-3.2717,-3.278,-3.2754,-3.2742,-3.2616,-3.2591,-3.2566,-3.2378,-3.1449,-3.0608,-3.0281,-3.0306,-3.0244,-3.0156,-3.0005,-2.988,-2.9779,-2.9779,-2.9553,-2.9001,-2.8323,-2.7934,-2.7366,-2.6675,-2.6562,-2.6487,-2.6487,-2.6487,-2.6487,-2.6487,-2.6487,-2.6487,-2.6487,-2.6487,-2.6487,-2.6285,-2.6034,-2.5795,-2.5184,-2.4418,-2.4104,-2.3653,-2.3308,-2.317,-2.3145,-2.317,-2.317,-2.3145,-2.3158,-2.3158,-2.3158,-2.3095,-2.3095,-2.3095,-2.3095,-2.3095,-2.3095,-2.3095,-2.3083,-2.2932,-2.2719,-2.2481,-2.2133,-2.176,-2.1812,-2.1848,-2.1602,-2.1297,-2.1091,-2.0914,-2.0693,-2.0828,-2.1193,-2.1153,-2.0988,-2.0748,-2.0247,-1.9809,-1.96,-1.9962,-2.0125,-1.9849,-2.0098,-2.0819,-2.123,-2.1441,-2.1479,-2.1434,-2.1274,-2.1094,-2.8612,-2.8247,-2.8662,-2.8612,-2.8386,-2.9352,-2.9779,-2.9779,-2.9779,-2.9779,-2.9779,-2.9779,-2.998,-3.0432,-3.0557,-3.052,-3.0495,-3.0507,-3.0532,-3.067,-3.0783,-3.1148,-3.1449,-3.1775,-3.1976,-3.2114,-3.2215,-3.2265,-3.229,-3.2704,-3.2717,-3.2328,-3.2227,-3.1461,-3.0959,-3.0821,-3.0771,-3.0444,-3.0244,-3.0068,-2.9854,-2.9779,-2.9704,-2.9453,-2.8963,-2.8386,-2.7921,-2.7344,-2.6914,-2.6663,-2.6487,-2.6487,-2.6487,-2.6487,-2.6487,-2.6487,-2.6487,-2.6487,-2.6487,-2.6487,-2.6474,-2.6285,-2.5984,-2.541,-2.4913,-2.4519,-2.4142,-2.3659,-2.3421,-2.3346,-2.3296,-2.3283,-2.3258,-2.3258,-2.3258,-2.3208,-2.312,-2.3095,-2.3095,-2.3095,-2.3095,-2.3095,-2.3095,-2.3095,-2.3095,-2.2995,-2.2786,-2.2581,-2.2232,-2.1948,-2.1944,-2.1817,-2.1517,-2.1233,-2.1043,-2.0963,-2.0979,-2.1253,-2.0946,-2.0755,-2.0533,-2.0568,-2.0407,-2.0507,-2.1111,-2.1271,-2.1092,-2.1184,-2.1517,-2.1873,-2.2432,-2.1839,-2.1773,-2.1811,-2.1674,-2.8837,-2.8675,-2.8813,-2.88,-2.8775,-2.9478,-2.9779,-2.9779,-2.9779,-2.9779,-2.9779,-2.9779,-2.9917,-3.003,-3.003,-3.0043,-3.0043,-3.003,-3.0018,-3.0181,-3.0482,-3.0595,-3.0821,-3.1135,-3.1323,-3.1537,-3.1687,-3.1851,-3.2277,-3.278,-3.2453,-3.18,-3.2014,-3.1461,-3.1135,-3.111,-3.0696,-3.0344,-3.0156,-3.0018,-2.9867,-2.9779,-2.9616,-2.9277,-2.88,-2.826,-2.7758,-2.718,-2.6788,-2.66,-2.6512,-2.6499,-2.6487,-2.6487,-2.6487,-2.6487,-2.6487,-2.6487,-2.6487,-2.6487,-2.6487,-2.6487,-2.6285,-2.5971,-2.5523,-2.5134,-2.4782,-2.4236,-2.386,-2.381,-2.3847,-2.3847,-2.3684,-2.3602,-2.3534,-2.3409,-2.3296,-2.3095,-2.3095,-2.3095,-2.3095,-2.3095,-2.3095,-2.3095,-2.3095,-2.3095,-2.303,-2.2841,-2.266,-2.235,-2.2117,-2.2018,-2.1762,-2.1446,-2.1367,-2.1293,-2.1231,-2.1188,-2.096,-2.0849,-2.0921,-2.0985,-2.1045,-2.1446,-2.2128,-2.2398,-2.2408,-2.2571,-2.277,-2.3368,-2.3769,-2.2843,-2.2176,-2.2346,-2.2332,-2.8888,-2.8888,-2.8888,-2.9051,-2.9315,-2.9641,-2.9779,-2.9779,-2.9779,-2.9779,-2.9779,-2.9779,-2.9779,-2.9804,-2.9817,-2.9817,-2.9817,-2.9867,-2.9955,-3.0269,-3.0231,-3.0507,-3.067,-3.0796,-3.116,-3.1273,-3.1311,-3.1474,-3.2064,-3.2202,-3.1951,-3.1876,-3.1976,-3.1348,-3.0947,-3.0821,-3.0557,-3.0206,-2.998,-2.9942,-2.9867,-2.9779,-2.9541,-2.9214,-2.865,-2.8235,-2.7858,-2.7318,-2.7052,-2.6864,-2.6826,-2.6688,-2.66,-2.6487,-2.6487,-2.6487,-2.6487,-2.6487,-2.6487,-2.6487,-2.6487,-2.6487,-2.6487,-2.6311,-2.6021,-2.5636,-2.5209,-2.4725,-2.4544,-2.4406,-2.4494,-2.4519,-2.4255,-2.3991,-2.3853,-2.3715,-2.3452,-2.3145,-2.3095,-2.3095,-2.3095,-2.3095,-2.3095,-2.3095,-2.31,-2.305,-2.2993,-2.2823,-2.2741,-2.2604,-2.2401,-2.224,-2.1981,-2.1693,-2.166,-2.1611,-2.152,-2.1418,-2.1259,-2.1202,-2.1318,-2.1455,-2.1544,-2.2303,-2.3225,-2.3409,-2.3579,-2.3865,-2.4148,-2.4583,-2.4772,-2.423,-2.36,-2.3428,-2.3294,-2.885,-2.89,-2.8938,-2.9315,-2.9741,-2.9779,-2.9779,-2.9779,-2.9779,-2.9779,-2.9779,-2.9779,-2.9779,-2.9779,-2.9779,-2.9779,-2.9779,-2.9804,-2.9967,-3.0493,-3.0608,-3.067,-3.0608,-3.0959,-3.0846,-3.0947,-3.111,-3.1248,-3.1838,-3.2014,-3.2026,-3.2127,-3.1587,-3.0984,-3.0545,-3.0495,-3.0269,-2.998,-3.003,-3.0131,-2.9867,-2.9779,-2.9754,-2.9566,-2.9176,-2.875,-2.8624,-2.8273,-2.7808,-2.748,-2.714,-2.6889,-2.6663,-2.6487,-2.6487,-2.6487,-2.6487,-2.6487,-2.6487,-2.6487,-2.6487,-2.6487,-2.6487,-2.6449,-2.6235,-2.6059,-2.5624,-2.536,-2.5134,-2.5109,-2.5184,-2.5034,-2.4782,-2.4531,-2.4343,-2.4155,-2.3873,-2.3597,-2.3409,-2.3346,-2.317,-2.3158,-2.3075,-2.3062,-2.3022,-2.2997,-2.2913,-2.2757,-2.2683,-2.266,-2.257,-2.2399,-2.1996,-2.1761,-2.1992,-2.1927,-2.1784,-2.1683,-2.1708,-2.1708,-2.1938,-2.2017,-2.2059,-2.2968,-2.3945,-2.4488,-2.4782,-2.5123,-2.5245,-2.5001,-2.5191,-2.5382,-2.5084,-2.4607,-2.4109,-2.8549,-2.8938,-2.9402,-2.9666,-2.9779,-2.9779,-2.9779,-2.9779,-2.9779,-2.9779,-2.9779,-2.9779,-2.9779,-2.9779,-2.9779,-2.9779,-2.9779,-2.9792,-2.988,-3.0055,-3.0331,-3.047,-3.0105,-3.0369,-3.0331,-3.0294,-3.0532,-3.121,-3.1851,-3.1964,-3.1788,-3.1587,-3.116,-3.0708,-3.0193,-3.0156,-3.003,-2.9817,-2.9905,-3.003,-2.9842,-2.9716,-2.9641,-2.934,-2.8925,-2.8737,-2.8486,-2.7921,-2.7605,-2.7291,-2.6864,-2.6637,-2.6512,-2.6499,-2.6487,-2.6487,-2.6487,-2.6487,-2.6487,-2.6487,-2.6487,-2.6487,-2.6487,-2.6487,-2.6436,-2.6336,-2.6185,-2.5959,-2.5833,-2.5845,-2.5762,-2.5536,-2.5297,-2.5059,-2.4788,-2.4562,-2.4324,-2.4036,-2.3791,-2.3509,-2.3296,-2.3226,-2.3113,-2.2997,-2.2968,-2.2904,-2.2789,-2.268,-2.2543,-2.2498,-2.2535,-2.2313,-2.1852,-2.1713,-2.2106,-2.2454,-2.2428,-2.2648,-2.2829,-2.2738,-2.2554,-2.2909,-2.3242,-2.3826,-2.4589,-2.5313,-2.604,-2.6539,-2.6524,-2.5971,-2.5779,-2.604,-2.5794,-2.5313,-2.4825,-2.8285,-2.8599,-2.8913,-2.9202,-2.9377,-2.9415,-2.9541,-2.9767,-2.9779,-2.9779,-2.9779,-2.9779,-2.9779,-2.9779,-2.9779,-2.9779,-2.9779,-2.9779,-3.003,-3.0118,-3.0068,-3.0244,-3.0156,-3.008,-3.0269,-3.0331,-3.0997,-3.1662,-3.1901,-3.2114,-3.1951,-3.1625,-3.1173,-3.0633,-3.0181,-3.0118,-2.998,-2.9817,-2.9792,-2.9767,-2.9767,-2.9742,-2.9679,-2.9352,-2.9227,-2.9038,-2.895,-2.8473,-2.8134,-2.7605,-2.6964,-2.6587,-2.6499,-2.6487,-2.6487,-2.6487,-2.6487,-2.6487,-2.6487,-2.6487,-2.6487,-2.6487,-2.6487,-2.6487,-2.6487,-2.6399,-2.6399,-2.621,-2.6185,-2.6197,-2.621,-2.6047,-2.5711,-2.5448,-2.5209,-2.4971,-2.4644,-2.4305,-2.3822,-2.3321,-2.3283,-2.3434,-2.3273,-2.2879,-2.287,-2.2934,-2.2827,-2.268,-2.2545,-2.2521,-2.2512,-2.2545,-2.2244,-2.2278,-2.2793,-2.3111,-2.3231,-2.3519,-2.3759,-2.3385,-2.3133,-2.3854,-2.4486,-2.4729,-2.5392,-2.6564,-2.7235,-2.7375,-2.7375,-2.6871,-2.6747,-2.6762,-2.6346,-2.5985,-2.5848,-2.8034,-2.8097,-2.8134,-2.8349,-2.88,-2.8888,-2.9214,-2.9628,-2.9754,-2.9779,-2.9779,-2.9779,-2.9779,-2.9779,-2.9779,-2.9779,-2.9779,-2.9779,-3.0093,-3.0281,-3.0369,-3.0244,-3.0269,-3.0407,-3.0394,-3.0683,-3.1273,-3.1411,-3.1499,-3.1675,-3.175,-3.1863,-3.1486,-3.0922,-3.0645,-3.0444,-3.0193,-2.9892,-2.9767,-2.9755,-2.9793,-2.9781,-2.9743,-2.973,-2.9767,-2.9767,-2.978,-2.9504,-2.8976,-2.8231,-2.7195,-2.6732,-2.6487,-2.6487,-2.6487,-2.6487,-2.6487,-2.6487,-2.6487,-2.6487,-2.6487,-2.6487,-2.6487,-2.6487,-2.6487,-2.6487,-2.6487,-2.6474,-2.6461,-2.6461,-2.6474,-2.6411,-2.6097,-2.5896,-2.5624,-2.536,-2.4983,-2.4644,-2.4073,-2.3471,-2.3471,-2.369,-2.3278,-2.2887,-2.281,-2.2875,-2.2849,-2.27,-2.2631,-2.2732,-2.2778,-2.3103,-2.3225,-2.3363,-2.3772,-2.349,-2.3625,-2.4028,-2.4173,-2.3798,-2.3678,-2.4177,-2.469,-2.5152,-2.5971,-2.7095,-2.746,-2.7515,-2.7515,-2.736,-2.6926,-2.6593,-2.6469,-2.6262,-2.6817,-2.7708,-2.8109,-2.8109,-2.8172,-2.8323,-2.8712,-2.8963,-2.9126,-2.9566,-2.9779,-2.9729,-2.9767,-2.9779,-2.9779,-2.9779,-2.9779,-2.9779,-2.9779,-2.9792,-2.993,-3.0055,-3.0005,-3.0018,-3.0131,-3.0281,-3.0595,-3.0922,-3.1047,-3.1198,-3.1097,-3.0972,-3.1047,-3.052,-3.0181,-3.0093,-2.9993,-3.0044,-2.9805,-2.9768,-2.9756,-2.9579,-2.9605,-2.9656,-2.9682,-2.9631,-2.9682,-2.9618,-2.9136,-2.8778,-2.8252,-2.7525,-2.6878,-2.6611,-2.6521,-2.6487,-2.6487,-2.6487,-2.6487,-2.6487,-2.6487,-2.6487,-2.6487,-2.6487,-2.6487,-2.6487,-2.6487,-2.6487,-2.6487,-2.6474,-2.6474,-2.6487,-2.6487,-2.6285,-2.6285,-2.6147,-2.5799,-2.5448,-2.5234,-2.4908,-2.4324,-2.3935,-2.374,-2.3201,-2.2947,-2.2849,-2.2857,-2.2808,-2.2709,-2.2956,-2.3022,-2.3125,-2.3666,-2.4191,-2.4859,-2.5383,-2.3942,-2.3798,-2.4269,-2.4511,-2.4105,-2.3975,-2.4283,-2.4772,-2.5396,-2.6276,-2.7375,-2.7585,-2.7585,-2.725,-2.7011,-2.6524,-2.6217,-2.6262,-2.6469,-2.6941]}]]